ECMWFNIL_sfc_thetae_000.txt.gz
Theta_e
332 332 332 331 330 335 337 333 332 331 331 329 331 332 335 335 338 335 335 337 337 336 335 335 336 337 340 338 336 338 338 337 337 334 334 334 331 332 332 330 330 331
331 336 339 334 338 338 334 335 333 331 330 332 330 331 331 335 335 336 334 337 339 336 335 335 335 335 334 335 336 336 335 336 336 340 336 333 332 332 332 330 328 327
332 336 335 333 334 333 330 330 333 329 331 331 331 331 332 337 334 333 334 336 335 334 333 334 334 335 335 335 335 335 337 336 336 336 337 334 334 334 333 331 329 329
333 335 334 334 334 333 331 331 332 331 330 330 331 335 337 336 335 333 333 343 334 333 334 334 335 334 333 334 334 334 335 336 336 335 336 336 336 334 332 331 332 330
333 332 332 333 333 333 332 332 331 330 331 331 332 333 336 335 334 332 331 333 333 333 332 334 333 333 334 334 334 334 334 334 334 334 333 333 332 334 334 334 331 329
334 332 333 332 333 333 333 333 332 331 331 331 332 336 335 333 332 333 333 332 332 332 331 330 331 332 332 332 332 331 332 333 334 334 331 332 330 332 336 334 331 329
334 333 332 333 334 334 333 332 332 334 331 332 333 333 335 333 333 333 332 332 331 333 332 331 330 331 332 332 331 331 332 332 333 333 332 332 333 332 334 333 332 328
334 335 334 334 334 334 333 331 331 332 332 332 331 332 333 333 331 331 332 332 332 331 331 332 332 331 332 330 331 330 331 334 333 330 330 331 331 331 332 333 331 326
335 335 334 334 334 334 333 332 332 332 334 333 333 332 333 332 332 332 332 332 331 331 330 330 330 330 330 330 331 331 330 330 332 331 330 330 330 330 331 331 328 328
336 336 334 334 333 334 334 334 334 334 336 334 333 332 332 334 334 333 333 332 331 331 330 329 329 329 330 330 331 330 330 330 330 330 330 329 329 330 331 330 329 327
337 336 335 334 334 335 334 335 335 336 335 335 334 333 333 333 334 334 333 332 332 331 329 328 328 329 329 330 331 331 331 331 330 329 328 327 328 329 332 329 328 327
337 336 336 335 334 335 336 336 336 335 335 336 335 334 334 333 332 332 333 330 329 329 329 329 329 329 329 329 330 331 331 330 330 329 328 328 328 329 329 330 330 329
336 336 336 336 336 336 337 337 336 335 334 334 336 335 333 331 330 329 329 329 330 329 329 328 328 329 327 329 330 330 330 329 328 327 328 330 330 331 331 330 330 331
337 337 337 337 337 337 336 336 336 334 332 331 332 331 330 329 329 328 328 330 329 329 330 331 330 327 327 329 330 329 329 328 327 328 327 326 327 327 328 330 330 331
338 337 338 338 338 337 336 335 334 333 331 330 330 329 330 328 328 329 328 328 330 330 330 331 328 329 331 331 329 328 328 328 328 328 328 328 327 327 326 326 327 328
338 337 337 337 337 336 335 335 334 332 331 331 331 332 331 332 330 330 330 330 330 329 329 329 329 330 333 331 332 329 327 327 328 329 328 328 329 328 327 327 327 327
336 336 337 336 336 336 335 335 334 333 332 331 331 331 331 331 332 330 330 331 331 331 328 329 331 331 329 326 327 330 329 325 326 327 327 328 328 327 326 327 325 323
335 336 336 336 336 335 335 335 334 333 331 331 331 330 331 332 331 332 332 332 332 330 328 328 329 329 325 324 325 325 328 328 326 326 327 326 326 325 324 323 322 323
335 335 336 335 335 335 334 333 332 331 330 330 330 331 331 331 332 332 332 332 331 330 328 327 328 327 323 322 322 322 323 325 323 324 324 324 324 324 323 323 324 324
335 336 335 334 335 335 333 332 331 331 331 331 332 332 332 332 332 332 332 331 331 331 330 328 326 325 322 320 319 319 321 323 323 323 323 323 323 323 324 324 324 325
338 337 335 335 335 334 333 332 332 331 331 332 332 331 331 332 332 332 332 333 332 332 329 326 328 323 319 317 316 316 318 322 321 322 321 320 321 322 323 324 325 325
337 336 336 335 334 333 333 332 331 331 331 331 332 330 331 332 332 333 332 331 327 326 327 327 330 321 318 317 316 315 318 321 320 320 319 320 322 323 323 323 324 324
336 335 335 334 334 333 332 332 331 331 331 332 331 331 330 331 331 330 329 329 328 327 327 328 327 322 316 314 314 314 316 318 318 320 320 320 321 321 321 322 323 323
334 334 334 334 332 332 332 332 332 332 332 333 331 331 331 331 329 328 329 330 329 328 329 327 325 322 314 311 311 313 317 318 318 317 318 318 320 319 319 319 321 327
335 334 333 333 332 332 333 332 332 332 332 332 331 330 330 328 329 327 327 325 326 326 332 326 323 318 311 311 311 311 317 316 316 317 317 316 315 316 316 316 317 321
330 332 334 333 332 332 333 333 333 332 331 331 329 329 329 328 326 326 326 324 326 325 326 322 321 319 321 310 309 310 314 319 317 316 316 315 313 315 315 314 314 316

ECMWFNIL_sfc_thetae_003.txt.gz
Theta_e
332 333 330 329 328 332 334 332 332 333 331 330 328 330 335 335 337 335 334 333 333 332 333 331 333 335 338 335 333 334 334 333 335 331 332 332 329 330 333 331 330 331
332 334 336 331 332 337 334 333 332 331 330 329 329 332 334 335 335 334 332 333 335 334 332 332 332 332 331 331 331 331 331 331 333 337 332 331 332 330 331 330 328 327
331 332 332 329 330 333 333 333 332 331 330 330 330 333 333 335 333 332 331 333 335 336 333 332 331 332 333 332 332 331 332 331 332 332 334 334 332 330 332 332 330 328
330 332 331 330 332 333 333 332 331 329 330 331 329 332 333 335 334 332 332 342 333 333 332 331 332 332 332 332 331 331 331 331 333 332 332 333 333 332 332 332 331 330
330 331 331 331 332 332 331 331 331 328 329 330 330 330 335 333 332 331 330 331 333 332 331 333 332 332 332 331 330 330 331 331 331 329 329 330 332 332 332 331 330 329
331 332 332 332 332 331 329 329 330 329 329 328 329 333 332 332 332 332 331 330 331 332 332 330 329 330 330 330 329 330 330 330 330 329 330 330 330 330 331 331 330 329
331 331 331 332 332 331 330 330 330 332 330 330 331 331 332 331 331 331 331 332 331 332 330 329 329 329 330 329 328 329 329 329 327 327 329 330 331 330 330 330 331 330
331 331 331 331 331 331 331 330 330 331 330 330 330 330 332 333 332 332 333 332 330 329 329 329 329 329 330 328 329 328 327 330 330 328 328 330 329 328 329 330 330 329
332 331 331 330 331 331 332 331 331 331 332 331 330 330 332 332 333 332 332 330 329 329 328 328 329 329 330 328 327 327 327 328 330 328 328 328 328 328 329 328 327 328
332 331 331 331 331 332 332 332 332 331 333 331 331 330 331 332 332 331 330 329 329 329 328 329 329 329 328 327 327 327 327 328 328 327 328 328 328 327 327 326 327 326
332 332 331 331 331 332 333 333 332 332 333 332 331 331 331 331 333 332 330 330 330 330 330 329 330 329 327 326 327 327 328 328 328 328 327 327 327 327 329 327 327 327
332 332 332 332 332 333 334 333 333 332 332 334 333 332 331 331 331 332 333 331 330 330 330 330 328 327 327 327 327 327 327 328 328 328 328 326 326 326 326 326 326 326
332 332 333 332 333 333 334 334 333 334 334 333 335 333 333 332 332 331 333 332 331 329 329 329 328 328 327 326 326 327 327 327 327 327 326 326 326 327 328 327 327 328
334 334 334 333 334 334 334 334 334 334 334 334 335 334 333 333 332 331 331 331 330 329 329 329 328 327 326 326 327 327 327 326 326 326 325 324 325 326 326 327 327 327
335 335 335 334 335 334 334 334 334 334 334 334 334 334 335 334 333 331 329 327 328 328 328 329 329 328 329 328 327 327 326 326 326 326 325 325 325 326 325 325 325 326
336 336 335 335 335 334 334 334 335 335 334 333 332 332 332 332 330 329 328 327 327 327 327 329 329 330 331 328 330 329 327 327 325 325 325 326 326 326 326 326 326 325
336 336 336 335 335 335 335 335 334 334 334 333 332 331 330 330 329 327 327 327 327 327 327 329 329 330 328 326 327 331 329 325 325 325 324 324 324 324 324 325 325 324
336 336 335 334 335 335 335 335 335 334 333 332 331 330 330 330 330 328 328 328 329 328 328 329 329 328 325 325 327 327 331 328 324 323 323 322 322 322 323 323 322 322
336 335 333 333 334 335 336 335 334 333 333 332 331 331 331 330 330 330 329 329 329 328 329 329 328 327 324 324 324 325 326 327 322 321 321 322 322 321 321 321 321 321
334 332 332 332 333 335 335 335 334 333 333 333 333 332 330 330 330 329 329 329 329 328 327 327 328 325 323 321 321 322 322 325 321 320 320 321 321 320 321 320 319 320
333 330 330 331 332 334 335 334 334 333 333 332 332 331 330 330 329 329 329 330 329 328 328 329 330 324 320 319 318 318 319 323 319 320 318 319 319 319 319 319 319 321
333 330 330 331 332 334 335 334 334 333 332 332 332 331 330 330 329 329 328 328 328 327 327 327 329 322 319 318 317 317 319 322 317 316 317 317 317 317 319 319 318 319
334 333 334 334 333 333 334 334 333 333 333 333 331 330 329 329 329 329 329 328 327 328 326 326 327 324 318 316 316 316 317 318 316 317 317 316 317 317 317 317 317 317
335 335 334 333 332 332 334 334 334 334 333 333 331 330 329 328 328 327 327 327 327 327 328 326 326 324 318 314 314 315 317 316 315 316 315 315 316 315 315 314 315 324
335 336 334 333 330 331 335 335 334 334 334 332 331 330 329 327 329 327 326 325 328 328 330 329 328 324 317 314 313 312 316 315 315 315 315 315 313 312 311 314 313 317
335 335 333 333 332 334 336 336 336 331 329 328 329 328 328 327 328 325 323 323 324 326 327 328 327 323 323 312 310 309 313 317 314 315 316 314 310 311 314 311 310 312

ECMWFNIL_sfc_thetae_006.txt.gz
Theta_e
338 338 336 335 334 335 333 332 333 335 335 335 335 335 337 339 340 339 339 338 338 337 336 336 340 340 341 339 340 340 340 337 338 336 337 337 336 335 336 337 337 335
335 336 338 335 335 337 334 334 333 335 335 334 335 335 337 339 339 339 338 336 339 336 337 337 337 339 338 339 337 337 336 337 337 339 337 336 337 336 335 337 336 334
334 335 334 331 332 334 334 334 335 335 334 334 334 335 337 339 338 338 337 336 337 337 336 336 336 338 337 336 336 337 338 337 337 337 339 338 337 336 336 335 335 333
333 334 333 331 332 333 334 334 334 334 334 333 332 335 337 338 337 336 335 341 336 337 337 336 336 336 336 336 337 337 336 336 337 337 337 338 338 338 337 337 336 335
333 333 334 332 332 335 334 333 333 332 332 333 332 335 338 338 336 335 335 337 336 336 336 336 336 335 336 336 336 336 335 336 336 335 335 335 336 337 337 336 335 335
334 334 334 332 333 333 333 333 333 332 332 332 332 335 335 336 336 335 335 334 336 336 336 336 335 336 336 336 335 335 335 335 335 334 334 334 335 335 336 336 335 334
333 333 333 333 333 333 333 333 333 334 332 333 334 333 334 333 334 335 335 335 334 337 336 336 335 335 334 334 333 334 333 333 334 333 333 334 335 335 335 334 334 334
333 333 333 333 332 332 332 332 333 333 333 333 332 333 333 333 334 334 335 335 334 335 335 335 335 334 333 333 334 333 333 333 333 333 333 334 334 334 335 335 335 334
334 333 333 332 331 331 331 331 332 333 333 332 332 332 334 334 334 334 335 335 334 335 334 334 334 334 334 333 333 333 333 332 332 332 332 333 333 333 334 335 333 333
333 333 332 331 331 331 330 331 331 332 334 333 332 332 332 334 335 335 335 335 334 335 333 333 333 333 333 333 332 332 331 331 332 332 332 333 333 333 333 333 332 332
333 333 332 331 331 331 331 331 332 332 334 332 332 332 332 333 335 335 335 334 333 333 333 333 333 333 333 332 332 332 332 331 332 332 332 332 332 333 332 332 331 331
333 333 332 331 331 331 331 332 332 332 333 333 332 332 332 332 333 334 334 333 333 333 333 333 333 333 333 333 333 332 331 331 332 332 332 332 332 332 331 332 332 332
333 333 333 332 334 333 333 335 332 332 332 332 334 333 333 332 333 333 335 334 334 334 333 333 333 333 332 332 331 331 331 331 331 332 332 332 332 332 331 331 331 331
334 334 335 334 334 334 333 333 333 333 332 333 334 333 333 333 333 333 333 335 334 334 334 334 333 332 332 331 331 331 331 331 331 332 331 331 331 331 331 331 332 332
335 335 336 335 334 333 334 334 333 333 333 333 334 334 334 334 334 334 333 333 334 333 333 333 332 332 332 331 331 331 331 331 331 331 331 330 330 330 330 330 331 331
336 335 334 334 333 332 333 334 334 334 333 333 334 335 335 335 334 334 334 333 332 332 332 332 332 332 331 327 329 333 332 331 330 330 330 331 332 331 331 330 330 330
334 334 334 334 333 333 333 334 334 334 334 334 334 334 334 335 335 333 333 333 332 331 330 331 331 331 327 325 326 329 333 331 330 330 331 331 331 331 330 330 330 330
334 334 334 335 334 334 334 335 335 334 334 334 334 332 333 334 333 332 332 332 331 330 329 330 330 327 323 324 326 326 329 333 332 330 330 329 329 329 329 329 329 328
334 334 334 334 333 334 335 335 334 334 333 333 333 334 333 332 331 331 330 330 329 329 329 330 330 327 324 324 324 324 326 329 331 330 329 328 327 327 327 328 328 328
335 335 334 334 334 334 335 334 334 333 334 334 334 334 332 331 331 331 331 330 330 330 330 331 331 326 323 323 322 323 324 326 331 329 327 327 326 326 326 326 326 327
336 335 334 334 334 335 335 334 334 334 334 334 334 333 332 331 331 330 331 331 331 331 330 331 332 325 321 320 318 318 320 325 329 327 325 325 324 324 325 326 326 325
335 333 332 333 333 334 333 332 332 333 333 335 335 333 333 332 332 332 331 331 331 331 331 331 332 323 321 319 318 317 320 326 326 325 325 325 323 323 323 324 325 326
335 333 332 332 332 332 332 331 331 333 334 335 334 333 333 331 331 331 332 332 331 331 330 330 331 325 318 315 315 315 318 324 324 324 324 322 322 322 324 324 324 324
334 333 333 332 331 330 330 332 332 334 334 336 334 334 332 332 331 330 330 331 331 330 330 330 330 326 318 315 314 315 318 325 324 322 322 321 321 322 321 322 323 324
335 334 333 331 330 330 330 329 328 330 332 334 334 334 332 331 332 329 329 329 331 330 331 330 329 325 319 318 317 314 319 324 322 321 320 320 319 319 319 320 321 320
335 335 334 332 330 330 330 329 330 330 331 332 331 331 330 329 330 328 327 326 328 329 329 329 329 328 328 319 315 312 314 323 321 321 321 321 318 319 320 320 319 319

ECMWFNIL_sfc_thetae_009.txt.gz
Theta_e
362 363 361 359 357 356 355 353 352 353 353 351 349 350 350 351 353 353 352 351 349 347 347 348 348 346 345 347 349 348 346 346 344 344 345 345 344 343 342 342 344 343
361 361 361 359 357 355 355 353 351 352 352 353 351 351 353 353 352 352 351 349 349 347 347 346 346 346 345 343 346 345 345 346 345 346 346 346 345 344 341 343 343 345
359 360 359 357 355 353 351 351 351 351 351 351 352 352 351 352 352 352 351 348 347 345 346 345 344 345 344 344 346 345 343 345 345 343 347 346 344 342 343 339 340 342
360 359 357 356 354 353 351 349 349 350 350 350 350 350 350 350 352 351 350 349 347 346 345 344 343 343 345 345 347 344 344 344 342 344 344 344 344 344 343 343 342 342
358 356 355 354 354 354 352 349 346 347 347 349 350 350 350 350 350 349 350 348 348 346 346 346 346 345 347 345 347 344 344 342 343 346 344 341 343 344 342 343 342 341
357 355 354 353 352 352 349 347 347 346 347 347 348 349 349 349 349 348 348 347 345 343 343 343 345 344 345 345 346 345 343 341 341 346 344 342 340 342 342 343 342 342
355 353 351 350 349 349 349 348 347 347 347 347 349 348 349 348 348 349 349 347 345 345 344 344 346 344 346 347 347 346 346 345 345 346 344 342 342 341 343 345 345 344
354 352 350 348 346 347 347 348 347 346 346 347 346 347 348 347 348 348 348 347 345 347 347 346 347 347 345 347 346 345 344 345 344 345 345 343 342 342 342 344 346 345
352 349 349 346 345 345 343 342 343 346 346 344 343 343 346 346 346 346 347 347 346 346 347 347 347 347 347 347 345 345 343 342 342 343 343 341 340 341 341 344 345 344
351 346 345 343 341 341 340 341 341 343 345 344 343 343 343 345 346 346 346 346 345 346 346 346 347 347 347 346 346 345 344 342 344 345 344 342 341 341 339 342 341 340
350 345 342 341 339 338 338 339 340 340 341 341 342 342 343 344 344 346 346 345 343 344 345 346 346 347 346 345 345 345 345 343 344 345 345 344 343 343 342 342 341 340
346 341 341 340 337 336 337 337 337 339 340 341 341 340 341 341 342 342 343 344 344 345 346 347 347 347 346 345 343 344 345 344 344 345 344 344 343 343 343 343 342 341
341 340 339 339 337 336 338 338 337 337 338 339 339 338 337 338 340 341 342 343 345 345 345 346 345 345 345 345 345 346 346 344 343 343 343 343 344 343 342 343 342 342
341 345 343 341 341 342 341 340 339 339 339 340 339 337 336 337 337 339 340 342 343 343 344 344 344 344 344 345 345 345 345 345 343 342 342 342 343 343 343 342 342 342
345 346 346 345 344 344 341 341 342 341 340 340 339 338 336 337 338 338 339 340 342 342 342 343 342 343 343 343 344 345 346 344 343 342 342 342 342 342 342 342 342 342
345 344 344 344 344 341 340 340 337 338 338 337 337 337 336 336 335 337 338 339 339 340 341 341 341 342 336 329 333 343 345 344 343 342 342 342 342 341 341 342 341 341
345 343 343 343 343 341 338 338 338 337 336 335 335 336 335 336 336 337 337 337 336 337 338 339 340 339 328 326 327 329 338 343 342 342 342 342 341 341 340 340 342 342
346 345 344 344 343 340 338 336 336 335 334 334 334 335 336 337 336 336 337 336 336 337 336 336 337 329 325 325 326 326 329 339 341 341 341 340 340 340 341 340 340 338
346 345 344 342 337 336 335 336 335 334 333 334 335 339 339 337 337 336 335 337 338 336 335 335 336 330 325 324 324 324 325 329 338 341 340 340 341 341 341 339 335 335
346 344 340 336 335 336 338 337 336 335 336 337 339 340 339 339 339 338 337 336 335 334 334 336 336 329 324 322 321 322 323 327 336 339 340 340 341 341 340 337 335 334
345 344 341 340 339 339 339 338 337 338 339 340 340 339 338 338 334 334 335 334 334 335 335 335 336 326 323 321 319 319 321 326 336 338 340 341 341 340 338 337 335 334
345 344 343 341 340 339 338 338 339 338 338 337 338 338 340 339 337 334 333 333 335 336 335 335 336 325 321 320 318 318 321 332 337 339 340 339 339 338 336 336 335 335
345 344 342 341 340 339 338 338 338 338 336 334 332 331 330 331 332 333 335 336 337 337 335 334 335 329 322 318 317 317 320 335 337 338 337 336 336 336 335 334 334 334
347 345 343 341 341 340 339 338 337 337 335 333 329 326 325 327 330 334 338 338 337 337 336 334 336 331 319 314 313 315 322 336 338 337 337 336 335 335 334 334 333 331
348 346 344 342 341 339 337 335 334 332 329 327 326 326 328 333 334 334 336 337 337 336 333 334 335 329 314 315 314 313 321 334 336 335 334 335 333 333 333 333 334 330
348 346 344 342 339 334 334 332 329 327 327 328 332 335 338 340 339 337 336 337 336 336 336 335 335 336 331 314 313 312 315 334 335 332 332 334 334 332 332 332 331 331

ECMWFNIL_sfc_thetae_012.txt.gz
Theta_e
364 364 362 362 363 364 364 363 363 362 362 359 357 358 356 358 358 356 355 353 352 350 349 350 348 347 346 347 347 347 345 345 344 344 345 344 343 342 341 341 342 341
364 364 364 364 364 365 367 366 366 364 363 362 360 359 359 359 357 356 355 352 351 350 351 349 347 347 346 345 346 345 344 344 344 344 344 344 344 343 341 342 341 342
365 364 362 363 363 364 364 366 366 365 362 362 362 361 359 358 357 356 355 353 351 348 349 349 346 346 345 345 346 345 344 344 343 341 345 345 342 342 342 339 340 340
366 365 363 363 364 365 366 365 367 366 364 361 360 359 358 356 356 354 353 352 350 348 348 348 346 345 345 344 344 342 343 343 343 345 344 345 344 342 342 341 340 340
367 365 366 365 365 366 367 365 365 365 363 361 361 360 357 356 354 353 351 350 350 348 347 347 346 344 344 344 344 343 342 341 343 344 342 342 343 343 341 341 340 339
368 367 367 365 365 365 365 364 365 363 362 358 357 356 355 355 353 351 351 349 348 346 346 346 344 343 342 343 344 344 343 340 341 343 342 341 340 340 339 340 339 338
368 366 364 363 363 366 365 366 365 363 361 358 357 354 354 352 351 350 349 349 348 348 347 347 346 344 343 343 344 344 343 343 343 343 341 340 340 340 339 339 339 338
368 366 364 363 364 364 364 365 364 362 362 358 357 356 354 351 351 348 347 348 347 348 348 347 346 346 343 342 343 343 343 342 341 342 342 340 340 340 340 339 339 339
367 365 364 364 361 361 362 362 362 362 361 358 355 354 354 352 350 348 348 349 348 349 348 346 346 345 344 342 342 343 343 341 340 341 340 339 338 339 339 339 338 338
366 365 362 360 359 360 360 360 359 360 359 357 353 351 351 352 349 348 348 350 348 346 347 346 345 345 344 341 342 344 343 341 341 341 340 339 338 339 338 338 337 337
365 362 361 361 360 359 359 358 357 355 354 351 350 349 350 349 349 351 350 350 348 347 346 346 344 344 342 340 343 345 344 341 341 340 340 340 340 339 338 338 337 336
365 363 362 360 358 358 356 357 352 350 349 348 347 345 345 346 347 349 348 348 349 346 346 346 345 343 342 343 343 344 343 342 340 339 338 339 340 339 339 339 338 337
364 364 361 358 358 359 355 349 346 345 345 344 345 343 343 343 345 346 346 348 348 346 345 345 344 345 346 347 345 344 344 343 340 338 336 337 338 338 338 338 337 337
364 365 362 360 358 353 346 343 344 343 343 344 344 341 342 342 341 344 347 347 347 346 345 345 346 347 348 348 347 346 344 343 342 339 336 337 339 339 338 337 337 336
366 362 359 359 354 351 345 342 342 342 342 342 343 342 342 342 343 345 345 345 347 346 346 346 347 345 345 346 346 346 345 343 341 340 339 337 337 337 338 338 339 337
362 360 359 357 353 349 345 340 339 341 342 342 345 345 345 343 343 344 344 343 344 345 345 344 341 341 338 333 338 345 345 344 343 342 340 337 337 338 338 337 338 338
362 359 358 355 352 351 350 347 343 344 345 345 346 346 345 344 343 344 342 342 343 342 342 343 342 339 330 328 328 330 340 342 341 341 341 338 338 338 338 337 338 340
361 359 357 352 350 350 352 351 349 347 347 347 345 346 347 346 344 344 343 343 341 340 337 340 342 329 326 326 327 326 329 339 340 340 339 337 337 336 337 338 339 338
362 359 357 353 348 349 350 350 348 347 347 347 346 347 346 344 344 343 343 343 340 339 338 340 342 328 325 325 325 325 326 330 338 340 339 337 337 338 336 337 342 343
361 358 355 353 350 350 349 349 348 347 348 348 347 347 345 342 341 342 342 343 343 344 344 343 342 327 323 322 322 323 324 327 338 339 340 339 338 338 337 341 344 345
361 359 356 354 351 350 349 348 348 349 349 348 346 345 344 342 342 342 342 344 343 344 342 339 337 325 321 321 320 319 321 326 333 335 335 337 339 342 341 342 343 343
360 359 357 355 352 350 348 347 348 349 347 345 346 345 345 343 344 343 340 342 343 342 338 332 332 324 321 320 318 318 321 329 330 330 332 335 338 340 343 343 342 339
360 359 357 355 353 350 347 347 347 347 347 348 345 345 344 343 343 341 342 341 340 337 332 330 331 328 319 317 316 317 322 331 332 333 336 336 336 340 341 341 340 340
361 360 357 355 353 351 349 346 347 346 346 345 342 342 341 340 341 339 339 339 337 332 330 332 333 330 317 315 316 317 324 334 335 335 335 334 337 337 339 343 340 337
361 360 356 355 352 351 351 349 348 347 347 345 342 339 336 335 334 335 336 336 334 336 333 333 332 329 317 318 317 316 326 334 334 333 332 334 336 335 337 336 338 336
358 357 355 354 352 352 351 349 349 346 343 341 339 337 332 330 330 328 328 330 332 336 338 339 338 341 330 315 314 312 319 335 334 332 331 332 334 334 330 336 338 338

ECMWFNIL_sfc_thetae_015.txt.gz
Theta_e
366 366 363 363 363 362 362 361 360 360 360 357 357 358 356 357 358 355 353 353 354 352 350 349 348 348 347 348 349 347 347 345 343 342 344 343 342 341 340 340 341 341
367 367 366 364 363 364 364 363 363 362 361 360 359 358 359 358 356 355 354 351 351 350 351 348 349 349 349 348 348 345 346 344 342 342 341 342 343 342 340 341 341 342
367 366 364 363 361 363 361 363 364 363 361 360 361 360 358 358 357 357 355 352 351 349 349 350 349 349 348 348 347 345 343 344 342 340 344 343 341 341 343 337 338 339
368 367 365 363 363 363 363 363 363 363 361 358 358 358 357 358 358 354 355 353 351 351 350 349 349 347 348 347 346 345 344 344 343 343 342 344 344 343 342 342 339 339
369 368 367 366 364 365 365 364 362 361 360 359 358 360 361 360 357 355 353 351 352 350 350 349 348 347 348 347 345 344 344 342 343 344 343 341 344 342 342 341 341 338
370 370 369 366 365 365 363 364 365 362 361 355 357 359 360 360 358 355 353 351 349 348 345 346 346 345 345 345 344 343 342 340 341 342 340 340 339 340 339 340 341 339
368 369 369 366 365 365 365 365 365 365 361 360 361 360 360 359 358 355 353 351 349 348 346 347 348 347 346 346 344 343 343 344 343 344 342 340 341 340 337 339 341 339
369 370 369 368 366 365 365 364 364 363 365 364 361 362 361 359 357 353 352 351 348 348 347 348 349 347 343 343 343 343 342 341 341 342 343 344 343 340 340 339 339 339
369 370 369 368 364 363 360 361 363 363 365 362 361 361 361 359 356 352 353 353 349 349 349 348 350 347 344 343 343 342 340 341 340 341 340 339 338 340 339 341 339 339
370 369 367 364 362 362 360 359 357 361 361 361 361 359 357 358 358 355 352 352 349 348 349 348 347 346 345 344 343 342 342 342 342 341 340 339 339 341 340 341 340 340
369 367 366 365 362 359 358 357 357 359 362 360 360 357 358 357 357 356 353 351 348 347 347 348 346 346 345 344 344 344 343 342 343 343 342 341 341 343 340 342 341 338
368 366 365 364 360 357 357 358 357 358 360 360 360 357 358 356 355 353 352 351 349 348 349 349 348 345 346 346 343 342 343 343 343 343 341 341 340 339 340 342 340 339
367 367 366 363 361 359 359 359 357 355 355 359 359 357 357 355 354 353 352 351 350 350 350 349 345 345 348 347 345 343 342 343 342 342 340 340 340 339 339 340 340 340
367 368 368 368 363 364 363 361 359 355 355 360 360 358 355 354 354 353 352 351 351 351 351 348 347 347 348 347 346 342 343 343 343 341 339 340 339 339 339 338 338 338
370 370 371 369 367 366 365 364 360 358 361 362 361 358 355 353 354 353 352 351 352 351 350 348 347 346 346 346 342 341 345 343 341 342 340 339 339 339 340 340 338 337
372 372 369 369 367 366 365 364 361 362 361 361 359 357 357 356 356 354 351 350 350 350 349 346 346 347 339 330 336 346 345 341 343 344 343 342 341 339 339 338 337 336
371 370 370 366 365 366 367 366 363 362 362 361 359 358 357 357 354 352 350 351 349 349 347 345 345 346 328 329 332 335 341 344 343 345 345 345 343 341 339 338 339 339
368 369 366 366 365 363 363 362 361 360 361 360 357 356 356 355 352 351 352 351 349 348 347 346 347 331 326 329 331 332 339 345 344 342 342 342 342 341 340 338 337 336
370 368 365 364 361 361 361 360 359 359 360 358 356 357 355 353 353 351 351 350 348 347 346 345 345 325 326 326 327 327 330 338 341 342 341 342 340 339 337 338 339 337
368 366 364 363 362 360 359 358 358 358 360 358 357 356 354 352 351 349 349 349 349 348 346 344 343 323 324 323 324 324 325 332 341 340 339 339 338 339 339 339 340 339
365 364 362 360 360 359 360 360 359 359 358 357 355 353 352 350 349 349 349 349 348 346 344 341 340 320 321 322 321 322 323 331 339 337 339 339 339 339 339 339 339 336
366 364 361 360 359 358 358 357 358 359 358 358 356 355 354 352 351 350 348 347 347 344 339 340 334 319 320 320 318 319 324 334 339 337 336 336 336 337 338 343 340 338
365 362 360 361 359 358 357 355 356 356 358 359 355 354 353 352 350 348 348 346 347 346 342 338 333 323 319 317 317 318 324 336 337 336 336 335 337 339 342 340 339 337
366 362 360 359 358 355 355 354 354 354 355 357 355 354 351 350 351 349 347 345 345 342 339 335 333 323 317 316 315 317 327 337 338 337 337 338 339 339 340 340 338 338
362 361 360 359 358 357 356 354 354 354 354 355 355 353 351 352 348 345 345 346 344 342 333 336 335 325 315 315 315 316 329 340 339 338 338 337 338 339 339 338 339 336
361 362 361 359 359 358 357 356 356 355 354 351 350 348 346 345 342 341 338 339 338 335 332 332 332 332 326 314 313 314 321 341 341 339 337 339 340 340 337 335 336 335

ECMWFNIL_sfc_thetae_018.txt.gz
Theta_e
367 367 365 366 366 364 364 363 363 362 362 360 359 358 358 358 361 359 358 356 357 356 356 356 353 352 351 352 353 352 353 349 347 348 346 347 344 343 343 342 344 351
367 367 366 367 367 366 367 365 364 363 362 363 360 361 362 359 359 360 356 355 356 353 354 352 352 351 349 349 352 349 350 352 347 347 345 344 348 345 341 347 348 350
367 367 367 365 364 365 361 364 366 364 362 362 363 364 361 361 357 359 357 355 352 351 352 351 350 351 349 350 350 349 347 348 345 343 347 345 346 345 348 339 343 341
367 367 365 364 364 365 364 364 365 364 363 362 361 361 359 358 358 356 357 356 353 351 350 349 349 348 349 350 350 347 347 346 345 346 347 347 345 348 348 351 346 347
367 367 367 365 364 366 365 363 360 362 360 361 361 361 360 359 357 355 354 353 352 350 350 349 350 348 349 348 349 346 345 345 345 346 346 347 347 345 345 347 348 347
368 368 368 366 365 365 364 362 362 361 360 359 360 359 358 359 357 354 354 351 351 350 349 349 348 347 347 348 347 347 344 342 343 345 343 343 344 344 342 343 342 341
367 367 367 366 365 365 364 363 363 360 359 359 360 357 357 358 357 355 354 352 350 350 349 348 348 347 347 347 345 344 345 344 344 343 343 343 343 342 342 346 347 344
366 366 367 366 364 364 363 363 363 362 360 359 358 356 357 357 357 356 355 353 351 351 350 349 349 348 346 346 344 343 344 344 344 344 342 342 341 340 343 343 343 343
367 367 366 365 362 362 359 359 362 364 364 360 357 354 358 359 359 357 357 355 352 351 350 348 349 348 346 346 343 343 341 340 342 343 343 341 340 341 341 343 343 341
367 367 364 362 359 360 358 358 359 361 363 362 360 355 355 360 361 359 358 355 352 351 349 347 348 348 345 345 344 343 341 341 341 342 342 342 341 341 341 341 340 340
364 364 364 362 360 360 359 359 359 359 361 361 360 357 358 360 360 360 358 355 351 350 349 347 348 347 345 344 345 344 342 341 342 343 342 342 341 342 342 339 338 337
363 362 363 363 361 360 359 359 358 359 360 361 361 359 359 360 360 359 357 355 353 351 349 347 349 347 345 343 343 343 343 341 342 343 342 342 343 342 341 341 340 339
363 362 363 363 363 361 360 359 357 356 359 360 361 360 358 358 360 359 358 356 354 351 350 348 349 348 346 345 343 343 343 341 341 342 341 342 343 342 340 341 341 341
365 364 364 365 364 363 361 360 358 357 358 360 361 360 359 359 359 359 358 356 353 351 350 349 348 347 347 346 344 344 343 342 342 341 341 342 342 341 340 341 341 340
366 367 365 365 365 364 362 361 359 359 359 361 361 360 359 358 359 359 357 354 353 352 350 349 348 346 346 345 344 345 344 342 342 342 341 341 340 340 341 342 341 340
368 368 367 366 365 364 363 362 360 359 359 361 362 361 361 361 359 360 356 354 353 351 350 349 348 347 339 331 336 344 343 342 342 342 342 341 339 338 339 339 339 339
369 369 368 367 366 366 366 364 362 361 362 362 361 362 361 361 362 358 355 354 352 350 348 349 349 346 329 328 332 336 341 341 341 342 341 341 339 338 337 339 338 339
369 370 370 369 369 368 367 367 366 365 364 365 366 365 365 363 359 358 358 355 353 351 349 350 349 334 325 327 330 331 335 342 343 342 342 341 341 339 339 339 339 338
371 372 371 370 371 370 370 369 368 365 365 366 363 364 363 360 360 359 358 357 354 351 350 350 348 327 324 325 328 327 331 341 344 344 341 342 343 341 340 339 338 336
372 374 372 372 372 371 370 369 368 366 366 364 364 364 362 359 358 357 357 356 354 352 350 349 347 322 323 323 324 325 329 338 343 342 341 341 339 337 338 337 338 338
373 373 371 369 368 367 366 366 365 365 364 363 363 361 359 359 357 356 356 354 353 352 352 349 343 318 321 321 322 325 329 338 340 339 338 337 335 334 337 339 339 338
372 370 369 366 365 364 362 361 361 362 362 364 364 364 361 358 359 356 356 354 354 353 349 340 329 319 320 321 321 323 329 339 339 336 334 335 338 338 338 339 340 339
370 368 367 364 363 362 361 360 360 360 362 365 362 361 360 358 357 354 354 353 352 348 342 334 326 320 318 317 318 321 328 338 337 335 332 332 335 337 339 341 341 340
369 367 365 363 362 360 360 360 360 361 361 362 359 358 357 357 356 356 354 353 349 345 340 332 329 320 315 315 316 320 326 336 337 335 334 332 333 337 339 341 341 341
368 366 364 362 361 360 358 357 357 358 359 360 359 358 353 348 349 350 351 352 350 346 332 332 329 319 314 316 317 317 327 333 336 334 334 333 335 336 339 340 341 341
367 365 363 361 360 359 358 358 358 356 355 355 353 352 350 346 343 344 344 344 341 336 334 332 328 326 321 314 314 315 321 333 336 333 332 334 334 334 335 337 340 340

ECMWFNIL_sfc_thetae_021.txt.gz
Theta_e
359 359 358 356 355 354 355 353 352 354 353 353 352 351 352 350 351 349 351 350 349 350 347 346 345 343 342 341 343 341 342 339 340 339 338 339 336 337 339 338 336 334
359 359 359 358 357 355 357 356 353 356 354 353 353 353 352 351 349 349 350 350 349 349 347 345 345 342 341 339 341 340 342 340 339 343 339 339 337 337 337 338 336 337
359 359 358 357 357 356 357 357 355 356 355 355 354 354 353 351 351 350 349 349 348 348 347 345 343 342 341 341 340 340 339 340 338 340 339 339 338 335 335 337 336 337
359 359 358 358 359 357 357 357 356 356 356 355 354 354 354 352 349 352 350 353 348 346 346 345 343 342 340 342 341 340 339 340 338 338 337 337 339 337 336 336 339 337
359 359 359 359 359 358 357 356 356 355 355 356 355 354 353 352 348 350 349 349 347 346 346 344 343 341 341 342 341 339 340 338 339 338 337 335 336 337 336 338 336 337
360 360 359 359 359 359 357 356 356 356 355 355 355 355 353 353 349 348 349 349 347 346 345 344 343 341 341 341 341 338 339 338 338 337 336 338 336 337 337 337 336 335
359 359 359 359 359 359 357 356 356 356 356 355 355 355 353 352 351 349 349 348 347 346 345 343 342 341 341 341 341 338 338 338 337 337 335 335 338 336 336 335 334 333
360 360 360 359 358 358 357 356 356 356 356 355 354 354 354 352 351 350 349 349 347 345 344 343 342 341 340 340 340 339 338 339 337 336 336 334 335 335 335 336 335 333
360 360 360 359 357 357 357 357 356 356 356 355 355 354 354 353 352 351 350 349 347 345 344 343 342 342 341 340 339 339 338 338 338 336 335 335 334 333 334 335 335 335
359 360 359 359 357 357 357 357 357 356 356 355 355 355 353 353 353 352 350 349 347 345 344 343 342 342 341 340 339 339 338 337 337 337 335 335 335 333 333 334 332 331
359 359 359 359 358 357 356 357 356 356 356 355 354 354 353 352 352 352 350 349 347 345 344 343 343 342 341 340 340 339 338 338 336 337 336 336 335 334 337 334 333 331
358 359 359 358 358 357 356 356 356 356 355 355 354 353 352 352 351 352 351 349 348 346 345 344 343 342 341 341 340 339 338 337 337 336 336 337 336 335 335 335 333 332
358 358 359 359 358 357 357 356 355 355 355 355 355 353 351 350 350 352 352 351 350 348 346 344 343 343 341 340 340 339 338 336 335 335 336 336 337 337 337 335 333 333
358 359 359 359 359 357 356 355 354 353 354 355 356 354 353 351 350 351 352 352 351 349 347 345 343 342 342 340 340 339 338 336 335 335 335 336 336 336 336 335 334 335
357 358 359 359 358 357 355 354 354 353 353 354 355 355 355 354 353 352 353 352 351 349 347 345 343 343 342 341 339 339 338 337 335 335 335 336 335 336 335 335 336 336
356 357 358 359 358 357 356 355 354 354 353 353 355 355 354 354 353 354 354 353 351 349 347 346 344 344 338 329 333 339 338 338 336 335 335 336 336 335 334 336 337 337
356 356 357 357 358 358 357 355 354 354 353 352 354 355 355 354 354 354 354 353 351 349 347 346 345 343 330 327 330 333 338 338 336 335 336 336 336 334 334 334 334 335
357 357 357 357 358 358 357 356 355 353 352 351 353 354 354 354 353 354 353 353 351 349 347 346 345 333 326 327 329 329 334 339 338 337 337 336 335 335 335 334 334 334
358 358 358 357 357 358 358 356 355 353 352 353 354 355 355 354 353 353 352 351 350 348 347 346 345 330 325 325 327 328 331 336 337 338 337 336 336 336 334 333 333 334
359 359 359 358 358 357 357 357 355 354 355 356 356 356 355 354 353 352 351 349 348 348 346 346 346 328 324 323 325 326 328 333 336 338 338 337 336 336 334 333 334 333
358 359 359 359 359 358 358 358 357 356 357 356 355 354 353 352 351 350 350 349 349 348 346 346 347 324 321 321 322 323 326 334 339 340 339 338 337 335 334 334 335 335
359 359 359 360 360 360 359 359 357 357 356 355 354 353 353 352 351 350 349 348 349 348 346 343 333 318 320 320 320 321 327 338 339 338 337 335 334 335 335 335 336 336
360 360 361 362 361 360 359 358 357 356 356 355 353 352 351 350 350 349 349 348 347 345 339 333 328 320 318 317 318 320 328 338 337 336 334 332 331 332 334 337 337 336
362 362 362 361 360 358 357 356 356 356 355 355 353 351 350 350 349 347 347 347 346 341 337 332 329 320 315 314 317 321 329 335 334 333 331 331 332 334 335 336 339 342
364 363 362 360 358 357 356 354 354 354 355 355 353 351 347 346 347 347 345 345 344 340 330 331 329 319 312 314 317 320 331 334 332 330 328 329 331 333 335 336 337 340
364 361 360 359 357 355 354 354 354 354 354 352 349 345 342 342 343 342 340 337 337 336 333 331 326 322 319 314 316 319 324 334 331 329 327 328 328 330 332 333 333 333

ECMWFNIL_sfc_thetae_024.txt.gz
Theta_e
353 353 353 353 353 353 353 351 350 351 351 351 350 349 350 350 350 349 349 348 347 346 345 344 344 341 341 339 339 339 339 337 337 337 336 336 332 333 335 334 333 331
354 355 355 355 354 353 353 353 350 351 351 351 351 349 350 349 349 349 348 348 348 346 344 345 343 340 338 339 338 337 337 337 336 339 336 335 334 333 333 334 334 332
355 355 355 354 353 352 353 353 351 352 351 351 351 350 350 350 348 348 348 347 347 346 344 344 343 341 337 338 338 338 338 335 335 337 336 335 334 333 333 334 333 332
355 355 355 355 355 353 353 352 351 352 352 350 350 350 351 351 349 348 348 351 346 347 346 344 343 340 338 337 337 337 338 336 336 337 335 336 335 334 332 332 334 334
354 355 355 356 356 355 354 352 350 351 351 351 351 351 350 350 348 347 347 348 346 346 346 344 342 340 338 337 337 336 337 336 336 336 334 334 335 335 333 333 333 332
355 355 356 356 356 355 353 353 352 351 352 351 351 352 351 350 349 347 347 347 347 345 346 344 342 340 338 337 336 335 336 336 335 335 334 333 333 335 335 333 332 332
355 355 355 356 356 356 354 353 353 352 352 353 352 351 351 350 348 348 347 347 347 345 345 344 342 340 338 338 336 335 335 335 335 335 334 333 333 333 334 333 333 332
355 356 356 356 355 355 354 354 354 353 352 353 352 352 351 351 348 348 348 347 346 345 344 343 342 340 338 338 337 335 335 336 335 334 333 333 333 332 332 333 333 332
356 356 356 356 355 355 355 354 354 354 354 353 353 352 352 351 350 347 347 347 346 345 344 343 342 340 339 337 337 336 335 336 336 334 333 332 332 333 332 332 332 332
355 356 356 356 355 355 355 355 354 354 354 353 353 353 352 351 351 349 347 347 346 345 344 343 342 341 339 338 337 337 335 336 335 334 334 333 332 333 333 333 332 331
355 356 355 356 355 355 355 355 355 354 354 354 353 352 352 352 351 350 347 346 346 345 344 343 342 341 339 338 338 338 337 336 336 335 334 334 333 333 336 333 333 332
355 355 355 355 356 355 355 355 356 354 354 354 353 352 352 352 351 350 349 346 346 345 344 343 343 342 340 339 338 338 337 336 336 335 335 334 334 333 333 333 333 332
355 355 356 356 356 356 356 355 355 355 354 353 354 353 352 351 351 350 349 348 346 346 345 344 343 342 341 339 338 337 337 336 336 335 335 335 334 334 334 333 332 332
355 356 356 356 356 356 356 355 355 355 354 354 354 353 352 352 351 350 350 349 348 347 346 344 343 341 340 340 339 338 337 336 336 336 335 335 335 334 334 333 333 332
356 356 356 356 356 356 355 355 354 354 354 354 353 353 353 353 352 351 350 349 348 347 346 345 343 342 341 340 339 338 337 336 336 336 335 334 334 335 334 334 333 333
355 356 356 356 356 355 355 355 354 354 353 353 352 352 352 352 351 351 350 349 348 347 346 345 344 343 337 328 332 339 338 337 337 336 335 334 334 333 333 333 334 334
355 355 355 355 355 355 355 355 354 353 352 352 352 352 351 351 350 349 349 349 349 348 346 346 345 343 329 326 329 331 337 338 337 336 335 334 334 333 333 333 334 335
354 354 354 354 355 354 355 355 354 353 352 351 350 350 351 351 350 348 348 349 349 349 348 347 346 333 326 326 327 328 332 339 338 337 335 333 333 333 334 334 334 335
354 354 354 354 354 355 355 354 353 352 351 350 349 350 351 350 350 349 348 349 349 348 348 348 347 332 325 324 326 326 329 334 339 337 334 333 333 334 333 333 333 333
354 354 353 353 354 354 354 354 353 352 351 351 350 350 350 350 350 349 350 350 350 349 348 348 347 329 323 322 324 325 327 332 340 338 336 335 335 335 334 334 333 332
354 353 353 353 353 354 354 353 353 352 351 351 350 349 350 350 350 349 350 350 350 350 349 348 348 323 321 321 321 322 325 330 339 338 337 336 336 336 335 334 334 333
353 353 352 352 352 353 353 353 353 352 351 351 350 350 351 352 351 351 350 350 350 350 348 346 343 319 320 320 320 321 324 333 337 337 337 336 336 336 335 334 333 333
354 353 352 352 352 352 352 352 353 352 352 352 350 350 351 351 351 351 351 350 349 347 346 343 334 321 319 318 319 319 322 335 337 337 337 336 335 335 334 334 334 333
353 353 353 352 352 351 351 352 353 353 353 353 351 350 350 351 351 349 348 348 347 345 344 339 337 323 316 315 316 316 325 335 336 336 335 335 334 334 334 333 335 339
353 354 354 353 352 352 353 352 353 353 353 353 353 352 350 349 348 347 345 345 345 343 333 338 338 326 313 315 315 315 327 337 336 335 333 333 332 331 333 334 335 339
352 353 354 354 354 354 354 354 355 354 353 352 351 350 348 348 346 345 344 342 341 339 338 339 336 329 320 313 313 314 322 336 335 333 331 331 332 332 331 333 334 335

ECMWFNIL_sfc_thetae_027.txt.gz
Theta_e
349 349 349 348 348 348 348 349 350 350 351 353 352 353 353 354 354 353 353 351 351 349 347 345 344 342 342 339 338 337 337 336 336 334 333 335 331 331 332 330 328 329
349 350 350 350 349 350 349 350 350 351 351 352 353 353 353 353 352 352 351 350 350 349 347 345 344 342 340 338 337 336 336 336 335 338 334 333 332 330 331 330 330 329
350 350 349 349 349 349 350 351 351 351 351 352 353 353 352 353 351 351 351 350 348 348 346 346 344 343 340 338 337 337 336 335 334 335 335 333 332 331 330 331 331 331
350 350 350 350 350 350 351 351 350 350 351 350 351 352 352 352 351 349 349 352 348 347 345 345 344 343 340 338 337 336 336 335 335 335 335 334 334 332 331 330 332 332
350 350 351 350 351 351 351 351 350 350 350 350 351 351 351 350 349 348 348 348 347 346 345 344 344 343 341 337 336 335 335 335 335 334 334 333 333 333 332 331 330 330
351 351 351 351 351 351 351 351 351 351 350 350 350 351 349 349 349 348 347 347 347 346 345 343 342 342 340 338 336 335 335 335 334 334 333 332 332 333 333 331 330 329
351 351 351 352 352 352 351 351 351 351 351 351 351 350 349 348 348 347 347 347 346 346 345 343 342 341 340 337 336 335 334 335 334 333 333 332 332 332 333 332 331 329
351 352 352 352 352 352 352 352 351 352 351 351 350 350 350 349 348 347 347 346 346 345 345 344 343 341 340 338 336 334 333 335 334 333 333 332 332 331 331 332 331 329
351 351 352 352 352 352 352 352 352 352 352 350 350 350 350 349 349 348 347 346 345 345 344 344 344 342 340 338 336 335 333 334 335 333 333 332 331 331 331 331 330 330
350 351 351 351 351 352 352 353 353 352 352 351 351 350 349 350 349 348 347 346 345 345 344 344 343 343 341 338 337 336 334 334 334 334 333 333 332 332 331 331 331 330
351 351 350 351 351 352 352 353 353 353 353 351 350 350 350 349 349 348 347 346 345 345 344 344 343 343 341 339 338 337 335 334 334 333 333 333 333 332 334 331 331 331
351 351 351 351 351 352 352 353 353 353 352 352 351 350 350 350 349 348 347 346 346 345 345 344 344 343 342 340 339 338 336 335 334 334 333 333 333 332 332 332 331 331
351 351 352 352 352 352 353 353 353 353 352 352 352 351 350 350 349 349 348 347 346 346 345 344 344 343 341 341 339 338 337 335 334 334 334 333 333 332 332 332 333 332
352 352 352 353 353 353 353 353 353 353 352 352 352 351 351 350 350 349 349 348 346 346 345 345 343 342 342 341 340 338 337 336 335 334 334 334 333 333 333 333 333 332
352 352 353 353 353 353 353 353 352 352 353 352 352 351 352 351 351 350 349 348 347 346 345 345 344 343 342 341 340 338 337 336 335 335 334 334 333 333 333 333 332 332
352 352 353 353 353 352 352 353 352 352 352 352 351 351 351 351 350 350 349 348 347 346 345 344 344 344 337 328 331 339 337 337 336 335 335 334 334 333 333 333 333 332
352 352 352 352 352 353 353 352 352 352 352 352 351 351 351 351 350 349 349 349 348 347 345 344 344 343 329 326 327 330 337 337 336 336 336 335 334 334 333 333 332 333
352 352 352 352 352 352 352 352 353 352 351 351 351 350 350 350 350 349 349 349 348 347 346 346 345 333 326 325 326 326 330 338 337 336 336 335 335 334 333 333 333 332
352 352 352 352 352 352 353 353 352 351 351 350 350 351 350 349 349 349 348 349 348 347 347 347 346 332 325 324 325 325 327 332 338 337 337 336 335 334 333 333 333 333
352 352 351 352 352 352 352 352 351 351 351 351 351 350 349 349 349 348 348 348 348 347 347 347 347 331 324 322 322 323 325 330 339 338 337 336 335 334 334 333 333 333
352 352 351 352 352 352 352 352 351 351 351 351 350 349 349 348 348 348 348 347 348 348 347 347 348 330 323 321 320 321 324 327 338 339 338 336 335 334 334 333 334 334
352 351 351 352 352 352 351 351 351 351 351 351 350 350 349 349 349 349 348 347 347 347 347 346 347 327 322 320 319 319 323 331 336 338 337 336 335 334 334 334 334 334
352 352 351 351 351 351 351 351 351 351 351 351 350 349 348 348 348 348 349 348 347 347 346 346 346 329 320 318 318 318 321 333 335 337 337 336 335 334 334 334 334 334
352 352 351 351 351 350 350 351 352 352 352 351 350 349 348 348 348 348 349 349 348 347 347 346 346 327 316 316 316 317 322 334 335 336 336 336 335 334 333 333 334 339
352 352 352 351 351 351 351 351 351 351 352 352 351 350 349 349 348 348 348 348 348 348 338 344 347 329 314 316 315 315 323 335 336 336 335 334 333 332 331 332 334 338
351 352 352 352 351 351 352 352 352 352 351 351 350 350 349 349 348 348 347 347 348 348 346 346 344 337 322 314 313 313 318 336 336 335 333 332 331 331 330 330 333 335

ECMWFNIL_sfc_thetae_030.txt.gz
Theta_e
350 350 349 348 348 348 348 348 348 349 349 351 351 352 354 356 357 357 357 357 357 356 354 352 351 350 348 345 344 343 343 342 342 340 338 338 337 337 336 336 335 337
350 350 350 350 349 349 349 349 349 349 349 350 352 353 355 356 356 357 356 356 356 356 354 351 350 348 347 344 343 341 341 341 340 341 338 337 338 337 335 337 336 336
350 350 349 349 348 348 348 349 350 350 350 350 352 354 354 356 356 356 356 356 355 355 353 350 349 347 346 345 343 342 341 340 339 340 340 337 338 337 336 335 335 335
349 350 349 349 349 349 349 349 349 350 351 351 351 353 355 356 356 355 355 356 354 354 353 351 348 347 346 345 343 341 341 340 340 340 340 339 339 338 337 336 337 337
349 349 350 350 350 350 350 349 349 349 350 351 352 354 355 355 354 354 354 354 354 353 352 350 349 347 346 344 343 341 340 340 340 339 338 338 339 338 337 337 336 336
350 350 350 350 350 350 349 349 349 350 350 350 351 353 354 354 354 353 353 353 353 352 351 350 349 348 346 344 342 341 340 339 339 339 338 338 338 338 338 337 336 335
349 349 350 350 350 350 350 350 350 351 351 351 352 352 353 353 353 353 352 352 352 351 350 348 348 347 347 345 342 341 340 339 339 338 337 337 338 337 337 338 337 336
349 350 350 350 350 350 350 350 351 351 351 352 351 352 353 352 352 352 352 351 351 350 350 348 347 347 346 345 342 341 340 339 339 338 338 337 337 336 337 337 337 336
350 350 350 350 350 350 349 350 351 351 352 351 351 351 352 352 352 352 351 351 350 350 349 348 347 346 346 344 343 341 340 339 339 338 337 337 336 336 336 337 336 336
350 350 350 350 349 350 350 350 351 351 352 352 352 351 351 352 352 351 351 350 349 349 349 348 347 346 345 344 343 342 341 340 339 338 337 337 337 336 336 336 336 336
349 350 350 350 350 350 350 351 351 351 352 352 352 351 351 351 351 351 350 349 348 348 348 347 347 346 345 344 343 343 342 341 340 338 338 337 337 337 337 336 335 335
348 349 349 350 350 350 351 351 352 352 352 352 352 351 351 351 351 350 350 349 348 348 348 348 347 347 346 344 343 342 342 341 340 339 338 338 337 337 337 337 335 336
348 349 349 350 351 351 352 352 352 352 352 352 352 352 351 350 350 350 350 350 349 349 348 348 347 347 346 346 344 343 342 341 340 339 338 338 337 338 337 337 337 336
349 350 350 350 351 352 352 352 352 353 353 353 353 352 351 351 350 350 350 350 349 349 348 348 347 346 346 346 345 344 342 341 340 339 338 337 338 338 337 337 337 337
350 351 351 351 351 352 352 352 352 353 353 353 353 352 352 352 351 351 350 349 349 349 348 348 347 346 346 346 345 344 343 341 340 339 338 337 337 337 337 337 337 337
351 351 351 352 351 351 351 352 352 352 352 352 352 352 352 352 352 351 350 349 348 348 348 347 347 347 339 329 333 344 343 342 341 340 339 338 338 337 337 337 337 336
350 351 351 351 351 352 352 352 352 352 352 352 352 352 352 352 352 350 350 350 349 348 347 347 347 346 330 327 328 332 341 343 341 340 340 339 338 338 337 337 337 338
350 351 351 351 352 351 352 352 352 352 352 352 352 351 352 352 351 350 350 350 350 349 348 347 347 334 327 326 327 327 331 343 342 341 340 339 339 338 338 338 337 337
350 350 350 351 351 352 352 352 352 352 351 351 351 352 352 351 351 351 350 351 350 349 348 348 348 333 326 325 326 326 327 334 343 341 340 340 339 339 338 338 338 336
350 350 350 351 352 352 352 352 352 351 352 352 352 352 351 351 351 351 351 350 350 350 349 349 349 333 325 323 323 323 325 330 343 342 341 341 340 339 339 338 337 335
350 350 350 351 351 352 352 352 352 352 352 352 352 351 351 350 350 350 350 350 350 350 350 349 350 330 322 321 320 321 323 326 342 343 342 341 341 340 340 339 338 338
350 350 350 350 351 351 351 351 351 352 351 352 352 352 352 352 352 351 350 350 351 350 349 349 350 326 321 320 319 320 322 333 340 342 342 341 340 340 339 339 339 339
350 350 350 350 351 351 351 351 351 351 352 353 352 352 351 351 351 351 351 351 350 350 349 349 350 330 319 318 318 318 321 336 338 340 341 340 340 340 340 339 338 339
351 351 351 351 351 350 350 351 352 352 352 353 351 351 350 351 351 351 351 351 350 350 349 349 349 333 317 317 317 316 323 337 338 339 339 340 340 340 339 339 338 340
351 351 351 351 351 351 351 351 351 352 353 353 353 352 352 352 351 351 351 351 351 350 337 345 350 335 315 317 316 315 325 339 339 339 338 338 339 337 337 337 338 340
352 352 352 351 351 351 352 352 352 352 352 352 353 353 352 352 350 350 349 350 350 350 349 347 349 347 326 316 315 314 319 339 340 338 337 338 339 338 335 335 336 339

ECMWFNIL_sfc_thetae_033.txt.gz
Theta_e
361 361 359 358 358 359 359 359 359 359 361 361 361 363 363 366 368 367 367 366 364 363 363 364 364 363 362 363 363 361 360 359 357 355 354 352 351 348 347 347 348 347
360 360 360 359 359 360 360 360 360 360 361 362 362 364 367 368 367 367 367 366 365 362 363 362 363 363 363 362 361 360 359 358 356 355 353 352 352 350 347 349 347 348
360 360 359 358 357 358 356 359 361 361 360 361 363 365 365 366 366 367 367 366 364 362 361 362 362 363 362 362 361 360 358 356 355 353 353 353 351 351 351 346 347 348
360 360 358 358 358 358 358 359 360 360 360 360 361 362 363 364 365 365 366 366 365 364 363 361 361 360 362 362 361 359 358 356 355 355 353 354 353 352 351 350 347 347
359 359 359 359 359 360 360 359 357 358 358 359 360 362 363 364 364 364 365 364 364 363 362 361 362 360 361 361 361 359 357 355 355 355 353 352 353 352 350 350 348 346
360 360 360 359 360 360 358 358 357 357 358 357 359 361 361 363 363 363 364 362 361 361 362 362 361 360 360 360 359 358 356 353 353 353 351 351 351 350 348 349 348 346
358 359 359 359 359 359 359 358 358 359 358 359 361 360 361 361 362 363 364 363 362 362 362 363 362 360 359 359 359 357 356 355 354 353 351 351 351 350 349 349 348 347
357 357 358 358 358 358 358 358 358 359 360 360 360 361 361 360 362 362 364 363 362 363 363 364 363 362 359 359 358 356 355 354 353 353 352 351 351 351 350 348 348 348
356 357 358 358 357 356 356 356 357 359 360 359 358 358 361 361 361 362 364 364 363 363 364 364 364 362 360 360 358 357 355 354 353 353 352 350 350 350 349 349 347 347
357 357 356 355 355 355 355 356 356 357 359 358 358 357 359 361 362 363 364 364 362 363 364 364 363 362 362 361 359 358 357 355 354 353 352 351 350 350 349 348 347 347
355 355 355 355 354 354 355 355 355 356 358 357 357 357 359 360 361 363 363 363 361 362 362 362 362 362 361 359 359 359 358 356 355 354 353 352 352 351 349 349 347 347
355 354 354 354 354 354 355 355 355 356 357 357 358 357 358 358 360 361 361 362 362 362 362 363 363 362 361 360 358 358 358 357 356 355 353 353 352 352 351 350 348 348
354 354 355 354 355 355 356 356 356 356 356 357 357 357 357 357 358 360 361 361 362 362 361 362 362 362 361 360 360 359 358 357 355 355 353 353 352 351 350 350 349 348
354 356 357 357 356 358 357 357 356 356 357 358 358 357 356 357 357 358 360 360 361 361 361 362 362 361 361 361 360 359 357 356 355 354 353 353 352 351 350 349 348 348
356 357 359 359 358 359 359 358 357 358 358 359 359 358 357 357 358 358 359 359 360 361 361 361 360 359 359 359 359 358 358 355 355 354 353 352 352 350 350 349 349 348
358 359 359 360 359 359 360 360 358 358 358 359 360 358 359 359 359 359 358 358 358 359 360 359 359 359 346 333 338 357 357 356 355 354 354 352 351 350 349 348 348 347
359 358 360 359 359 360 360 360 359 359 359 360 360 360 359 360 359 358 358 358 358 358 358 358 358 355 332 329 331 334 352 356 354 354 354 352 351 351 349 348 347 348
357 359 359 358 359 359 360 360 359 359 359 360 359 359 360 360 359 359 359 358 358 358 357 358 358 337 329 328 329 328 334 355 355 354 353 352 351 350 350 349 348 347
359 359 359 359 359 359 360 360 360 359 359 360 359 360 361 360 359 358 359 359 358 358 357 357 357 335 328 327 327 326 327 339 355 355 353 352 352 351 351 351 350 348
359 359 358 359 360 359 360 360 359 358 359 359 359 360 360 359 359 358 359 359 358 358 358 358 358 335 326 325 324 324 325 332 354 354 354 353 353 352 352 352 352 350
359 359 359 360 360 360 360 359 358 359 359 359 359 359 358 358 358 357 357 358 357 357 357 357 358 332 324 323 321 321 323 327 352 354 354 354 354 353 353 352 352 351
358 359 359 360 360 359 359 358 358 359 359 360 360 359 360 359 360 358 357 357 357 357 355 355 357 329 324 322 320 319 322 339 349 352 353 353 353 353 353 353 352 352
358 358 359 359 359 358 358 358 358 359 359 360 359 359 358 358 357 357 358 358 357 357 355 356 357 337 322 319 318 317 323 344 348 351 352 352 353 353 352 352 352 352
359 357 358 358 359 358 358 358 359 360 360 360 358 357 357 357 358 357 357 357 356 356 356 355 356 338 318 317 316 316 326 346 349 350 350 350 351 352 353 352 351 342
359 357 355 358 359 358 359 359 360 360 361 361 359 359 358 359 357 356 356 357 358 357 341 350 357 340 316 317 315 315 328 349 350 351 349 350 350 350 351 350 350 342
360 359 358 357 357 359 360 360 361 360 360 359 358 357 357 358 357 356 356 357 357 357 357 355 356 358 331 315 315 314 319 348 352 350 348 349 350 349 349 348 348 348

ECMWFNIL_sfc_thetae_036.txt.gz
Theta_e
365 366 365 366 366 365 364 365 364 365 365 364 362 365 363 367 369 369 370 371 371 369 368 368 368 367 366 366 368 367 366 365 363 360 359 357 354 350 347 347 348 347
364 366 367 366 366 367 366 366 367 366 367 367 365 365 368 368 370 370 370 370 371 370 370 367 366 367 365 364 367 365 365 365 363 360 358 357 354 350 347 349 348 349
365 365 365 365 364 366 364 367 368 368 366 367 367 367 367 369 370 372 371 371 370 368 369 369 367 366 364 365 366 365 362 364 362 358 359 357 353 350 349 347 347 348
365 365 364 365 367 367 366 366 367 368 367 366 366 365 366 367 370 371 372 372 370 369 367 368 366 365 365 365 366 364 364 364 362 361 358 357 355 351 351 350 349 349
364 364 365 365 367 369 369 367 365 366 365 365 366 367 367 368 370 370 370 371 371 369 368 368 368 366 366 365 366 363 362 361 363 363 359 356 357 353 351 350 350 349
367 367 366 366 367 368 367 366 366 365 366 363 364 366 366 367 368 367 369 369 369 366 365 366 367 366 366 366 364 363 361 358 359 362 359 357 356 354 351 352 352 350
365 366 366 367 368 368 367 367 367 366 365 365 367 366 366 366 367 368 368 369 367 368 366 366 368 367 366 366 365 363 362 363 363 360 359 357 358 355 353 352 353 351
366 367 367 368 367 366 366 365 366 366 367 367 364 367 367 365 368 368 368 368 367 368 368 367 368 369 366 366 365 364 363 362 361 360 359 359 358 355 355 353 354 352
365 366 366 367 365 365 363 364 365 366 367 365 363 364 367 367 367 367 369 369 369 368 369 368 369 368 367 366 366 365 364 363 362 361 359 359 357 355 355 355 353 352
365 365 364 364 363 363 362 363 363 365 366 365 364 362 364 367 367 368 369 370 369 368 369 369 369 368 366 366 366 366 365 365 365 364 362 361 358 356 355 355 353 352
362 363 362 363 362 361 362 362 362 363 364 364 364 362 363 366 367 368 369 370 368 368 369 369 369 369 367 365 366 367 367 367 368 367 365 363 360 358 355 357 355 352
361 361 361 361 361 361 361 361 361 361 362 364 364 363 363 363 366 366 367 369 370 370 370 370 371 370 368 367 366 366 367 366 367 367 365 364 362 359 358 358 357 355
360 361 361 360 361 361 361 361 360 360 360 362 364 363 363 361 363 366 367 368 370 370 369 370 370 370 370 370 368 367 368 367 365 366 365 364 363 360 359 358 357 356
360 362 363 363 362 364 363 362 362 361 362 363 364 363 362 361 361 364 366 367 369 370 370 371 371 370 371 371 370 368 367 368 366 365 365 364 364 362 360 358 358 357
363 363 364 364 364 365 364 364 362 363 363 363 364 364 363 362 363 363 365 367 368 369 369 369 368 369 369 370 369 368 367 366 366 365 365 364 363 362 361 360 360 359
364 364 365 365 365 364 365 365 363 363 362 363 363 364 365 365 365 364 364 365 366 368 369 368 367 368 354 338 345 367 367 366 366 366 365 364 364 362 361 361 359 358
365 365 366 365 365 366 366 366 364 364 364 364 364 365 365 366 365 363 362 364 365 366 366 366 367 365 337 333 335 340 361 367 365 366 366 364 363 363 362 361 361 360
364 366 366 366 366 366 366 367 365 364 364 365 364 364 366 366 364 364 365 364 364 365 365 366 367 343 331 331 333 333 341 365 366 365 364 364 363 363 362 362 361 360
367 366 366 367 367 366 367 367 366 365 364 364 363 366 366 366 366 364 364 364 364 365 365 365 366 338 330 328 330 331 333 346 363 365 363 363 363 363 363 363 362 360
367 367 367 367 368 368 367 367 366 365 364 364 364 366 366 366 365 365 365 366 365 365 366 366 367 336 327 326 327 327 329 337 361 363 363 362 363 362 363 363 362 361
367 366 367 368 368 368 367 367 366 366 365 364 364 364 365 365 364 365 365 366 366 365 365 365 365 332 324 323 324 324 326 331 359 361 362 362 362 362 362 362 363 362
365 366 366 366 366 367 366 365 366 366 365 365 364 363 365 365 366 366 365 365 364 364 363 362 364 329 322 322 322 322 324 345 357 359 360 360 361 359 359 360 361 362
366 364 364 365 365 365 364 364 364 365 365 366 364 363 363 364 364 363 365 363 363 364 361 361 364 340 320 319 320 320 326 351 356 357 358 359 359 359 359 359 359 360
366 365 365 365 365 364 364 364 365 366 366 366 364 363 362 364 365 364 365 365 364 362 361 361 362 343 318 318 318 317 330 353 355 356 357 357 356 358 358 358 357 347
366 366 366 366 365 365 365 365 365 366 367 367 365 365 364 366 365 365 364 364 362 362 342 355 362 345 316 318 316 316 332 356 356 356 356 355 354 354 357 356 357 351
367 367 367 366 366 367 367 366 367 367 367 366 366 364 363 364 363 364 363 362 362 361 360 361 360 364 340 315 315 314 321 354 358 355 354 354 354 353 355 356 356 358

ECMWFNIL_sfc_thetae_039.txt.gz
Theta_e
366 367 365 363 364 364 363 364 366 367 366 362 362 364 363 364 366 363 363 365 368 369 368 369 371 371 369 369 369 368 366 365 363 361 360 356 353 355 353 349 349 347
367 368 369 368 367 366 366 365 367 367 367 366 363 363 367 366 365 364 364 364 367 368 369 368 370 371 371 368 369 367 367 366 364 362 360 357 356 355 353 352 348 349
367 369 368 367 364 366 364 366 367 367 366 366 366 365 364 366 366 368 367 365 365 366 368 367 367 369 368 367 369 366 365 366 364 361 362 359 353 355 355 349 348 348
368 368 367 365 365 366 368 366 366 367 367 366 366 363 363 364 366 366 368 370 368 367 366 366 366 365 368 367 367 366 365 366 365 365 361 359 356 356 355 352 349 349
367 367 367 367 367 367 368 367 364 365 366 366 366 367 365 366 366 365 368 368 369 368 366 366 366 365 367 366 366 365 365 363 363 364 361 357 357 356 355 352 351 349
368 369 369 368 367 367 366 366 367 365 366 364 365 367 366 365 365 366 367 366 368 366 363 364 365 364 364 366 366 365 363 361 360 363 359 357 355 355 354 352 351 350
366 367 366 366 366 367 367 369 369 368 366 367 367 366 366 365 366 367 367 367 366 368 363 364 367 365 365 366 367 365 364 363 361 362 359 356 357 356 355 353 352 351
366 367 367 367 365 366 367 367 368 369 369 369 365 367 367 366 367 366 367 367 366 368 367 364 367 368 364 365 365 365 363 362 361 361 360 358 357 357 357 354 353 352
366 367 367 365 364 363 364 365 367 370 370 368 366 365 368 367 366 367 369 368 368 368 369 367 368 367 366 366 366 366 364 362 362 362 361 358 356 357 357 356 353 353
366 366 363 363 362 362 363 364 363 367 370 368 367 363 364 368 368 368 370 370 367 367 368 369 367 367 368 367 367 367 366 365 364 363 362 361 358 358 357 357 354 353
365 363 363 363 361 360 361 361 361 364 367 367 366 363 361 366 368 369 370 370 367 366 367 368 368 368 369 367 366 367 367 366 366 365 364 362 361 360 359 359 356 354
365 364 363 363 362 360 360 360 361 361 362 366 366 364 362 361 366 367 368 369 370 369 368 369 370 370 370 369 365 366 367 367 366 365 364 364 363 361 361 360 358 356
364 365 364 363 364 361 361 361 360 359 359 362 366 366 363 359 361 367 368 369 371 370 369 370 370 370 371 371 368 366 367 367 366 366 365 365 365 363 362 361 359 358
364 365 367 366 366 369 365 362 360 359 361 362 366 366 363 362 358 363 367 368 370 371 371 371 371 370 371 371 370 366 365 366 366 365 364 365 366 365 362 360 360 358
368 367 369 369 369 372 370 366 363 363 363 363 365 366 365 363 361 359 365 368 369 372 372 370 369 370 370 371 370 367 365 365 367 366 363 363 365 364 363 362 361 359
370 371 370 371 370 371 372 370 365 365 362 362 363 364 367 367 366 363 361 366 367 370 371 370 369 370 357 341 349 369 367 365 365 366 365 363 364 364 363 362 360 360
370 370 371 371 371 371 371 371 369 366 367 369 368 367 368 372 367 363 361 362 366 368 369 371 371 368 341 335 338 344 365 368 365 366 367 365 364 365 363 362 362 361
369 371 371 371 371 370 371 371 369 368 369 369 366 365 370 367 365 366 367 363 364 367 368 370 371 347 334 334 335 337 345 368 367 365 365 365 364 363 364 364 363 361
372 371 371 371 372 371 372 372 371 369 367 367 365 367 367 368 370 367 367 365 365 368 367 369 370 342 332 331 333 334 336 351 367 367 364 365 366 365 365 365 364 362
372 371 370 371 373 372 371 371 370 369 367 366 366 368 368 368 367 368 368 370 368 368 369 369 370 339 329 328 330 331 334 342 366 366 366 365 366 365 364 365 365 364
372 371 371 371 373 373 372 371 370 370 368 366 365 366 366 367 367 367 368 369 367 365 366 367 369 334 326 325 326 327 331 336 365 365 366 366 366 367 366 365 365 365
370 371 371 372 372 372 370 370 370 370 369 368 367 366 368 367 369 368 367 367 368 367 364 364 367 329 324 324 324 325 328 350 364 364 364 365 366 367 367 367 366 366
371 371 371 372 372 371 370 369 369 370 370 370 366 365 366 366 367 368 369 368 368 368 367 365 366 339 321 321 322 323 329 356 362 363 363 363 365 366 366 367 366 367
372 372 371 371 372 371 370 369 370 372 371 370 367 365 364 366 368 368 369 368 367 366 366 366 365 345 317 319 320 320 332 358 361 362 362 362 363 365 366 365 364 350
373 373 372 371 371 372 371 370 370 371 372 371 368 368 366 368 367 367 368 369 367 368 348 359 366 347 316 318 317 317 333 360 362 362 361 361 361 362 365 364 365 354
372 374 373 371 371 373 373 372 373 372 372 371 369 368 366 365 365 365 366 366 367 365 365 364 365 369 335 315 316 316 321 358 363 361 359 360 361 361 361 363 364 363

ECMWFNIL_sfc_thetae_042.txt.gz
Theta_e
365 366 364 362 361 361 360 363 364 364 365 364 363 364 363 365 366 365 364 367 369 368 368 371 371 371 369 370 371 369 370 366 363 366 364 361 357 353 353 352 351 349
365 366 365 364 363 363 363 364 366 366 367 368 366 366 368 368 365 366 366 366 368 368 369 369 371 371 370 367 369 368 369 368 366 363 363 361 358 354 352 354 352 350
364 365 365 363 361 363 359 362 365 368 368 368 368 369 369 368 367 366 368 366 366 366 369 369 370 371 370 370 370 368 367 367 364 361 362 361 357 356 354 352 351 350
363 364 363 362 362 362 361 361 363 366 367 368 366 365 366 365 365 366 366 368 365 366 368 368 367 368 370 370 370 368 368 368 366 366 363 363 359 357 355 356 352 349
363 364 363 363 363 364 363 361 359 363 364 365 367 366 364 366 366 365 365 366 367 367 369 368 368 368 370 369 369 367 365 367 367 367 365 362 360 358 356 355 355 349
364 364 365 364 365 366 365 362 362 361 362 362 366 366 365 365 368 364 365 364 365 364 364 366 367 366 368 368 367 366 364 363 364 366 364 362 358 356 354 356 354 352
363 364 364 366 366 366 365 364 364 363 363 364 366 366 366 363 364 365 366 366 363 363 363 364 366 365 366 366 366 365 365 365 364 365 363 361 360 356 354 356 354 352
363 364 364 365 364 364 363 364 365 365 365 366 365 366 367 364 363 363 365 367 365 365 365 365 366 366 365 366 365 364 363 364 364 364 362 360 359 357 355 355 355 352
363 364 364 364 361 361 360 360 364 366 366 365 363 363 367 366 365 362 364 367 366 368 368 366 367 366 364 364 365 364 363 361 361 363 361 359 357 356 356 356 354 352
363 363 362 362 360 362 360 359 360 361 365 365 364 363 364 366 367 365 366 367 366 367 368 366 366 366 364 364 365 365 364 363 361 361 362 360 357 356 356 356 354 352
361 362 362 361 361 360 360 359 358 362 364 363 363 362 364 365 366 367 367 367 365 366 368 367 365 366 364 363 364 365 365 364 362 362 361 361 359 357 357 356 355 353
362 359 360 361 361 358 359 357 358 360 362 365 365 363 363 363 365 365 366 367 366 366 367 368 367 366 365 364 363 364 365 364 364 363 362 362 361 359 358 357 357 355
361 360 361 361 361 358 358 358 359 359 359 362 364 364 362 360 364 365 365 368 368 367 366 367 368 367 367 366 365 365 366 365 363 363 362 362 362 361 359 358 358 357
362 362 362 363 361 361 360 359 359 358 359 362 366 365 362 360 359 364 365 366 368 368 367 367 368 367 367 368 367 366 366 365 365 364 362 362 362 362 360 358 358 358
363 364 363 363 363 363 361 360 359 359 360 360 364 365 363 362 360 358 364 365 367 369 368 367 366 366 367 367 367 367 366 365 365 364 363 362 362 362 362 360 360 359
366 366 365 364 363 363 362 361 360 360 359 359 361 364 365 365 363 360 360 365 365 367 369 367 366 366 354 341 349 365 366 364 364 364 364 363 362 362 362 362 361 359
367 367 367 365 364 364 365 363 361 361 360 361 361 362 364 367 366 363 358 360 365 365 367 368 367 364 341 335 338 344 361 363 362 364 364 363 363 363 362 361 361 361
367 368 368 368 367 366 366 366 363 361 361 362 361 361 364 366 365 365 363 359 362 365 365 367 367 346 334 333 335 337 345 363 362 362 364 363 362 362 362 362 361 361
369 369 368 368 368 367 368 368 366 363 362 362 361 362 364 365 366 365 364 362 360 364 365 366 368 343 332 331 333 334 336 349 363 362 362 363 362 361 360 362 362 361
370 369 368 369 370 370 369 369 368 365 363 363 363 364 363 364 365 365 364 364 362 363 365 367 368 344 329 328 330 331 333 341 362 362 361 361 363 362 360 360 362 361
371 370 369 370 371 371 370 369 368 367 365 364 364 364 363 363 363 364 365 365 364 363 364 366 367 340 327 326 326 327 331 335 361 363 362 362 363 364 363 361 362 363
371 370 370 370 371 371 369 368 368 368 366 366 365 365 365 365 366 365 365 366 366 365 363 364 366 334 326 324 324 325 328 345 359 361 361 362 363 364 364 364 363 362
372 371 371 371 371 371 369 368 368 369 369 368 365 364 365 365 365 365 366 366 367 367 364 362 364 340 323 322 322 323 327 350 358 361 361 361 362 364 364 365 364 363
372 372 371 371 372 371 371 369 370 371 370 369 365 364 364 365 366 366 366 366 365 366 365 364 364 344 318 320 320 320 330 352 357 360 360 360 360 363 364 364 364 351
372 373 373 372 371 372 373 371 371 371 371 371 368 366 364 367 366 365 366 367 366 366 350 360 364 349 316 318 317 319 330 354 359 360 360 360 360 360 363 364 365 354
371 373 374 373 372 374 374 374 373 373 372 371 369 366 364 364 365 365 365 366 366 365 365 365 365 366 339 315 316 316 320 352 361 360 358 359 361 360 359 361 363 365

ECMWFNIL_sfc_thetae_045.txt.gz
Theta_e
355 355 355 355 354 355 356 355 355 354 355 354 356 357 357 357 358 357 358 361 361 361 362 362 363 363 363 361 361 360 359 358 358 357 357 355 349 346 348 346 342 341
355 355 356 356 355 355 356 357 356 355 355 357 356 357 359 359 359 357 358 361 362 361 362 363 362 363 362 360 361 359 358 358 357 360 356 355 349 346 348 346 344 341
355 355 355 355 354 354 355 357 358 356 356 357 359 358 359 361 359 358 357 360 361 361 361 362 362 362 362 360 360 359 359 357 357 358 356 355 349 347 347 348 345 344
355 355 355 355 355 354 354 354 357 358 358 357 358 360 360 361 360 358 358 363 361 361 361 361 363 362 362 361 361 359 359 359 358 357 355 354 350 348 347 348 347 345
355 355 356 356 356 356 355 353 354 358 359 359 360 361 361 360 359 358 359 359 360 360 361 360 361 362 363 361 361 359 359 359 358 357 354 353 351 349 348 348 347 345
355 356 356 356 356 355 355 353 354 356 359 360 360 361 361 361 359 359 357 359 360 360 360 361 360 362 363 362 362 360 359 359 359 358 356 353 352 351 351 349 347 345
354 354 355 357 357 356 355 355 354 354 357 360 362 361 360 359 359 359 357 358 359 360 360 360 360 360 363 362 361 360 359 360 360 358 357 355 353 350 350 349 347 347
354 354 355 356 356 356 356 355 355 354 355 357 359 361 360 358 359 359 359 357 358 358 359 361 361 360 362 362 361 360 359 360 359 359 357 356 354 350 349 350 348 346
355 354 355 355 355 355 355 356 356 355 356 356 357 360 361 359 357 359 359 358 357 357 358 360 361 360 361 361 361 359 358 358 358 358 357 356 354 351 349 348 348 347
355 355 354 355 354 355 355 356 357 356 357 356 357 358 360 361 358 357 358 359 357 356 356 358 360 360 360 360 360 359 358 357 357 358 358 357 356 354 351 348 348 347
355 355 354 354 354 355 355 356 357 358 357 357 357 357 359 360 359 358 356 358 359 357 357 357 359 360 359 359 360 360 359 358 357 357 357 357 356 355 355 350 348 347
356 355 354 354 354 354 355 356 357 357 358 358 358 357 358 359 359 359 356 356 359 359 359 358 358 359 359 358 359 359 359 358 357 356 357 357 356 355 354 352 350 348
356 355 355 355 355 354 355 356 356 356 358 358 358 358 357 358 359 359 359 356 357 359 360 360 359 359 359 359 358 358 358 358 357 356 355 356 356 355 354 353 352 350
356 356 355 355 355 355 355 355 355 354 355 357 358 357 357 357 358 359 359 358 357 357 359 361 361 359 359 359 358 357 358 358 357 356 355 355 356 356 355 353 352 352
356 356 356 356 356 355 354 355 355 354 354 355 357 357 357 357 358 359 358 358 359 358 358 359 361 361 360 359 358 357 358 358 358 357 356 355 355 355 355 354 353 352
356 355 355 355 356 355 354 354 354 354 353 353 356 357 356 356 356 357 359 358 358 359 359 359 360 362 351 339 344 357 357 358 358 358 357 356 355 354 355 355 354 353
356 355 355 354 355 356 355 354 353 353 352 352 355 357 357 357 357 355 356 358 358 358 359 359 359 359 340 333 335 340 354 357 357 358 358 357 356 354 354 354 355 355
357 356 356 355 354 355 355 354 353 352 351 352 353 356 358 358 357 356 355 357 358 358 359 360 360 344 334 332 333 333 340 358 358 358 358 357 357 356 355 355 355 355
358 357 356 356 354 355 355 355 353 352 351 351 351 354 357 357 357 357 356 355 357 358 358 360 360 342 332 330 331 332 333 345 358 358 358 358 357 357 356 356 355 355
359 358 357 357 356 355 355 355 353 352 351 352 352 353 354 356 357 357 357 356 355 357 358 359 360 342 331 328 328 329 331 337 358 358 357 358 358 357 357 357 356 355
360 358 357 357 358 356 355 355 354 353 352 352 352 352 352 353 355 356 357 357 357 355 357 359 361 339 329 326 325 326 329 332 356 358 357 356 357 358 357 357 357 357
360 359 358 358 358 358 356 355 355 355 353 352 352 352 353 353 354 355 356 357 358 357 355 355 360 335 327 325 324 324 327 342 353 356 356 355 355 356 357 358 357 357
361 360 359 359 359 359 358 357 356 356 356 355 353 352 352 353 353 354 355 357 357 358 356 355 356 338 325 322 322 322 326 346 352 354 355 355 354 354 355 357 357 357
361 361 359 359 359 359 359 359 359 359 359 358 355 353 352 354 354 355 356 357 357 357 358 356 355 342 320 320 319 320 329 349 352 353 354 355 355 355 355 356 357 349
362 362 361 360 360 360 361 360 360 360 360 361 359 357 355 356 356 356 356 357 358 358 349 355 358 347 317 318 318 318 329 350 353 353 354 355 355 355 355 356 357 352
364 363 362 361 361 361 362 362 362 362 362 362 361 360 357 357 357 358 357 358 358 358 359 358 358 359 335 314 315 316 320 348 354 353 353 354 355 355 354 355 356 357

ECMWFNIL_sfc_thetae_048.txt.gz
Theta_e
349 348 349 348 349 350 348 347 349 349 347 349 352 353 354 355 355 355 355 356 359 359 360 360 360 360 360 359 358 358 358 355 354 355 352 352 348 345 343 342 339 336
349 349 350 350 349 350 351 349 349 350 350 350 352 354 355 355 355 355 355 355 358 359 359 360 360 360 359 358 357 356 356 356 354 357 353 351 349 345 344 342 341 338
349 349 349 349 349 349 351 352 351 350 351 352 353 354 355 356 355 355 355 355 356 358 359 360 360 360 360 358 357 356 356 355 354 355 354 351 349 346 344 343 342 339
350 350 350 350 351 350 351 352 352 351 351 352 353 355 356 357 356 355 354 360 356 357 358 360 360 360 360 359 357 356 356 355 356 355 354 353 351 347 344 344 344 342
350 350 351 351 352 352 352 352 352 352 351 352 354 355 356 356 356 355 354 356 357 357 357 358 360 359 360 359 357 356 356 355 355 355 353 352 351 348 345 345 344 342
351 351 351 351 351 352 352 352 353 354 353 352 353 356 356 357 356 356 355 354 356 357 357 358 358 359 359 359 358 356 355 355 355 354 353 352 351 349 348 345 344 343
350 351 351 352 351 352 351 352 353 355 355 354 354 355 357 356 356 356 355 355 355 357 357 357 357 358 359 359 357 356 355 355 355 354 353 352 351 349 347 345 345 344
351 352 352 352 351 351 351 351 351 353 355 355 354 354 357 357 356 357 356 356 355 355 357 357 357 357 359 359 357 356 355 356 356 354 353 352 351 349 347 347 345 344
351 351 352 352 351 351 351 351 351 351 354 356 356 355 357 358 357 356 356 355 355 355 356 357 357 357 358 358 358 357 356 356 356 355 354 353 351 350 349 347 345 344
351 352 351 352 351 352 352 352 352 352 352 353 356 357 357 357 358 358 357 355 355 355 355 356 357 357 357 358 358 357 357 356 356 356 355 354 353 352 350 348 346 345
351 351 351 351 351 352 352 352 352 352 352 352 353 356 358 357 357 358 357 356 355 354 355 355 356 357 357 357 358 358 358 357 356 356 356 355 354 354 355 349 347 346
351 351 351 351 351 351 352 353 353 353 352 352 352 353 356 358 357 357 357 356 356 355 355 355 356 357 357 357 358 358 358 358 357 356 356 356 355 354 354 352 349 347
351 351 351 351 351 351 352 353 353 353 353 352 353 352 352 355 357 357 356 356 357 356 355 355 355 357 357 357 357 358 358 357 357 356 356 356 356 356 355 354 352 349
352 352 352 352 352 352 352 352 352 353 353 353 353 352 352 353 355 357 357 356 356 356 356 356 355 355 356 357 357 357 357 357 357 356 355 355 355 355 355 355 354 352
354 354 353 353 353 352 351 351 352 352 353 353 353 353 353 353 354 355 356 356 355 355 356 356 355 354 355 356 356 356 357 356 356 356 355 354 354 354 355 355 354 353
354 354 354 353 352 352 351 351 351 352 352 352 353 353 353 353 353 354 355 356 355 354 354 356 356 356 348 337 342 356 356 356 356 356 355 354 353 353 353 354 354 354
354 354 354 353 353 352 352 351 351 351 351 351 352 353 353 353 353 353 354 355 355 355 354 354 356 356 338 332 334 337 352 355 355 355 355 354 353 352 351 352 353 354
355 354 354 353 353 352 352 352 351 351 350 351 351 352 353 354 353 353 353 354 355 355 355 354 354 340 334 331 332 332 337 355 355 355 355 354 354 353 352 352 352 353
355 354 354 353 353 353 353 352 351 350 350 350 350 351 352 353 352 353 352 353 354 354 354 355 355 339 331 329 330 330 330 341 356 355 354 354 354 354 353 352 352 352
356 355 354 353 354 353 353 352 351 350 350 351 351 350 350 351 352 352 352 352 352 353 354 355 355 340 329 327 327 328 329 334 354 355 354 354 355 355 355 354 353 352
357 355 354 354 353 353 352 352 351 351 350 350 350 349 349 349 351 351 351 352 352 352 353 354 356 337 328 325 324 324 327 329 351 355 355 354 355 355 355 355 355 354
357 356 355 354 353 352 352 351 352 351 350 350 350 350 350 350 351 352 352 352 352 352 351 352 355 334 327 324 323 323 325 338 348 353 354 354 354 355 356 356 356 356
358 357 355 354 354 353 351 351 351 352 352 352 350 349 348 348 349 351 352 353 353 353 352 352 353 338 324 322 321 321 324 343 348 351 353 354 354 355 355 356 356 356
359 358 357 356 354 353 352 352 352 353 352 353 350 349 348 348 349 349 351 353 353 353 354 352 352 342 321 319 319 319 327 345 348 350 351 352 354 355 355 355 355 349
359 359 358 357 355 355 355 353 353 352 353 353 352 351 349 349 349 349 349 351 352 354 347 351 354 343 318 319 318 318 327 346 350 350 350 351 352 353 354 355 354 351
358 359 358 357 356 356 356 356 355 354 353 353 352 352 350 350 349 349 349 350 351 352 353 353 354 354 331 317 317 317 320 345 351 350 350 351 352 352 353 353 354 354

ECMWFNIL_sfc_thetae_051.txt.gz
Theta_e
349 348 347 347 347 347 346 345 345 344 344 347 349 350 351 352 353 353 354 354 354 355 355 356 357 358 359 358 358 357 356 355 355 353 351 350 348 347 344 341 337 336
348 349 349 348 347 348 347 346 346 346 344 346 349 350 352 352 352 353 353 353 354 355 356 356 357 357 357 357 356 356 355 355 353 355 352 349 349 347 346 342 340 337
349 348 348 347 346 347 348 347 346 347 346 346 348 350 351 353 353 353 353 353 353 355 356 356 357 357 357 357 356 356 355 354 353 353 353 350 350 347 346 344 341 338
349 348 348 348 347 347 348 347 346 347 348 347 347 350 352 354 353 353 352 357 353 354 356 356 357 358 357 357 356 355 355 354 355 353 352 352 351 349 347 344 343 341
349 348 348 348 348 348 348 348 347 347 347 349 348 350 352 352 352 352 352 353 353 353 354 356 357 357 358 357 356 355 354 354 354 353 352 351 351 350 348 345 342 341
349 349 349 348 348 347 347 347 349 348 347 348 349 351 351 352 352 352 352 352 353 353 354 355 355 357 357 357 356 355 355 354 354 352 352 351 352 351 350 346 343 341
348 348 348 348 347 348 347 347 348 350 349 349 349 350 352 352 352 352 352 352 353 353 353 353 354 355 357 357 356 355 355 354 354 352 352 351 351 350 350 347 345 343
348 348 348 348 348 347 348 348 348 349 350 350 348 350 352 353 353 353 353 352 352 352 353 353 354 354 356 356 356 355 355 355 354 352 351 351 350 349 349 349 347 344
348 348 348 348 348 348 348 348 349 349 351 351 350 350 352 353 353 353 353 353 352 352 353 353 354 354 355 355 355 355 354 354 354 353 352 351 350 350 350 349 346 345
348 348 348 348 347 348 348 349 349 350 352 352 352 351 351 353 354 354 354 353 352 351 351 353 353 354 354 355 355 355 354 354 354 353 353 353 352 351 350 349 347 346
347 348 348 348 348 348 348 349 349 350 351 351 352 352 352 352 353 354 353 353 353 352 352 352 353 354 354 354 355 356 355 355 354 354 353 353 353 352 354 350 349 347
348 348 348 348 348 348 349 349 350 350 350 351 352 352 353 353 352 353 354 353 353 353 353 352 353 353 354 354 354 355 355 355 355 354 354 353 353 353 352 351 350 349
348 348 348 348 349 349 350 350 350 350 350 349 351 352 353 353 353 353 354 354 353 353 353 353 353 353 354 354 354 354 355 354 354 354 354 354 354 354 353 353 352 350
349 349 349 349 350 350 350 350 350 350 350 350 350 349 350 352 353 353 354 354 354 354 353 353 352 353 353 354 354 354 354 354 354 354 354 353 353 354 354 353 353 352
350 350 351 350 350 350 350 350 350 350 350 350 350 350 350 350 352 354 354 353 354 354 354 354 353 353 353 354 353 354 354 354 354 354 354 353 353 353 353 354 354 354
350 350 350 350 350 349 349 350 350 350 350 350 350 350 350 350 349 350 352 353 353 353 354 354 354 354 346 335 339 354 354 354 354 354 354 353 353 352 352 353 354 354
350 350 350 349 350 350 349 349 349 350 350 349 350 350 350 349 350 348 349 351 352 353 352 353 354 354 337 331 331 335 350 354 353 353 354 354 353 352 351 352 353 354
351 350 350 350 350 349 349 349 349 349 349 349 349 349 350 350 349 349 349 349 350 352 352 353 353 339 333 330 330 329 334 353 354 353 353 353 353 353 353 352 352 352
351 351 351 350 350 350 350 350 349 348 348 348 348 349 350 349 349 349 349 349 349 349 350 352 353 338 331 329 329 328 328 337 353 354 353 353 353 353 353 353 352 351
352 351 351 351 351 351 351 350 349 348 349 349 349 349 348 349 349 349 349 349 349 349 349 351 352 338 330 326 326 326 327 330 349 353 353 353 353 353 353 353 353 352
352 352 351 352 352 352 351 350 350 349 349 349 349 348 348 348 348 348 349 350 350 350 349 350 352 335 328 324 323 323 324 326 345 351 352 353 353 353 353 353 353 353
353 352 352 352 352 352 351 350 350 350 349 350 349 349 349 349 349 349 349 349 350 350 350 349 351 333 326 324 322 321 323 335 343 348 350 352 352 353 353 354 354 354
355 354 353 352 352 352 351 351 350 350 350 351 349 349 348 348 348 348 349 349 349 350 349 349 350 338 325 321 320 320 322 339 343 346 349 350 352 353 353 353 354 354
356 355 354 354 353 352 351 352 352 352 351 351 350 349 348 348 348 348 348 349 348 349 350 349 349 341 324 319 318 318 325 341 344 346 347 349 350 352 353 353 354 349
357 357 356 355 354 353 353 352 352 352 352 352 351 350 350 349 349 348 348 348 348 349 343 347 350 342 323 319 317 316 325 342 346 346 346 348 349 350 352 353 353 351
358 358 357 356 355 354 354 354 354 353 352 352 351 351 350 350 349 348 347 347 348 349 350 349 349 350 340 318 316 315 318 341 346 346 346 347 348 349 350 351 352 353

ECMWFNIL_sfc_thetae_054.txt.gz
Theta_e
349 348 348 347 347 348 347 346 346 346 347 349 350 352 353 354 356 355 356 356 356 356 357 358 359 359 360 360 361 360 360 360 360 359 358 356 355 353 352 349 347 346
349 349 350 349 348 349 348 348 347 347 346 348 351 352 354 354 355 356 355 355 356 356 357 357 358 359 359 360 360 359 359 359 359 359 357 355 355 354 352 352 349 347
349 349 349 348 347 347 348 348 348 348 347 347 350 352 353 355 354 355 355 355 355 356 356 357 358 359 359 360 360 359 359 358 358 358 358 356 355 354 354 352 350 348
349 349 349 349 349 348 349 348 348 348 348 347 347 350 352 354 355 354 355 358 355 355 356 357 358 358 359 359 359 359 359 359 359 359 357 357 356 355 354 353 351 349
349 349 349 349 349 349 349 348 347 347 347 348 348 350 352 354 354 354 354 355 355 355 356 356 357 358 359 359 359 358 358 358 358 358 357 356 357 355 354 353 351 349
350 350 350 350 350 349 348 348 348 348 348 348 348 350 351 353 353 353 354 353 354 354 355 356 357 357 358 359 359 358 358 357 358 357 356 356 356 356 355 353 351 350
349 349 349 350 349 349 348 348 349 350 348 349 350 349 351 352 352 353 354 354 354 354 354 355 356 357 358 359 358 358 358 358 358 357 356 356 356 356 355 354 353 351
349 349 350 350 349 349 348 348 349 349 350 350 349 350 351 351 352 353 354 354 354 354 354 354 355 356 357 358 358 357 357 357 357 357 356 356 356 355 355 355 354 352
349 349 350 349 348 348 348 348 348 349 351 349 349 350 352 352 352 352 353 354 353 354 354 354 355 355 357 357 357 357 357 357 357 357 356 355 354 355 355 355 354 353
349 349 349 349 348 348 348 348 348 349 351 350 350 350 351 353 353 353 353 353 353 353 353 354 354 355 355 356 357 357 357 357 357 357 357 356 356 355 355 355 353 353
348 349 348 348 348 348 348 348 349 349 350 350 351 350 350 352 353 354 353 353 352 352 352 353 354 354 355 355 356 357 357 357 357 357 357 357 357 357 356 355 354 353
348 348 348 348 348 348 348 348 349 349 349 350 351 351 351 351 352 353 353 353 353 353 353 353 354 354 355 355 355 356 357 357 357 357 357 357 357 357 357 356 355 354
348 348 348 348 348 349 349 349 349 349 349 349 351 351 351 351 351 352 353 354 354 354 354 354 354 354 354 355 355 356 356 356 356 357 357 357 357 357 357 357 356 355
348 348 348 349 349 350 349 349 349 349 350 350 351 351 351 351 351 351 352 354 354 354 354 355 354 354 354 355 355 356 356 356 356 356 356 356 357 357 357 356 357 356
348 349 349 349 350 349 349 349 349 350 350 350 351 351 351 352 352 353 352 352 353 354 354 355 354 354 354 354 354 355 356 355 356 356 356 356 356 356 356 357 357 357
349 349 349 349 349 349 349 349 349 350 350 350 350 350 351 352 352 353 353 352 352 353 354 354 354 354 346 335 339 354 355 355 355 356 356 356 355 355 355 356 356 357
349 349 349 349 349 349 350 350 350 350 350 350 350 350 350 351 351 350 351 353 353 353 353 354 354 353 336 330 331 334 351 355 355 355 356 356 355 355 354 355 356 357
349 349 349 349 349 349 350 350 350 350 350 350 350 350 350 351 350 350 350 351 351 353 353 353 354 339 332 329 329 328 334 354 355 355 355 355 355 355 355 356 356 356
350 349 349 350 350 350 350 350 350 350 350 350 349 350 351 350 350 350 349 350 350 350 350 352 353 337 331 328 328 327 327 338 354 355 355 355 355 356 356 356 356 356
350 350 349 350 350 350 351 350 350 349 350 350 350 351 350 350 350 350 350 350 350 349 350 351 352 337 329 326 326 325 326 330 351 354 355 355 355 356 356 356 356 356
350 350 350 350 351 351 350 350 350 350 350 350 350 350 350 349 349 349 350 350 350 350 350 349 350 334 327 324 323 322 324 327 348 352 354 355 356 356 356 356 357 357
351 350 350 351 351 350 350 350 350 350 350 350 351 350 351 351 351 351 350 350 351 351 350 349 350 331 325 323 321 321 323 336 345 349 352 353 354 355 356 357 357 357
352 351 351 351 351 350 350 350 350 350 351 352 350 350 350 350 350 350 351 350 350 351 350 350 350 337 324 321 320 319 322 341 345 347 349 351 352 354 355 356 356 357
353 353 352 352 352 351 351 351 351 352 351 352 350 350 349 350 350 350 351 351 350 350 350 350 350 341 324 319 318 317 325 343 346 347 348 349 351 353 354 355 356 349
354 354 353 352 352 352 352 352 352 352 353 353 352 352 351 352 351 350 350 351 351 351 342 347 351 343 324 319 317 315 326 345 347 347 348 349 350 351 353 354 355 352
355 355 354 354 353 353 354 353 354 354 354 353 353 353 352 352 352 351 350 350 351 351 351 349 350 352 344 319 316 314 318 344 348 348 347 348 350 350 351 353 354 355

ECMWFNIL_sfc_thetae_057.txt.gz
Theta_e
356 356 355 355 355 356 357 357 357 358 360 358 359 361 362 365 367 367 367 368 368 367 367 368 369 368 367 369 369 367 367 367 365 366 367 366 365 364 362 362 363 362
357 357 357 356 357 358 359 358 359 358 360 361 361 362 365 366 366 366 366 366 367 366 368 367 368 368 368 367 369 367 366 365 365 367 367 366 366 365 363 364 363 364
357 356 356 355 354 355 354 357 359 359 359 359 362 364 363 365 364 366 366 366 366 365 367 368 368 368 368 368 369 368 365 366 365 365 368 367 366 365 366 362 362 363
357 357 355 354 355 355 356 357 358 359 358 358 359 360 361 362 364 364 365 366 366 366 366 367 366 366 368 368 369 367 366 367 366 368 367 367 368 366 366 366 364 363
356 356 356 356 356 358 358 357 355 356 356 357 358 360 362 363 364 363 363 364 366 365 366 366 367 366 368 368 368 366 366 365 367 368 367 366 368 368 366 367 366 364
357 358 358 357 357 358 356 356 356 356 356 355 357 358 359 361 362 361 362 362 362 362 362 364 365 365 366 367 367 367 366 364 365 366 366 365 365 366 364 366 366 365
356 357 357 357 357 358 357 357 357 358 356 357 359 358 358 359 360 361 362 362 361 362 361 363 365 365 366 367 367 367 367 367 367 366 365 364 366 366 365 366 366 365
356 356 357 357 356 356 356 356 357 357 358 359 358 359 359 357 359 360 361 361 361 362 363 363 365 367 365 366 366 366 366 366 366 366 364 365 366 366 367 366 366 366
356 356 357 357 355 355 355 355 356 357 358 358 356 356 359 358 358 358 361 363 361 362 364 364 365 365 365 365 365 366 366 365 365 366 365 364 364 365 365 367 365 365
357 357 355 355 354 355 355 355 355 356 358 357 356 356 356 358 359 359 361 363 361 362 363 363 363 364 364 365 365 366 366 366 367 367 366 365 364 364 364 365 365 364
355 355 355 355 354 354 355 355 355 355 357 356 356 355 357 358 359 360 361 362 359 360 362 363 363 364 364 363 364 365 365 365 366 367 366 366 366 366 365 366 365 364
355 355 354 354 354 354 355 355 355 355 356 356 356 356 357 357 358 359 359 361 361 361 362 363 364 364 364 364 362 363 364 364 365 366 365 366 366 366 366 367 365 365
354 354 355 355 355 355 356 356 355 355 355 355 356 356 356 356 356 358 359 360 361 361 361 362 363 363 364 364 364 364 364 364 363 364 364 365 366 365 365 365 365 365
354 355 356 356 356 358 357 356 356 356 356 357 357 356 356 356 356 356 358 359 360 361 362 363 363 363 364 365 364 363 363 363 364 363 363 364 365 365 364 364 364 365
356 356 357 358 358 359 358 357 356 357 357 357 358 357 356 356 357 356 357 358 359 360 361 362 361 361 361 363 363 363 363 362 363 363 363 363 363 363 364 365 365 364
357 358 358 359 359 359 359 359 357 357 356 357 357 357 358 358 358 358 357 357 358 359 360 360 360 361 352 338 344 361 363 362 362 364 363 363 363 363 363 364 364 364
359 359 359 358 359 359 359 359 357 357 357 358 357 358 358 359 358 357 357 357 357 357 358 359 359 358 338 332 333 336 356 363 362 363 364 363 362 363 363 362 363 365
357 358 358 358 359 358 359 359 358 357 357 358 357 357 358 358 358 357 358 357 357 357 357 358 359 342 332 330 331 330 337 360 361 361 361 362 362 362 362 363 363 363
358 358 358 358 358 358 359 359 358 358 357 357 356 357 358 358 358 357 357 358 358 358 357 357 358 338 330 329 329 328 328 341 358 361 360 360 362 363 362 363 364 363
358 358 357 357 358 358 358 358 358 357 357 356 356 358 357 358 357 357 358 359 359 358 359 359 359 339 328 326 326 326 327 332 358 359 360 361 362 362 362 363 363 363
357 357 357 358 358 358 358 357 357 357 357 356 356 356 357 357 356 357 357 358 358 358 358 358 357 335 325 324 323 322 325 328 356 359 360 361 362 363 364 363 363 364
356 357 358 358 358 358 357 357 357 358 357 358 357 357 358 358 358 358 357 358 358 358 356 356 357 332 324 322 321 321 323 343 354 358 359 359 361 363 363 364 365 364
357 357 357 358 358 357 357 356 357 358 358 359 358 357 357 357 357 357 359 358 358 358 357 357 357 339 323 320 319 319 324 350 355 357 359 359 360 361 363 364 364 365
358 358 358 357 358 357 357 357 358 359 359 360 357 356 356 357 358 358 359 359 358 357 357 357 357 343 321 318 317 317 329 352 356 356 358 359 359 362 363 364 364 356
360 359 359 358 358 358 358 358 359 359 359 361 359 358 357 359 358 358 358 359 358 358 347 353 358 347 321 319 317 315 330 354 356 356 356 357 358 359 362 362 363 359
360 360 360 359 359 359 360 360 361 360 360 360 359 358 357 358 358 358 357 358 358 358 358 356 356 359 349 318 316 314 318 351 357 355 355 356 358 357 358 361 362 363

ECMWFNIL_sfc_thetae_060.txt.gz
Theta_e
361 362 360 360 359 358 358 358 357 357 359 356 356 360 360 364 366 364 365 367 368 368 368 369 370 370 366 367 368 367 366 366 364 362 364 364 365 365 364 365 366 365
361 362 361 361 360 361 360 360 361 358 360 361 358 358 364 365 366 366 366 367 368 367 369 367 369 369 368 364 367 366 365 366 366 362 364 365 365 365 364 365 364 367
362 362 361 360 358 360 357 360 362 361 359 361 361 361 362 366 366 369 368 367 365 362 366 368 368 369 367 367 367 366 364 366 366 362 365 365 362 363 365 362 363 363
363 363 361 360 359 360 360 360 361 362 359 359 360 359 360 361 366 367 369 369 366 365 365 365 366 364 367 367 368 364 365 366 365 368 366 366 366 363 364 365 363 363
363 363 362 362 361 362 362 360 359 360 359 357 359 362 363 364 365 365 366 368 369 366 366 366 367 366 367 367 367 365 363 363 366 368 367 366 367 365 363 363 363 361
364 363 364 363 363 362 361 361 360 359 360 356 359 361 362 364 364 363 363 364 365 364 360 362 364 364 363 365 366 365 362 360 361 367 366 367 364 362 361 362 364 363
363 364 364 363 362 362 362 362 362 362 361 361 362 361 362 363 365 365 364 364 364 364 361 362 366 364 363 365 366 366 365 365 365 365 365 365 367 365 362 363 365 365
363 363 364 363 362 362 362 362 362 363 363 363 360 363 363 362 365 364 364 364 363 364 366 364 365 368 363 363 364 365 365 362 363 366 366 366 366 366 366 363 365 368
362 363 363 363 361 360 360 360 362 363 363 362 360 360 364 363 363 363 365 366 365 365 367 366 367 367 367 364 364 365 366 362 361 364 365 364 364 366 366 366 365 367
362 362 361 361 359 359 359 361 360 361 362 362 361 360 361 364 364 364 365 367 366 366 366 368 367 366 367 365 365 366 366 366 365 365 365 365 363 363 363 365 364 365
361 360 361 361 360 358 359 360 359 359 362 362 361 360 360 363 364 365 366 366 365 366 366 367 367 368 367 363 363 365 366 364 365 366 367 366 365 365 364 365 364 364
360 360 360 360 360 359 359 359 359 359 360 362 362 361 360 361 363 363 363 366 367 367 367 368 369 369 368 366 361 362 364 364 363 365 365 367 366 365 365 366 365 366
359 360 360 359 360 359 359 359 359 358 359 360 362 361 360 359 361 364 364 365 367 368 366 368 369 368 369 369 366 364 364 365 362 362 364 365 366 364 363 363 365 366
360 361 361 361 362 363 362 360 360 359 360 361 363 362 360 359 358 360 364 364 366 367 367 368 369 369 369 370 369 366 363 364 365 363 361 362 365 365 363 361 362 364
362 362 363 363 364 365 364 362 361 361 361 362 364 363 360 359 359 359 362 364 365 366 367 366 366 367 367 368 368 368 366 362 364 365 363 361 362 362 364 365 364 361
363 364 364 364 364 365 365 364 362 363 361 362 363 363 364 363 363 362 361 362 363 365 366 365 365 366 359 343 351 367 367 362 363 366 366 364 363 363 361 362 363 363
364 364 365 365 365 366 366 365 364 363 363 364 364 364 365 366 364 362 361 361 362 364 364 364 364 363 342 334 337 343 364 368 365 365 367 368 366 366 365 363 361 362
363 365 365 365 366 366 367 367 365 364 364 365 364 363 365 365 363 363 364 362 361 363 363 364 364 348 332 332 334 334 344 365 367 365 364 366 367 365 365 364 364 362
365 365 365 366 366 367 368 367 366 364 364 363 362 365 365 365 365 364 364 364 362 363 362 363 364 341 330 329 331 332 333 347 361 363 363 363 365 367 367 367 366 365
365 366 365 366 367 367 368 367 365 364 363 363 364 365 365 365 364 365 365 366 365 364 364 364 364 339 328 326 328 328 330 337 361 360 361 362 365 366 367 368 368 368
365 366 366 367 367 367 367 366 366 366 364 363 363 363 364 364 364 365 365 366 365 364 364 362 363 332 325 324 324 324 326 332 360 361 361 362 364 366 368 368 369 369
365 366 366 366 367 366 366 365 366 366 365 364 364 363 365 365 366 365 365 365 366 365 363 362 363 329 323 322 322 322 325 349 359 361 361 362 363 365 367 369 370 370
364 365 365 365 365 365 364 364 364 365 366 366 364 363 362 363 365 364 366 364 365 365 364 365 364 340 321 319 319 319 327 356 359 360 361 362 363 364 366 368 369 371
365 365 364 364 365 364 364 364 365 366 366 366 363 363 361 362 364 364 365 365 364 364 364 364 364 344 319 318 317 317 333 358 360 360 361 362 363 366 366 367 369 363
365 365 364 364 364 365 364 364 365 365 366 367 365 364 362 364 364 364 364 365 364 363 353 359 364 348 318 319 316 316 334 360 361 361 360 362 362 363 366 366 368 364
365 365 365 364 364 365 366 366 367 366 366 365 365 364 362 362 362 363 362 363 363 363 363 362 362 366 344 316 316 314 320 359 362 360 360 361 363 362 363 366 366 368

ECMWFNIL_sfc_thetae_063.txt.gz
Theta_e
362 361 358 355 354 353 354 355 354 354 353 348 349 356 356 360 362 358 359 362 365 366 365 367 369 368 365 367 368 367 366 364 364 360 363 362 364 364 363 363 365 363
363 363 361 359 358 358 356 355 357 355 356 355 349 352 359 360 360 361 360 359 362 365 367 365 367 369 367 364 366 365 366 365 365 360 361 363 362 362 363 365 364 366
364 363 361 359 356 357 353 355 357 357 355 355 353 353 354 359 360 364 363 361 360 359 364 366 366 368 366 366 366 365 363 366 365 360 362 362 361 360 365 361 362 363
366 365 363 360 357 357 356 355 357 358 357 355 355 351 351 353 359 361 364 364 362 361 361 364 364 363 366 366 366 364 363 365 365 365 362 363 363 361 361 363 362 362
365 364 363 362 359 359 359 356 353 355 356 354 356 357 355 357 359 359 362 364 365 363 363 362 362 362 364 366 366 364 362 361 364 366 365 363 365 363 360 360 362 360
364 366 366 363 361 358 357 356 355 354 357 353 354 356 356 356 355 358 361 363 363 360 357 359 362 362 362 364 365 365 361 358 358 364 365 365 362 359 357 359 361 361
362 364 364 363 360 358 358 360 359 358 357 357 356 356 357 357 358 358 361 362 360 361 356 359 363 363 362 363 365 365 364 363 362 362 364 364 366 363 358 358 361 361
363 364 365 364 362 359 359 359 360 359 360 360 355 357 357 357 361 360 360 360 361 361 362 357 363 365 360 360 362 364 364 361 360 363 363 365 364 364 364 359 360 362
363 364 366 364 362 360 358 358 359 361 361 360 356 355 358 358 360 362 364 362 362 362 364 361 364 361 363 361 362 363 363 361 359 361 362 363 363 364 363 364 360 361
364 365 364 362 360 360 359 357 358 359 361 358 358 355 356 360 361 363 365 366 361 362 363 365 364 363 364 362 361 362 363 364 363 361 362 362 361 361 361 361 360 361
362 362 362 361 360 359 358 358 356 358 360 359 359 356 355 359 362 364 366 366 362 362 363 365 365 365 366 363 361 361 362 363 365 364 362 362 363 363 362 361 360 359
361 360 361 361 360 358 357 358 356 356 358 361 361 359 357 355 361 362 363 365 366 364 364 366 367 368 368 365 360 360 361 362 364 364 362 363 364 364 363 363 360 360
360 360 360 360 360 358 357 357 357 355 355 358 360 359 357 355 357 362 363 364 367 366 364 366 367 367 368 368 364 362 361 362 360 362 363 364 365 363 360 359 359 359
360 360 360 361 361 363 360 357 357 355 354 356 360 359 357 355 354 359 362 362 366 367 367 367 368 367 368 369 368 362 359 360 361 361 359 361 362 362 359 356 355 356
362 361 360 362 363 366 364 360 357 356 356 357 359 360 358 356 355 355 361 362 364 366 367 366 366 366 366 367 368 365 360 357 360 361 360 359 360 358 359 358 355 353
366 366 364 364 364 367 367 364 358 358 355 356 357 359 360 360 360 357 357 360 361 364 366 365 364 366 361 347 354 366 363 356 357 360 362 360 360 360 357 356 357 355
365 366 368 367 368 368 367 365 363 360 360 362 361 361 364 366 360 356 354 356 360 362 363 364 363 362 346 337 340 348 364 363 358 360 363 363 359 361 360 357 356 356
364 367 368 368 369 368 368 368 363 361 364 364 360 360 366 362 359 359 360 356 357 360 362 363 363 350 334 335 337 338 350 367 361 358 358 361 362 359 360 360 359 354
369 367 367 366 368 368 369 368 368 366 362 360 358 362 364 366 367 361 361 359 357 361 360 361 362 342 331 332 334 335 336 352 361 360 356 356 361 363 361 362 363 361
368 368 367 368 369 369 370 369 367 366 362 361 362 364 365 366 364 364 364 366 363 362 366 362 364 338 329 328 331 331 334 341 364 359 360 358 360 360 362 363 364 364
368 368 368 369 370 370 370 369 368 366 364 363 363 363 365 366 365 364 365 366 364 362 362 362 361 331 326 325 326 327 330 336 363 361 361 362 362 363 365 365 367 367
368 368 369 370 370 370 369 369 369 368 367 366 365 363 366 367 368 366 365 366 366 365 361 361 362 324 325 324 324 325 328 353 362 362 361 361 362 364 365 369 369 368
368 368 369 370 370 369 369 369 368 369 369 368 365 364 364 365 367 366 368 366 366 367 364 362 362 334 322 321 322 322 330 359 362 361 362 362 363 365 366 367 367 369
369 370 369 369 370 369 368 368 370 371 369 368 366 365 363 365 366 367 367 367 366 366 365 365 363 344 317 319 319 319 336 361 362 361 362 363 364 366 366 367 369 369
370 370 369 369 370 369 369 369 370 370 370 370 367 366 364 366 366 366 366 367 365 366 359 362 364 347 316 319 317 317 338 364 363 362 361 362 363 364 367 367 369 369
370 371 371 369 370 370 371 371 371 371 371 370 368 366 364 363 364 365 365 366 365 365 366 365 364 364 337 316 316 315 323 362 365 362 361 362 364 363 364 367 368 370

ECMWFNIL_sfc_thetae_066.txt.gz
Theta_e
354 354 353 352 352 350 353 358 355 356 358 356 356 358 359 363 364 368 362 365 368 367 369 374 373 373 369 374 370 369 371 368 373 370 367 366 368 362 360 360 364 368
356 354 355 353 354 354 355 359 359 358 359 358 355 360 361 364 362 365 366 365 367 366 370 368 372 371 371 368 371 370 372 370 369 361 367 366 367 363 360 363 363 372
357 355 355 351 351 352 347 354 360 359 358 356 356 362 361 360 362 363 367 365 363 362 369 369 370 371 369 370 372 368 366 371 368 363 369 368 368 364 365 359 359 362
358 356 353 350 349 351 349 350 356 359 355 356 353 350 353 354 359 362 364 368 365 365 366 365 365 365 369 369 370 369 368 370 368 371 370 369 370 365 364 367 365 363
359 358 355 352 351 353 351 350 348 353 353 354 354 354 353 360 361 360 362 363 366 364 365 365 366 366 369 368 369 367 366 366 368 371 370 368 371 368 363 364 370 366
361 360 360 356 355 356 352 350 351 350 352 350 354 355 353 354 362 358 361 360 360 358 358 359 363 362 365 367 367 365 363 361 362 367 366 366 364 364 360 365 365 364
360 361 358 359 356 357 355 353 352 352 352 352 355 354 355 352 354 358 360 361 360 360 357 358 362 362 362 365 365 366 367 366 366 366 364 365 367 366 362 364 366 364
361 359 359 359 356 354 354 355 354 353 354 355 353 355 356 353 354 354 359 360 360 363 362 361 363 365 361 363 364 365 365 361 362 368 365 364 366 366 366 365 368 368
361 361 360 359 357 355 352 352 354 354 355 355 352 351 356 355 356 352 356 361 360 363 364 361 365 363 362 362 363 364 363 361 360 362 364 363 363 365 364 365 363 366
362 362 360 359 357 357 354 352 353 352 354 353 352 352 352 356 357 356 357 360 361 363 365 362 363 362 361 361 363 364 364 364 364 363 361 362 362 363 363 364 362 362
359 359 359 358 357 356 354 353 352 353 353 351 351 351 351 353 357 360 361 362 359 361 364 363 362 362 361 359 361 363 364 363 363 365 364 362 362 364 367 364 363 361
358 357 358 358 356 355 353 352 352 353 354 355 353 353 352 352 355 356 360 363 361 360 362 364 364 364 363 361 359 360 362 362 363 364 363 364 364 364 364 364 363 362
357 358 358 358 356 355 354 353 351 351 354 355 355 355 352 349 352 356 358 363 364 363 361 363 364 364 365 365 363 362 362 361 360 363 363 362 362 362 362 362 362 361
359 357 358 359 359 358 357 355 354 352 353 356 358 356 353 349 350 355 358 360 364 364 363 364 365 365 366 367 366 364 362 361 360 361 361 361 361 361 360 360 361 361
360 360 361 362 362 361 359 358 356 355 355 357 359 356 354 352 351 354 357 358 361 364 364 363 363 364 365 366 365 364 361 359 360 360 360 360 361 360 362 362 360 358
362 362 361 362 362 362 361 360 357 357 354 356 359 358 359 359 355 354 357 358 359 363 364 363 362 363 357 347 353 363 362 356 359 360 359 359 361 361 360 361 360 356
363 363 363 362 363 364 363 362 360 358 357 357 358 360 359 361 359 355 353 357 358 359 361 362 361 360 345 337 340 348 360 359 357 360 361 361 360 361 359 358 357 357
362 363 363 362 364 364 363 363 361 360 358 358 356 358 360 361 359 358 356 355 358 359 359 362 363 350 335 334 336 338 349 362 358 358 359 360 360 359 360 359 358 356
363 363 363 362 363 365 365 363 361 361 359 358 356 357 360 360 359 358 358 356 357 359 358 361 362 345 331 332 334 335 337 354 360 357 354 356 359 360 359 359 359 358
364 364 363 363 364 365 365 363 361 360 359 358 357 358 360 360 359 359 359 359 358 360 360 360 361 343 328 329 331 332 334 342 362 360 357 355 359 360 360 360 361 360
365 365 364 364 364 365 365 363 361 360 360 357 356 356 359 361 358 358 359 360 358 358 363 360 359 335 325 325 327 328 331 338 362 362 362 360 361 363 364 362 362 363
365 365 365 365 365 365 364 363 362 361 360 360 358 356 358 362 362 360 360 360 361 358 357 360 357 328 325 324 325 326 330 350 361 362 361 362 365 367 366 366 365 365
366 365 366 365 365 364 363 363 363 362 362 362 359 358 358 359 362 360 363 362 361 361 358 358 361 331 322 322 323 324 331 356 361 361 361 359 360 365 371 371 369 367
367 367 366 366 365 364 364 364 364 364 362 363 360 359 359 359 362 363 363 362 360 360 361 361 360 340 317 319 320 320 336 358 360 361 361 360 361 362 365 368 369 373
368 368 367 366 366 365 365 365 366 365 364 364 362 362 360 363 363 363 363 363 360 361 355 360 360 345 313 319 317 317 336 360 361 361 360 360 360 361 363 363 365 368
370 369 368 367 367 368 369 370 370 368 365 363 362 360 360 361 362 362 363 363 361 361 364 363 361 361 330 316 315 316 325 360 364 361 359 360 361 361 361 362 363 364

ECMWFNIL_sfc_thetae_069.txt.gz
Theta_e
346 345 344 345 344 345 341 343 343 347 347 351 351 352 354 354 355 354 358 358 359 357 362 360 362 361 363 359 362 363 366 360 360 361 362 362 359 361 360 359 358 357
345 346 346 344 345 348 344 345 344 344 349 350 353 351 352 355 355 354 356 358 360 358 359 363 361 361 361 361 360 358 358 360 357 364 358 359 360 361 359 360 358 358
345 345 345 342 343 344 347 348 346 345 348 350 352 353 353 355 352 355 355 358 358 358 359 362 362 361 361 360 361 360 359 357 357 359 358 357 357 356 357 357 357 360
345 345 345 343 343 343 347 350 349 348 349 350 350 354 354 353 353 350 357 363 357 358 359 361 362 361 361 361 361 358 360 359 359 358 359 359 359 356 354 355 357 355
346 345 344 344 343 344 343 349 350 350 350 350 350 350 354 351 353 351 353 359 357 357 359 360 360 361 361 360 361 358 358 359 360 359 357 356 358 356 357 357 356 355
348 346 345 344 343 343 341 343 349 351 350 350 349 348 348 350 351 353 351 356 356 357 358 359 359 360 362 360 360 358 357 359 359 359 358 356 357 358 358 355 353 353
348 347 345 344 343 343 342 341 343 349 350 349 350 347 345 343 351 352 351 352 356 356 358 357 356 358 360 360 359 358 357 357 356 359 357 355 357 357 357 355 355 352
349 348 346 345 343 343 343 341 341 344 348 348 348 348 346 343 348 353 353 352 353 354 354 356 357 356 359 359 358 357 357 359 357 357 356 355 356 355 357 359 357 353
351 349 348 345 343 342 343 342 342 342 345 346 346 348 349 346 343 350 354 353 352 353 352 353 355 356 357 358 358 357 356 357 358 358 356 355 356 356 356 357 356 356
353 351 349 347 345 343 343 343 343 342 345 345 346 346 348 349 345 344 351 354 353 353 352 352 354 356 356 356 357 357 357 356 356 355 357 356 356 357 357 357 356 354
354 353 351 349 347 345 345 345 344 344 344 345 346 345 347 349 349 345 345 352 354 354 354 353 354 355 355 355 357 358 358 357 356 355 355 356 357 357 363 357 356 355
355 354 352 350 349 348 347 347 347 346 345 346 346 346 346 348 349 348 345 348 353 354 356 355 355 356 355 355 355 357 358 358 357 357 356 354 356 357 359 358 357 356
356 355 353 352 351 350 349 348 347 348 347 346 347 347 346 346 347 349 349 347 349 353 356 357 355 355 355 355 354 356 357 357 357 356 357 356 355 355 358 359 358 357
357 356 355 353 352 351 351 350 348 348 348 348 348 346 346 346 347 348 350 350 349 350 353 357 357 355 355 355 354 354 356 356 356 356 356 356 356 356 356 357 358 358
357 357 357 355 353 352 352 351 350 348 348 348 348 347 347 346 347 348 350 352 352 351 352 354 357 356 356 355 354 353 354 355 355 356 356 355 355 355 356 356 357 357
357 357 356 356 354 353 352 352 350 349 348 349 349 347 346 347 346 348 349 351 353 354 353 354 355 357 353 344 347 355 354 355 355 355 355 356 355 354 354 355 356 357
356 356 355 354 354 354 352 351 350 349 348 348 350 349 348 348 347 346 348 350 352 355 355 355 355 356 343 336 338 344 354 355 354 353 354 354 355 354 353 354 355 355
356 355 354 353 354 353 352 351 350 349 347 347 350 350 350 350 349 346 348 350 351 354 356 356 356 348 336 334 336 337 346 356 354 353 354 353 353 354 354 354 354 355
356 355 354 353 353 354 353 352 350 349 348 347 348 351 351 350 349 348 347 351 352 352 355 357 357 343 333 332 333 334 336 350 355 352 353 353 352 353 354 354 353 353
356 355 354 354 355 355 354 352 351 350 349 349 349 352 351 351 351 350 348 350 353 353 354 357 358 343 330 328 330 331 333 341 355 353 351 352 353 353 353 353 353 352
356 355 355 355 355 355 354 353 352 351 351 350 350 350 352 351 351 350 350 350 352 354 354 355 358 337 327 325 326 327 331 337 355 355 352 350 351 353 354 353 353 354
357 356 355 355 355 355 355 354 353 352 351 351 351 350 352 353 353 352 351 351 351 354 354 353 357 331 326 324 324 325 329 345 354 355 353 352 350 351 353 354 353 354
358 356 356 356 356 355 355 355 354 352 352 353 351 350 350 352 352 352 352 352 351 351 353 354 355 334 325 322 322 323 328 348 353 355 354 353 353 353 354 354 354 354
358 357 356 356 356 355 355 356 356 354 353 354 351 350 349 351 353 352 353 353 351 351 351 352 355 337 321 321 320 320 332 349 352 354 354 353 353 353 356 359 361 366
359 358 357 356 356 356 356 356 356 355 354 354 353 351 350 351 353 352 352 353 353 352 350 350 351 341 317 320 319 318 332 351 353 353 353 353 353 352 352 353 354 364
359 359 358 357 357 357 357 357 358 357 355 354 353 352 351 351 353 353 352 353 354 354 354 352 351 351 327 316 316 316 323 351 353 353 352 352 353 352 352 352 352 353

ECMWFNIL_sfc_thetae_072.txt.gz
Theta_e
341 346 343 340 339 342 343 341 342 346 349 350 351 351 350 352 355 355 357 357 357 356 357 357 357 357 356 357 357 357 358 357 358 359 359 359 356 357 357 356 354 352
341 345 347 342 340 342 342 342 342 345 348 350 351 352 352 352 353 354 355 356 357 356 356 358 357 357 354 355 356 357 356 357 355 361 358 358 356 356 357 356 356 355
342 342 345 342 339 340 340 341 342 345 347 350 351 352 352 353 352 352 354 355 355 355 355 359 357 357 356 355 355 354 355 355 354 358 357 357 356 356 357 357 356 355
342 342 345 344 341 341 341 340 340 343 346 348 350 351 353 354 352 351 351 360 354 355 354 357 358 357 356 356 356 354 354 353 354 355 356 356 355 355 355 354 355 355
342 342 343 344 343 342 342 340 340 340 344 347 349 350 352 351 351 350 351 353 354 354 354 354 358 357 357 356 356 354 355 354 354 354 353 353 354 355 353 352 352 352
342 343 343 343 343 343 342 341 340 340 340 345 347 350 350 349 349 348 350 352 354 354 354 354 356 357 357 356 357 355 354 355 355 354 353 352 353 355 354 353 351 351
342 342 342 343 342 342 343 342 341 342 340 342 346 348 349 348 347 348 347 352 354 354 354 354 355 356 357 356 356 355 354 355 355 354 353 353 353 353 354 352 351 349
344 342 342 342 341 340 341 343 343 343 342 342 343 346 348 349 348 347 348 349 353 353 353 354 354 355 357 356 355 355 355 356 355 354 354 353 352 352 352 354 351 349
345 344 342 341 341 340 339 340 344 345 345 343 343 344 347 348 348 348 348 347 351 353 353 353 354 355 356 356 355 354 354 354 355 354 354 353 352 352 352 353 352 351
345 345 343 341 340 340 339 339 340 344 347 346 345 345 345 346 347 348 348 348 348 351 352 353 353 354 355 356 356 355 354 354 354 353 353 353 353 352 352 352 352 352
346 346 344 342 341 340 339 339 339 339 343 346 346 346 346 345 344 345 347 348 348 348 350 352 353 354 353 355 356 356 355 355 354 353 353 354 353 353 358 353 352 352
347 346 345 344 343 341 340 339 339 338 338 342 345 345 345 346 344 342 344 348 349 348 349 350 352 353 353 353 354 356 355 355 355 354 353 353 354 354 354 355 353 353
348 347 346 346 345 343 342 340 339 339 338 338 341 343 344 344 346 344 343 344 349 350 349 349 350 351 352 353 353 353 355 355 354 354 353 353 353 354 354 355 355 354
351 350 348 347 346 345 343 341 340 339 339 338 339 340 341 342 344 345 344 343 346 349 351 351 350 350 350 352 352 352 353 354 354 354 353 353 352 353 354 355 355 355
354 354 352 350 349 347 345 343 341 340 340 339 339 339 341 341 342 344 345 343 343 347 350 352 351 350 351 351 351 351 352 353 354 354 353 353 353 353 352 353 354 356
356 355 354 353 351 349 347 345 344 342 341 340 340 340 340 341 341 342 344 344 343 343 347 351 352 353 349 340 344 352 351 353 354 354 353 353 352 352 353 353 353 354
356 356 355 354 353 351 350 348 346 345 343 342 342 341 341 341 342 341 342 344 345 343 343 346 351 353 341 334 335 340 350 351 352 353 353 353 352 352 351 352 353 353
356 356 356 355 354 352 351 350 349 347 345 344 343 343 343 343 342 341 342 343 345 345 344 345 347 342 335 333 334 333 341 352 351 352 353 353 353 352 352 352 352 353
357 356 356 355 354 354 353 351 349 348 347 345 344 344 344 343 342 342 342 343 344 345 345 346 346 338 332 331 332 332 332 344 351 351 351 352 352 353 352 352 351 351
356 356 355 355 355 354 353 352 350 349 348 348 347 346 345 344 344 343 342 342 344 345 346 348 348 339 329 327 328 329 331 336 351 351 351 351 351 352 353 353 352 351
352 354 355 355 355 354 353 352 351 350 349 349 348 346 345 345 344 343 343 343 344 345 346 348 350 336 327 325 324 325 328 333 350 352 351 351 351 351 352 352 353 353
351 352 354 355 354 353 353 352 352 351 349 349 348 347 346 347 347 346 344 344 344 345 345 346 350 333 327 324 323 323 327 340 348 351 351 351 350 351 351 352 352 352
351 351 353 354 354 353 352 352 352 351 351 351 348 347 345 346 347 347 347 346 345 345 346 346 348 336 325 322 322 322 326 343 347 350 351 351 350 350 351 352 352 352
351 351 352 354 354 353 352 352 353 352 351 351 349 347 346 346 347 348 348 348 346 346 347 347 348 339 322 321 320 321 329 345 348 349 350 351 351 351 350 350 352 362
351 351 352 354 354 354 354 353 352 352 352 352 350 349 348 347 348 348 348 349 349 348 347 348 350 341 320 321 320 319 328 346 349 349 349 350 351 351 351 351 350 357
349 351 352 354 354 354 354 354 354 354 353 351 350 350 349 348 348 348 348 349 350 350 349 349 350 351 336 318 319 317 320 345 350 349 349 350 351 351 351 350 351 351

ECMWFNIL_sfc_thetae_075.txt.gz
Theta_e
343 343 341 341 340 341 341 343 346 347 348 350 350 351 350 351 353 353 354 355 356 356 356 355 356 356 356 354 354 353 355 354 356 356 354 354 353 353 354 354 351 349
343 343 345 342 341 342 341 341 344 347 348 349 350 351 351 350 352 353 353 354 355 355 355 355 355 355 354 353 352 352 353 354 354 359 356 354 354 354 354 354 354 352
343 342 343 342 340 339 341 341 341 345 347 349 350 351 351 351 351 352 353 354 354 355 354 354 354 354 354 352 352 353 353 352 353 355 356 355 355 354 354 355 354 354
342 342 343 343 342 340 340 341 340 342 346 347 348 350 352 352 351 351 351 358 353 353 353 353 354 354 354 353 352 351 353 353 354 354 354 355 355 354 354 353 355 354
343 342 342 343 343 341 340 340 340 340 343 346 348 349 351 350 350 350 350 351 352 352 352 352 353 354 354 353 352 351 351 351 351 351 352 352 353 353 354 352 351 351
344 342 342 343 343 340 339 339 340 340 342 344 346 349 349 350 350 349 349 349 351 352 352 352 352 353 354 353 352 352 351 351 351 350 350 350 351 352 354 351 349 348
343 342 341 342 343 340 339 339 340 341 341 344 346 347 349 349 349 349 349 349 350 352 352 351 351 352 353 353 352 351 351 351 350 350 350 349 349 349 351 350 350 348
343 342 341 341 342 341 339 339 339 340 340 342 344 346 348 348 348 349 349 349 349 349 351 351 351 351 352 353 352 351 351 352 351 350 350 349 347 348 349 351 349 347
344 342 341 340 340 341 341 339 339 339 340 339 342 344 347 348 348 348 348 347 348 349 349 350 351 351 352 353 352 352 351 352 353 351 350 350 349 349 349 349 348 348
343 343 341 340 339 340 341 341 340 340 341 338 339 342 344 347 347 347 346 345 346 348 349 349 350 351 351 352 353 352 352 351 352 351 351 351 351 350 350 349 349 348
343 343 341 340 339 340 340 341 341 341 341 340 338 338 340 343 346 346 344 343 344 344 346 348 349 350 350 351 353 353 353 352 352 351 351 351 351 351 356 350 350 349
343 342 342 341 340 340 339 340 340 340 341 342 341 338 338 340 342 344 345 343 343 343 344 346 348 349 350 351 352 353 353 353 352 352 352 351 351 351 351 352 351 350
344 343 343 342 341 340 340 340 339 339 339 340 343 342 340 339 340 341 343 344 344 344 344 345 346 348 349 350 351 351 352 352 352 352 352 351 351 352 352 352 352 352
346 345 344 343 343 342 341 340 340 339 338 338 340 342 342 341 340 341 341 343 343 344 345 346 345 346 348 349 350 350 351 352 352 352 352 351 351 351 352 352 352 353
347 347 346 345 345 343 342 340 339 339 339 338 337 338 342 343 343 342 341 341 341 343 345 346 346 346 347 348 349 350 350 350 351 352 351 351 350 351 350 351 352 353
348 348 347 346 345 344 343 342 341 339 338 338 337 337 337 339 341 342 342 342 341 340 341 344 346 347 345 337 341 350 349 350 351 351 351 351 350 350 350 350 351 351
349 348 348 346 346 345 344 344 342 341 340 338 337 337 336 336 338 338 339 341 342 341 340 341 344 345 337 331 332 336 348 349 349 349 350 350 350 349 349 349 350 351
350 350 349 348 347 346 345 345 344 343 341 339 338 337 337 337 336 336 337 338 340 341 341 341 341 337 331 330 330 330 337 349 348 348 349 349 350 350 350 349 349 350
351 351 350 350 349 348 347 347 345 344 342 341 339 339 338 337 336 336 336 337 337 338 339 341 342 334 330 328 329 329 329 339 348 348 348 349 349 350 350 350 350 349
352 352 351 351 352 351 350 348 347 345 345 344 343 342 339 338 337 337 337 337 337 337 338 340 341 334 327 326 326 327 328 332 345 348 348 348 349 350 351 350 350 349
352 352 352 353 353 353 352 351 349 348 347 346 345 343 341 340 339 338 338 338 338 338 338 339 341 331 325 323 323 324 326 330 343 347 348 348 349 350 350 351 351 351
353 353 353 353 353 353 352 352 351 350 349 349 348 347 345 344 342 342 340 340 340 339 339 339 341 329 324 322 321 321 325 336 341 345 346 348 348 348 349 350 351 351
354 354 354 354 354 353 353 353 352 351 351 351 349 348 347 345 344 343 343 342 341 341 340 340 340 332 323 320 319 320 323 337 341 344 346 347 348 349 349 350 350 350
354 354 354 354 354 353 353 354 354 354 353 353 350 349 347 347 346 345 345 344 343 342 342 341 341 335 322 319 318 318 325 337 341 343 344 346 347 348 349 349 351 359
353 354 354 354 354 354 355 354 354 354 354 353 352 351 349 349 348 346 345 345 345 344 343 341 342 336 322 319 318 317 324 338 341 342 343 344 346 347 348 350 349 356
352 353 353 353 353 354 355 355 355 354 354 353 352 352 350 350 349 347 345 345 346 346 346 344 343 343 338 318 317 316 318 339 343 342 342 343 345 346 346 347 349 349

ECMWFNIL_sfc_thetae_078.txt.gz
Theta_e
344 344 342 342 341 344 347 348 350 350 351 353 353 354 354 356 357 357 357 358 359 359 359 359 360 360 360 361 361 359 359 358 358 358 358 358 358 357 357 357 358 357
344 345 346 343 343 345 345 348 349 350 350 352 353 354 355 355 355 356 356 356 358 359 359 359 359 359 360 359 358 358 357 358 357 359 359 358 358 357 357 358 358 358
345 344 344 342 341 342 342 345 348 350 350 351 352 354 354 355 354 355 356 356 357 357 358 358 358 359 358 358 357 357 357 356 357 358 360 359 359 358 359 358 358 358
345 345 344 344 343 342 342 343 344 347 349 350 351 352 354 354 354 354 354 359 356 357 358 358 358 358 358 357 357 357 357 357 357 359 359 360 360 360 359 359 359 359
345 344 344 345 344 344 343 342 342 343 346 349 350 352 354 354 353 353 353 355 356 356 357 357 357 357 358 357 356 356 356 356 357 358 358 358 359 359 359 359 358 357
346 346 345 345 345 344 341 341 342 342 343 346 348 351 351 352 352 352 352 353 354 355 355 356 356 356 357 357 356 356 356 355 356 356 356 356 357 357 357 358 357 356
345 345 344 345 344 344 342 341 342 344 342 344 347 349 351 351 351 352 352 352 353 355 354 355 355 355 357 357 356 356 355 356 356 355 355 355 356 356 356 357 357 355
346 345 345 344 343 344 343 342 341 342 343 344 343 346 349 350 351 351 352 351 352 353 354 355 355 355 355 357 356 355 355 354 355 355 355 355 355 355 355 355 356 356
346 345 345 343 343 343 343 342 341 341 343 343 343 344 348 349 350 351 351 351 351 351 353 354 354 354 355 356 356 356 355 355 355 355 355 354 354 354 354 355 354 355
346 346 344 343 342 343 342 343 342 341 343 342 342 343 345 348 350 350 351 351 350 351 351 352 353 354 354 355 355 356 355 355 356 355 355 355 355 355 355 355 354 354
345 345 344 343 342 342 342 343 343 341 341 341 341 342 344 346 349 350 350 349 349 349 350 351 352 353 353 353 354 355 355 355 355 355 356 356 356 356 357 356 355 354
344 344 344 343 343 342 342 343 343 342 341 341 341 340 342 344 346 348 349 348 349 349 350 351 352 352 352 353 353 354 355 355 355 355 355 356 356 356 356 357 356 355
344 344 344 343 343 343 343 343 342 343 342 341 342 341 340 340 343 346 348 348 348 348 348 349 350 352 352 352 353 354 355 355 354 355 355 355 355 355 356 356 356 356
344 345 344 344 344 344 343 342 342 342 343 343 343 342 340 340 339 341 344 347 347 347 348 348 348 349 351 352 352 353 353 354 354 355 354 354 355 355 355 355 356 356
346 345 345 345 346 344 343 342 342 342 342 342 343 343 343 342 341 340 340 342 345 346 347 347 346 346 348 349 350 352 353 352 354 354 354 354 354 354 355 355 356 356
347 347 346 346 345 344 344 343 342 342 341 341 341 342 343 344 344 343 341 340 341 342 344 344 346 346 344 336 340 350 351 351 352 353 354 354 354 354 354 354 354 355
348 347 347 346 345 345 345 344 343 342 342 341 340 340 341 342 344 343 342 342 341 341 341 342 343 344 336 330 331 335 348 351 351 352 353 354 354 354 353 354 354 355
348 348 348 347 347 346 346 345 344 343 342 341 340 339 340 340 340 341 342 343 342 342 342 342 342 336 329 329 330 329 336 350 351 350 351 352 353 353 353 354 354 353
349 348 348 348 348 347 347 346 345 344 343 342 340 341 340 340 339 339 339 340 341 342 341 343 343 333 327 327 328 328 328 339 349 350 350 351 352 352 352 353 353 354
349 349 348 349 349 349 348 347 346 345 344 344 343 343 341 339 339 338 338 339 339 339 340 341 342 333 326 324 324 325 327 331 346 348 349 350 350 351 352 353 353 352
348 348 348 349 349 349 348 347 347 346 346 345 345 343 342 341 339 339 338 339 338 338 338 338 339 330 324 322 321 321 324 329 343 346 348 349 350 351 351 352 353 353
347 347 349 350 350 350 349 348 348 347 346 347 347 345 345 344 343 342 340 339 339 339 338 338 339 326 322 321 320 320 322 335 341 343 345 347 348 350 351 352 353 353
349 349 350 350 351 350 350 349 349 349 349 349 347 347 345 345 344 343 343 341 341 340 339 338 339 331 321 318 318 318 321 336 340 342 344 345 346 349 350 351 352 353
352 351 351 352 352 351 351 351 352 352 351 352 349 348 347 347 346 346 345 345 343 341 341 340 339 333 320 317 316 317 324 337 339 341 342 344 346 348 350 351 352 357
354 353 353 353 353 353 353 353 353 353 354 354 352 351 350 350 350 348 347 347 345 344 342 341 342 336 321 317 316 315 323 337 340 341 341 343 344 346 349 350 351 355
354 355 355 354 354 354 355 355 356 355 355 355 354 354 352 352 351 351 349 349 348 347 346 344 344 344 339 318 315 314 316 337 341 341 340 341 343 344 345 348 350 351

ECMWFNIL_sfc_thetae_081.txt.gz
Theta_e
356 356 354 353 354 355 358 359 358 360 363 361 362 364 365 368 370 369 368 369 369 368 370 371 372 371 370 371 372 371 371 370 369 368 369 367 366 363 360 361 364 363
356 356 357 355 356 358 359 359 361 362 363 365 364 365 368 369 368 368 368 368 369 367 370 369 371 371 371 368 371 368 370 370 369 367 368 368 367 365 362 363 363 365
355 355 354 353 351 353 351 357 361 362 361 362 364 366 366 367 367 368 369 368 367 365 368 369 369 371 369 370 371 368 365 370 367 364 369 368 367 365 365 362 363 365
356 355 353 352 352 353 353 356 358 360 360 362 361 362 364 362 365 366 367 367 367 367 368 368 367 367 369 370 371 367 367 368 366 369 368 369 369 366 366 366 364 364
355 355 354 354 354 355 355 354 352 355 357 359 360 363 364 365 365 363 365 365 367 366 367 367 368 367 369 369 370 367 366 365 367 370 367 367 369 368 365 366 366 363
356 357 356 355 355 355 353 352 353 353 355 355 358 360 361 363 363 362 363 363 363 363 362 364 365 365 366 368 368 367 365 362 363 368 366 366 364 365 362 365 367 364
354 355 354 354 354 354 353 353 353 354 353 354 359 358 360 360 361 363 364 363 362 363 362 364 366 365 366 367 368 367 367 367 366 368 366 365 366 366 364 366 367 365
354 354 354 354 353 353 353 352 353 353 354 355 354 357 359 358 361 361 363 362 361 363 364 364 366 367 365 365 366 366 366 363 364 367 367 365 366 365 366 365 366 365
354 354 354 354 352 352 351 351 351 352 354 353 351 352 357 357 358 358 362 363 361 362 365 364 366 365 364 364 365 365 365 363 362 364 364 363 363 364 363 365 364 364
354 354 353 352 351 351 351 351 351 351 353 351 351 350 352 356 357 358 361 363 360 362 363 363 364 363 363 364 364 365 364 365 365 365 364 363 362 362 362 364 362 363
353 353 352 352 351 351 351 351 351 351 352 351 350 350 351 353 356 358 360 361 357 359 361 362 362 363 363 361 362 364 364 363 364 365 365 364 364 364 363 364 364 362
352 352 351 352 351 351 351 351 351 351 351 351 351 350 351 351 353 354 356 358 358 358 360 361 363 363 363 362 361 362 363 363 363 364 363 364 364 363 364 365 363 364
351 352 352 352 352 352 351 352 351 351 350 350 351 350 350 350 350 353 355 356 358 358 358 360 362 361 363 364 363 363 364 363 361 362 362 363 364 362 362 363 363 363
351 352 353 353 353 355 353 352 351 351 351 351 351 350 349 349 349 350 354 355 356 357 358 360 362 361 363 364 363 362 362 362 362 361 360 361 362 362 361 360 361 362
353 353 354 354 355 356 354 353 352 352 352 352 352 350 349 349 349 349 351 353 354 356 357 358 357 357 359 361 361 362 362 360 361 361 360 360 361 360 361 361 361 361
355 355 355 355 355 356 356 355 352 352 351 351 351 351 351 351 351 350 349 351 352 355 356 355 355 356 353 341 346 360 361 358 360 362 361 360 361 360 358 360 360 359
356 356 356 355 356 357 356 355 353 352 352 352 352 352 352 353 351 349 348 348 349 351 352 352 353 352 339 333 333 338 356 361 360 361 362 361 359 360 359 358 359 361
354 355 356 356 356 356 356 356 354 353 352 352 351 351 353 352 350 349 350 348 347 348 348 350 352 342 331 330 331 330 338 357 357 357 356 358 358 356 358 358 358 358
355 355 356 355 356 356 357 356 355 353 352 351 349 350 351 351 351 350 350 350 348 348 347 347 349 336 329 327 328 328 328 341 353 355 353 354 356 358 357 359 360 359
357 356 355 356 357 357 357 356 355 354 352 351 350 351 351 350 349 350 351 352 351 350 350 349 349 336 326 325 325 325 327 332 351 351 353 353 355 356 356 357 360 360
357 356 356 357 358 357 357 356 355 354 353 352 351 350 350 350 348 348 349 351 350 350 350 349 348 332 324 322 321 322 324 329 349 351 352 354 356 357 358 357 359 360
354 353 355 357 354 357 356 356 355 356 355 354 353 351 351 351 351 350 349 349 349 348 347 347 348 329 323 321 319 320 323 339 348 352 352 352 355 357 357 359 359 359
355 353 353 353 354 353 353 354 356 356 356 357 354 352 351 350 351 349 351 349 348 348 347 347 347 335 321 318 318 318 323 343 348 350 352 352 353 355 357 358 359 359
354 353 352 352 353 353 353 355 356 356 357 357 354 353 351 352 352 351 351 351 349 348 347 347 347 338 319 316 315 316 326 345 349 350 351 352 352 355 356 357 358 355
353 354 354 353 353 352 351 352 354 355 358 359 357 355 354 355 354 353 352 352 351 350 344 345 348 340 320 316 314 314 326 346 349 349 349 350 350 351 355 355 356 355
351 352 354 354 354 355 354 352 353 356 354 352 352 355 354 357 354 354 353 353 353 352 351 349 348 350 346 315 314 312 316 344 350 348 347 348 350 349 350 354 354 356

ECMWFNIL_sfc_thetae_084.txt.gz
Theta_e
361 362 360 360 359 358 358 358 356 357 359 357 357 360 359 364 366 366 367 368 367 366 369 372 372 371 370 373 376 372 371 371 368 368 371 369 366 363 361 362 364 361
361 363 362 361 360 360 360 359 360 358 359 361 359 360 364 365 365 366 366 365 368 366 369 369 370 371 371 370 371 369 370 370 368 365 368 368 368 365 362 364 364 367
361 361 361 360 357 359 357 359 361 360 358 359 359 361 362 364 365 366 366 365 364 361 365 367 368 369 368 369 371 369 367 369 368 365 368 369 367 366 367 363 363 364
363 361 359 358 357 358 359 358 359 361 359 357 357 357 358 357 360 362 365 366 364 363 363 365 364 364 366 367 369 367 367 368 367 367 368 369 368 367 368 367 364 365
362 361 359 359 358 359 360 358 356 357 357 355 357 360 360 362 363 361 362 364 366 364 364 364 365 364 365 367 368 366 364 363 366 368 367 366 369 368 365 367 367 364
363 363 362 360 360 360 357 358 357 356 357 353 356 357 359 363 362 359 359 360 359 358 357 360 361 361 362 365 366 366 363 360 361 366 364 365 364 366 362 366 366 364
361 362 360 360 359 359 358 359 359 359 355 355 357 357 358 359 361 360 361 360 357 358 356 359 362 360 361 364 366 366 365 365 365 366 366 363 364 363 364 364 364 364
361 361 362 361 358 358 358 358 358 358 358 358 355 358 358 356 359 358 360 360 357 358 360 358 362 366 360 360 363 363 364 361 363 365 367 364 363 363 363 361 363 364
361 361 362 360 358 356 355 355 356 357 359 358 355 354 359 358 355 356 358 362 360 359 362 361 364 362 361 360 361 363 363 361 358 361 363 362 361 362 362 363 361 362
361 360 359 359 356 355 354 354 352 355 358 357 356 352 352 358 357 356 358 362 363 361 362 364 362 362 360 360 362 363 363 363 363 363 363 362 360 360 360 360 359 360
359 358 358 358 356 354 354 354 353 351 354 356 355 353 351 353 358 358 358 361 361 360 361 363 361 362 363 359 359 361 362 360 362 364 364 364 363 363 362 363 361 360
358 358 357 357 357 355 354 354 353 352 352 354 356 354 353 350 354 357 356 359 362 361 359 362 363 363 364 362 358 358 359 359 359 362 362 364 364 362 363 363 362 362
357 357 357 357 357 357 355 355 354 352 352 351 355 355 352 350 350 356 358 357 361 361 357 359 362 362 364 365 362 359 360 361 357 357 359 359 360 358 356 357 358 358
357 357 358 359 359 361 359 356 355 354 354 354 355 356 353 351 350 350 355 357 358 359 359 359 361 363 365 366 365 360 359 360 360 356 355 357 357 357 355 352 353 353
359 358 359 360 361 362 361 359 357 357 357 357 357 356 354 353 352 350 351 354 356 356 358 357 354 358 361 363 364 363 360 357 359 358 355 354 355 355 356 357 354 351
361 362 360 362 362 362 363 362 359 358 357 357 357 357 358 358 357 355 352 351 353 356 357 355 354 353 356 346 352 362 361 355 355 358 359 356 356 356 354 353 354 354
359 361 361 361 363 364 364 364 362 359 359 360 359 359 360 361 358 356 354 351 351 353 354 354 352 350 343 335 337 342 359 361 359 359 362 362 358 358 359 355 353 353
359 362 361 361 362 364 365 366 363 361 361 361 359 358 361 359 357 357 357 355 352 352 352 353 354 345 333 332 334 334 343 357 354 356 356 357 360 357 356 357 357 352
361 362 361 360 363 364 365 366 364 362 360 359 358 360 360 361 361 358 358 357 355 355 353 353 353 340 330 329 331 331 332 345 351 350 351 353 355 359 359 359 358 356
360 361 362 362 363 364 364 363 362 361 360 358 357 359 360 359 359 360 359 360 359 357 357 355 355 343 328 326 327 327 329 336 355 351 349 350 353 354 355 358 360 360
358 359 360 362 363 363 363 363 362 361 360 358 355 355 356 358 358 359 359 360 359 357 357 355 354 337 326 322 322 323 326 332 354 353 352 352 352 355 357 357 359 359
357 357 359 360 361 362 362 362 362 361 360 360 359 355 356 357 358 358 357 358 358 358 357 356 357 333 325 321 320 321 324 344 353 354 353 352 352 354 356 359 360 360
360 359 361 360 361 360 360 361 360 360 361 362 359 357 355 354 356 357 359 357 357 358 357 357 357 341 323 319 318 318 325 349 352 352 353 353 353 354 355 357 359 362
356 356 357 357 359 358 358 359 361 361 362 362 359 357 355 355 356 356 358 357 355 356 356 356 357 347 323 317 316 317 329 350 353 352 353 353 354 355 355 356 358 356
356 357 356 355 356 357 358 358 359 360 361 361 360 359 359 360 358 356 356 357 355 355 351 353 356 348 324 318 316 315 329 352 352 353 352 353 353 354 356 356 357 356
354 355 357 357 357 357 358 359 360 360 360 360 361 359 358 359 359 359 358 357 355 354 354 355 356 358 358 316 315 313 317 350 354 352 351 352 354 353 354 356 357 359

ECMWFNIL_sfc_thetae_087.txt.gz
Theta_e
359 359 358 358 357 355 355 354 354 357 359 359 358 359 360 363 367 365 365 366 366 366 370 376 371 371 369 373 374 368 369 362 365 367 364 365 363 361 359 360 362 361
360 360 361 359 358 358 357 356 356 355 358 361 358 360 362 365 362 366 367 366 366 364 368 369 372 373 372 367 368 369 371 368 366 362 365 367 365 361 360 362 362 364
360 359 359 357 354 357 354 356 358 356 355 356 359 362 360 361 365 364 365 365 365 362 364 368 369 370 370 369 373 368 364 370 366 357 369 368 365 362 364 358 357 361
362 360 358 356 354 354 354 354 355 358 356 354 355 356 358 357 362 363 364 365 363 363 363 364 363 363 366 368 372 369 365 367 366 368 365 369 368 364 363 361 360 360
362 360 358 358 355 356 356 354 352 354 354 353 354 356 357 360 361 360 363 363 365 362 363 363 363 363 364 366 367 366 365 366 365 367 366 367 367 366 364 363 364 361
364 363 362 359 357 355 352 352 353 351 353 350 352 352 354 357 359 360 360 360 359 358 357 358 360 360 360 363 365 365 362 359 361 366 365 364 363 363 358 362 364 362
362 363 360 358 356 355 355 354 354 355 351 351 353 352 353 354 358 360 361 359 358 359 356 358 361 359 360 361 364 364 364 363 364 362 362 362 363 363 359 362 367 365
360 360 361 359 355 354 355 353 354 354 354 352 349 352 353 351 357 357 359 358 358 358 359 356 359 362 357 358 360 361 362 359 359 363 365 364 363 362 360 361 363 363
359 360 360 358 354 351 351 350 352 354 355 353 349 349 353 353 352 354 357 359 359 359 360 358 361 360 360 359 359 360 361 360 357 359 360 359 358 360 359 361 359 360
359 357 357 356 352 351 350 349 348 350 355 354 351 348 347 353 353 353 354 359 358 358 359 360 359 359 360 359 358 359 360 362 361 360 358 358 357 357 357 357 357 358
358 356 355 355 354 351 350 348 346 346 349 352 351 348 346 349 353 354 356 357 355 358 359 360 360 361 361 358 358 359 360 359 360 361 360 360 359 359 358 358 357 356
357 356 354 355 353 352 350 349 348 345 345 349 351 349 347 345 349 351 351 355 358 358 359 359 361 362 362 361 357 357 357 358 358 359 358 360 360 358 358 359 357 358
357 357 355 354 354 353 351 350 348 346 345 345 349 350 348 345 345 349 352 352 356 358 357 359 359 359 363 363 361 360 357 358 355 356 356 357 357 356 355 355 356 356
358 357 357 357 356 359 355 350 349 349 347 347 348 349 347 346 344 344 349 352 353 355 357 358 359 359 362 363 363 361 357 356 356 356 354 355 354 354 353 350 350 351
359 359 358 359 359 363 359 354 350 351 351 350 350 348 347 347 345 343 346 348 351 354 356 354 351 354 357 360 361 362 360 354 355 357 356 352 352 351 352 352 349 348
364 366 362 363 362 364 365 360 355 353 350 350 351 349 352 352 350 346 344 345 348 351 354 352 349 348 354 348 354 360 360 354 353 357 359 356 353 352 349 349 348 347
362 364 364 366 366 364 364 366 361 357 355 358 356 354 356 360 354 349 346 345 345 348 350 349 347 346 343 336 338 346 359 359 356 356 359 358 354 356 353 349 348 347
360 363 363 364 367 366 366 366 364 361 360 360 356 355 360 355 353 353 354 348 346 346 346 346 347 345 332 333 335 336 347 359 354 353 352 352 355 354 353 353 351 348
362 361 362 363 365 367 367 367 367 364 361 357 355 356 357 360 361 356 356 355 351 352 347 347 347 339 329 330 333 333 335 348 349 347 348 348 351 354 356 356 355 352
356 361 362 363 364 366 368 368 364 365 361 358 357 359 359 358 358 359 358 362 359 356 357 352 350 342 326 327 329 330 332 340 354 347 343 343 349 347 349 352 357 358
355 354 359 364 362 357 362 365 367 365 362 359 357 357 358 359 358 360 360 361 359 359 358 354 352 337 325 324 325 326 329 336 357 353 350 348 345 348 353 349 356 356
355 354 355 354 357 355 355 355 358 365 362 361 360 357 358 359 361 360 359 359 360 360 359 358 356 335 324 322 321 323 327 348 358 358 355 353 353 352 351 355 354 354
352 354 354 353 355 354 353 353 355 355 363 363 358 358 357 357 358 358 361 359 360 361 359 359 359 343 323 319 318 320 328 353 357 357 357 356 356 357 357 356 353 356
348 351 353 355 356 352 352 354 356 358 359 362 361 359 358 357 358 359 360 361 360 359 359 359 359 349 322 318 316 317 333 354 358 356 356 357 357 358 359 359 359 356
347 351 352 353 354 354 353 352 351 353 357 356 355 357 360 361 360 360 358 360 358 359 359 358 359 350 322 319 316 315 331 357 357 356 355 355 356 357 359 359 359 358
345 350 352 351 351 353 356 356 356 358 358 359 360 360 360 361 361 361 358 356 357 358 358 358 358 360 353 317 316 314 319 355 358 356 355 355 357 357 358 359 360 361

ECMWFNIL_sfc_thetae_090.txt.gz
Theta_e
361 362 361 360 360 361 361 360 357 358 363 359 359 362 367 367 368 365 365 367 368 370 372 373 373 372 368 371 370 369 369 368 373 367 368 368 369 359 359 357 361 368
361 362 363 360 364 364 364 361 361 362 363 368 362 365 365 368 366 366 366 365 367 367 373 369 371 372 371 370 371 368 368 367 366 363 366 365 367 363 360 361 359 368
359 360 358 357 354 356 352 356 361 360 359 358 361 366 362 363 364 369 368 366 363 361 368 370 370 371 370 372 372 371 366 367 365 361 368 369 368 364 367 358 359 359
359 357 354 354 356 355 353 355 359 360 358 359 358 356 358 357 363 362 368 368 367 366 364 365 365 366 369 369 370 369 368 370 370 369 368 372 372 367 367 368 366 360
357 357 357 356 356 358 356 354 352 353 353 356 355 361 366 366 363 361 364 365 368 364 366 366 367 365 368 369 369 364 365 367 368 371 369 370 373 370 365 368 368 363
361 361 361 358 358 358 354 352 353 353 353 352 354 356 356 361 362 360 361 360 360 359 358 359 362 361 362 367 366 364 362 361 363 368 365 366 363 363 362 362 365 364
359 359 357 356 354 355 355 353 353 354 352 351 356 355 355 355 359 361 362 362 358 360 356 360 363 362 362 364 365 367 367 366 364 367 365 365 366 365 359 362 364 364
359 358 357 357 354 352 353 352 352 353 355 354 351 355 354 352 357 356 360 360 359 359 360 360 363 366 358 360 363 364 363 359 363 366 366 365 365 364 363 360 365 365
359 358 358 356 353 351 349 349 351 351 354 352 348 349 353 353 355 354 361 362 359 361 361 360 364 361 359 359 360 364 362 358 356 362 363 362 362 364 362 362 361 362
355 358 357 355 352 350 349 348 349 350 352 351 349 348 348 352 354 355 359 363 361 364 362 360 363 359 358 359 363 363 361 362 366 363 360 361 360 360 359 360 359 361
349 352 354 355 352 349 349 349 349 350 351 350 348 345 347 349 353 357 358 359 355 359 361 360 361 360 361 357 358 360 361 359 361 364 365 363 361 362 363 362 360 358
353 351 351 352 353 351 348 348 348 348 350 350 349 347 348 348 350 351 355 357 356 357 359 360 361 361 362 361 357 356 359 358 361 362 360 362 362 362 362 362 359 360
352 348 348 350 351 351 349 348 346 345 346 349 350 349 346 344 347 350 352 355 356 357 357 360 361 361 363 364 362 361 359 358 357 360 359 360 359 358 357 358 358 358
353 355 355 353 351 354 352 348 347 345 345 347 350 349 346 344 344 347 350 351 355 355 357 361 362 360 364 365 363 361 359 360 358 357 356 357 357 358 356 355 356 356
356 356 356 355 353 357 356 353 349 349 348 348 350 347 345 345 343 344 348 348 350 354 356 357 357 357 358 361 362 361 360 356 357 357 356 356 356 354 355 356 354 353
356 355 354 356 353 351 357 359 355 351 347 347 348 348 349 351 350 347 346 348 348 352 354 353 354 355 355 348 353 359 359 355 355 356 355 356 357 356 353 353 350 349
355 355 355 354 356 356 354 353 356 353 353 359 358 352 351 355 352 348 344 344 347 347 350 349 350 350 344 336 340 347 359 360 357 358 358 358 357 357 354 350 350 350
357 357 357 357 355 355 357 353 354 351 354 360 361 354 367 359 350 350 350 345 344 347 347 348 349 346 333 333 335 337 347 360 358 356 355 356 357 355 355 352 350 348
356 355 356 357 357 358 356 355 356 355 353 349 351 353 355 359 362 355 353 353 348 349 345 347 349 341 329 330 332 333 336 350 356 356 352 350 353 355 355 355 353 351
356 356 355 356 358 356 354 353 352 354 353 354 352 352 352 355 354 354 357 357 354 354 357 351 349 343 327 326 328 330 332 340 355 353 352 350 351 353 354 355 357 356
352 354 355 355 357 357 354 353 353 353 353 355 354 354 351 351 351 355 355 358 356 355 354 353 348 336 325 323 323 325 329 336 355 351 348 348 350 353 355 353 356 356
347 349 351 353 355 356 355 354 354 354 354 358 357 356 355 357 356 352 353 357 358 357 354 353 352 334 322 321 321 323 327 343 352 354 350 348 347 348 349 353 355 357
346 348 349 350 352 354 354 355 355 355 357 359 357 357 355 353 355 352 355 350 350 354 355 356 356 344 323 317 318 320 326 346 352 353 353 352 350 351 353 352 350 350
344 346 349 350 350 349 352 355 357 357 357 360 359 357 355 353 352 353 354 354 351 350 351 353 356 350 325 315 315 317 329 346 351 354 354 355 354 355 357 357 358 359
344 346 347 347 348 349 349 351 353 353 355 357 358 357 356 357 356 352 352 353 354 354 352 350 352 350 328 316 315 315 327 347 352 353 353 354 355 355 358 358 359 360
345 345 345 345 346 348 350 352 353 353 352 352 355 358 355 355 357 356 353 353 356 355 353 352 352 355 351 316 314 313 318 347 355 354 352 353 355 355 356 358 358 359

ECMWFNIL_sfc_thetae_093.txt.gz
Theta_e
357 356 355 354 355 355 355 355 357 356 356 357 360 358 357 358 358 357 360 364 361 364 365 365 365 363 365 363 362 363 363 361 359 363 362 362 362 361 361 358 357 355
356 358 359 357 357 358 356 356 355 355 355 355 357 358 362 360 360 360 359 362 364 366 366 367 365 363 364 363 363 362 360 357 358 365 360 362 361 359 360 359 357 361
354 356 356 354 356 355 357 356 355 356 356 358 356 358 358 362 362 360 360 361 362 365 366 366 365 364 364 364 362 363 360 357 357 359 360 362 363 360 361 358 358 357
353 354 355 354 354 354 353 353 355 355 355 356 356 360 357 359 360 362 361 366 359 363 365 364 364 365 364 365 363 361 361 359 360 359 359 363 364 361 359 361 362 361
353 353 353 353 352 353 351 350 353 353 353 353 356 355 357 356 358 358 362 361 358 361 362 362 361 362 364 363 361 359 361 361 361 361 359 360 363 362 361 360 357 357
353 353 352 352 352 352 350 349 349 351 351 352 353 355 355 358 357 356 361 360 360 360 359 360 360 361 364 363 361 359 359 361 361 361 360 360 362 363 363 360 357 356
353 353 352 352 352 353 350 349 349 351 349 350 353 352 353 358 356 355 358 358 358 358 356 357 359 358 361 363 360 358 356 359 358 359 358 358 358 357 359 357 356 355
354 354 354 353 352 351 351 349 349 350 349 349 350 351 351 352 356 357 357 357 356 355 355 355 357 356 358 360 360 358 357 360 359 358 358 357 357 356 357 357 356 354
355 355 354 353 352 350 351 350 349 348 351 349 348 349 351 351 352 354 356 356 356 355 354 354 356 356 356 357 358 358 357 358 359 358 359 357 357 356 356 355 355 355
349 355 355 354 352 350 348 349 349 348 350 349 348 347 348 350 351 351 354 356 355 354 354 353 355 356 356 355 356 357 357 356 354 357 358 358 357 357 358 356 353 352
350 349 350 352 352 351 349 347 347 347 347 347 347 346 346 347 351 351 350 355 355 355 355 352 354 356 354 353 355 357 357 356 355 357 356 356 356 357 362 356 354 353
353 349 350 351 351 351 346 343 346 346 346 347 347 346 344 345 347 350 351 352 354 353 356 354 353 355 353 352 352 354 357 356 355 355 357 356 356 356 356 356 354 353
351 348 351 351 351 350 348 346 345 346 344 347 347 346 344 343 344 347 351 352 352 352 353 355 353 355 354 353 352 351 352 354 354 354 354 355 356 356 356 356 355 355
352 353 352 352 353 352 351 350 348 347 346 347 347 346 345 343 343 344 347 352 352 351 351 354 354 353 353 355 355 354 353 351 351 352 354 354 353 353 354 354 353 353
353 353 354 356 354 351 351 351 350 348 348 348 346 346 347 345 343 344 344 349 351 351 351 352 354 354 354 355 355 354 355 354 351 351 352 352 352 352 352 352 352 353
355 355 355 354 352 351 350 351 351 350 348 346 346 345 345 346 344 341 344 345 348 350 350 351 353 355 355 348 352 356 354 354 354 352 351 351 351 351 351 351 352 351
354 353 353 352 353 352 351 351 351 352 348 347 346 346 348 345 344 342 341 344 344 347 349 349 351 353 346 337 339 346 356 354 352 350 351 350 350 350 349 349 350 350
355 354 354 353 354 354 354 353 353 353 349 348 347 346 347 351 348 342 341 342 344 344 346 349 349 347 336 334 335 335 346 356 354 352 351 349 349 349 350 349 348 347
354 355 355 354 353 354 354 354 353 353 352 350 347 347 348 347 349 350 346 341 342 342 343 347 348 340 333 330 332 332 334 347 354 353 351 350 349 349 349 349 348 347
350 353 353 353 355 354 353 353 352 352 354 354 354 353 349 348 349 348 349 350 348 344 343 344 346 341 330 327 327 328 331 337 352 353 352 351 349 349 350 349 349 348
347 348 349 351 354 354 352 351 351 352 353 354 353 352 351 349 349 348 349 350 351 353 350 347 348 338 328 325 323 323 327 333 349 352 352 351 350 349 348 349 349 350
345 347 350 350 352 352 352 352 352 351 351 354 354 354 354 354 353 352 349 349 350 350 350 350 353 338 328 323 321 321 325 337 346 349 350 349 349 348 347 347 349 349
343 345 347 348 349 348 348 351 353 353 353 355 353 353 353 353 352 351 351 352 351 351 349 349 350 341 333 321 316 318 321 335 342 346 348 348 346 345 344 345 347 348
343 344 344 346 347 347 347 348 351 354 354 356 354 352 352 353 353 352 352 352 351 351 351 349 349 344 329 323 319 313 321 332 338 342 345 347 347 345 344 343 345 355
342 343 343 344 346 346 346 347 349 350 351 351 351 352 352 353 354 351 351 351 352 352 354 351 350 344 332 326 323 320 322 330 335 339 341 344 345 346 346 347 347 354
338 338 342 344 344 344 342 346 348 349 349 350 350 351 352 353 353 352 353 352 353 353 353 353 352 352 348 326 314 312 313 329 337 341 341 342 344 345 346 347 348 349

ECMWFNIL_sfc_thetae_096.txt.gz
Theta_e
352 353 350 351 351 354 352 352 352 353 353 355 355 355 355 357 359 358 360 360 360 359 359 361 362 359 362 359 359 358 361 356 355 357 356 356 357 358 359 357 355 353
353 353 355 352 354 355 354 354 354 353 353 353 357 356 356 357 357 357 358 359 361 359 361 362 362 359 359 359 358 358 357 355 355 364 356 356 356 356 357 356 354 354
353 353 355 350 352 353 354 354 355 354 354 354 356 357 358 359 357 356 358 359 359 360 361 362 361 360 361 359 359 358 357 353 352 355 357 355 357 357 357 357 354 353
352 353 354 353 353 353 353 353 353 354 354 354 354 357 358 360 358 356 357 364 359 360 362 363 362 362 361 360 359 358 357 354 354 355 355 356 359 357 357 355 358 358
352 353 353 353 353 354 353 353 352 352 353 354 355 355 356 356 358 358 356 359 358 360 361 362 362 361 361 361 359 358 358 356 356 356 354 353 356 359 360 357 354 353
352 352 353 352 352 352 351 352 352 352 353 352 354 355 355 354 356 358 357 358 357 359 360 362 361 361 361 361 360 359 359 359 358 356 356 354 356 360 363 359 355 352
351 351 351 352 351 351 350 349 350 353 352 352 353 353 354 353 353 356 358 358 357 358 359 359 359 358 360 360 359 357 356 357 356 356 357 357 356 357 358 356 354 352
351 351 351 351 350 350 350 348 348 350 351 351 350 351 351 354 353 354 358 358 357 356 357 358 358 358 359 360 358 356 355 357 356 354 354 355 353 354 355 356 353 351
351 351 351 350 350 350 350 349 348 348 349 349 349 350 351 351 354 354 354 357 357 356 355 355 356 357 357 358 359 357 355 355 356 354 354 354 354 354 354 353 352 351
350 351 351 350 350 349 349 350 349 348 349 348 348 349 349 350 352 354 354 354 355 354 353 353 353 355 355 356 357 357 356 354 354 354 354 355 355 355 355 354 353 351
349 347 349 350 350 350 349 349 349 349 348 348 347 346 348 349 349 352 353 353 354 353 353 352 352 353 354 354 355 357 357 356 355 353 354 355 356 355 360 355 354 352
351 349 348 347 348 349 349 348 349 348 347 348 347 346 345 347 348 349 352 353 353 353 353 353 352 352 353 353 353 355 355 355 355 354 354 354 354 355 355 355 355 354
350 348 348 349 350 346 346 345 345 344 345 345 347 347 345 344 346 348 349 351 353 353 353 353 352 352 352 353 352 352 354 354 354 353 353 354 354 354 354 354 355 354
350 349 348 349 349 347 347 347 346 345 345 344 345 344 344 344 343 346 347 348 350 352 353 354 353 351 351 352 352 350 351 353 353 353 352 352 353 354 354 354 354 354
350 349 349 348 349 347 347 347 348 346 345 345 346 345 346 344 343 343 345 347 348 349 351 353 353 352 352 352 351 350 349 349 350 352 352 351 350 351 352 353 353 354
349 350 350 349 349 347 347 347 348 348 347 345 343 343 344 345 344 342 342 345 347 347 348 350 351 353 353 345 349 352 350 350 350 349 349 349 350 349 350 350 351 351
350 350 350 349 349 349 349 348 347 348 347 346 344 343 343 344 347 343 340 341 344 347 347 348 349 351 344 335 338 343 353 350 350 350 349 348 348 348 348 349 350 350
351 351 350 349 350 349 349 349 349 348 347 346 345 343 343 344 345 344 342 340 341 344 346 348 348 346 336 333 334 334 344 352 350 350 350 348 348 348 348 348 348 349
351 351 350 349 350 350 350 350 349 348 348 348 347 346 344 342 343 348 346 341 340 340 342 346 347 340 333 331 332 331 332 345 351 350 349 349 348 348 347 347 347 348
348 350 350 351 352 352 351 350 349 348 349 350 350 350 347 344 344 345 346 347 345 341 340 342 344 341 330 328 328 329 330 335 350 351 351 350 350 349 349 348 347 347
344 348 350 351 352 352 350 349 349 349 350 350 350 350 348 346 346 345 345 348 349 350 347 344 344 338 329 324 323 324 327 331 346 350 351 351 351 350 349 349 348 348
343 345 346 348 349 349 349 350 350 348 348 349 351 350 350 350 349 349 348 347 348 348 348 347 349 327 325 322 321 320 323 332 336 340 345 348 349 350 350 349 349 348
343 343 343 344 345 346 346 347 348 350 350 352 350 350 350 350 349 350 348 349 349 348 347 346 348 333 323 316 315 317 323 330 333 336 339 342 345 347 348 348 348 348
341 341 342 343 343 342 343 343 346 348 349 352 351 351 349 350 351 350 351 350 349 349 349 347 348 335 324 319 316 317 327 331 332 335 336 338 340 343 345 345 346 354
339 338 338 340 342 341 340 342 342 345 349 350 348 348 349 350 353 351 351 350 351 351 354 350 349 339 318 318 316 313 325 333 333 335 335 336 338 339 341 343 344 350
335 337 336 336 337 341 337 338 342 344 344 345 347 349 349 350 351 351 351 350 352 351 352 351 349 349 330 314 314 312 319 336 336 337 338 337 338 338 339 340 342 343

ECMWFNIL_sfc_thetae_099.txt.gz
Theta_e
351 352 350 350 349 350 349 349 349 351 352 352 351 352 353 355 357 357 359 359 358 357 356 356 357 356 359 356 357 355 357 354 353 353 353 353 352 354 357 355 353 351
350 352 354 351 351 353 351 350 350 351 352 352 352 353 354 355 357 358 357 358 358 358 356 357 358 356 356 356 355 355 355 354 353 360 354 352 351 353 354 353 353 351
351 351 351 349 350 351 352 351 351 351 352 353 354 354 355 357 356 356 357 357 357 358 357 357 358 357 356 355 355 355 356 352 353 352 353 351 351 352 352 354 352 352
352 351 352 350 351 351 352 351 351 351 352 352 353 356 356 357 356 355 355 362 357 357 357 358 359 358 357 356 355 354 354 353 352 350 351 353 354 354 353 352 356 354
351 351 352 351 351 352 352 351 352 352 351 352 353 355 357 356 355 354 354 355 356 356 357 358 358 358 358 357 355 354 354 353 352 351 350 350 350 354 355 355 352 351
351 352 352 352 351 351 351 351 351 352 352 352 352 354 355 355 356 355 354 354 356 357 357 358 358 358 358 357 356 354 355 355 354 352 352 351 351 353 359 356 353 350
350 350 351 352 351 351 351 351 350 352 352 353 353 352 353 353 353 355 355 354 355 356 357 358 358 357 358 358 357 355 354 354 352 352 353 353 351 352 354 354 352 350
351 350 351 351 350 350 351 350 350 351 351 351 351 352 352 353 352 353 356 355 355 355 356 357 358 357 358 358 357 355 355 356 355 353 352 352 349 350 351 353 351 348
351 350 350 350 350 349 349 349 349 349 351 350 350 350 351 352 352 352 354 355 355 355 355 356 357 357 357 357 357 356 355 355 355 353 352 352 351 351 352 351 349 350
349 349 349 349 349 349 348 349 349 348 349 349 350 349 349 350 351 352 352 354 355 354 354 354 355 356 356 356 357 356 355 354 353 353 352 352 352 352 352 352 352 350
349 349 349 349 349 349 349 349 349 348 347 347 348 347 348 348 349 351 351 351 354 354 353 353 353 354 354 355 356 356 356 355 354 353 352 352 352 352 358 353 352 352
349 349 349 348 349 349 349 349 349 349 347 347 347 346 346 347 347 348 351 350 352 353 353 353 353 352 353 354 354 355 355 356 355 354 353 352 352 353 353 354 353 352
348 348 349 349 349 349 348 348 348 348 348 347 347 347 345 345 345 346 349 350 351 352 352 353 352 352 352 352 352 353 353 354 354 353 353 352 352 352 353 353 354 353
347 349 348 348 350 348 347 346 345 344 345 346 347 346 346 345 344 345 345 349 350 351 352 353 352 351 351 351 351 351 352 352 352 352 352 351 351 352 352 352 352 353
346 346 346 346 348 346 346 345 345 343 342 342 343 345 346 345 345 344 344 345 347 350 351 352 352 351 351 351 350 350 350 350 351 351 351 350 350 350 351 351 352 352
347 348 347 346 344 343 344 345 346 346 345 343 341 341 342 344 343 342 342 343 344 346 348 350 352 352 353 344 348 352 350 350 350 350 350 350 350 349 349 349 350 351
346 347 347 346 345 345 344 344 345 346 346 344 343 342 341 341 344 341 341 341 342 344 344 346 349 352 344 336 336 340 352 349 348 348 348 349 349 348 347 348 348 349
348 348 347 347 347 346 346 345 345 345 345 345 344 344 343 342 342 342 342 340 340 341 343 345 346 345 335 333 334 333 342 351 349 348 348 346 346 346 346 347 346 347
349 349 348 347 347 346 346 346 345 345 345 344 344 345 344 342 341 341 342 342 340 338 339 343 345 339 332 330 331 331 332 342 350 349 348 347 347 346 346 346 346 346
345 347 348 348 348 348 348 348 347 346 346 347 348 348 345 343 342 341 342 343 343 340 339 339 341 340 330 328 327 328 329 333 347 349 348 348 347 347 348 347 347 346
343 343 345 346 348 350 350 347 345 345 346 347 348 347 346 346 345 343 342 343 344 347 345 344 344 334 328 325 323 323 326 330 340 345 347 347 348 348 347 347 347 347
341 342 343 342 341 342 341 341 343 345 344 345 349 348 348 348 347 346 346 346 346 346 346 345 346 326 327 325 321 321 324 334 336 339 342 345 347 348 348 348 348 347
338 339 341 342 338 338 341 341 343 346 346 347 346 347 348 349 347 348 348 347 347 346 346 345 346 330 321 321 319 318 324 334 335 337 339 341 343 345 347 348 348 348
335 335 335 339 341 337 336 338 340 344 347 350 346 344 345 347 349 348 349 347 347 347 347 346 346 337 318 316 315 316 328 332 333 335 336 338 340 342 343 344 347 355
329 331 333 335 335 338 337 336 337 340 343 345 347 347 346 346 347 349 350 349 349 349 352 349 347 342 319 314 313 313 327 333 333 333 334 334 336 337 338 340 342 350
325 329 330 330 331 333 336 337 339 338 339 342 344 345 346 348 348 349 348 350 351 350 351 350 348 348 339 315 312 312 318 340 337 336 337 337 337 337 338 338 339 340

ECMWFNIL_sfc_thetae_102.txt.gz
Theta_e
351 351 351 351 351 351 351 351 352 353 353 354 354 354 355 357 360 360 361 362 362 361 361 361 363 361 362 361 362 361 362 360 361 358 359 360 359 360 360 359 358 358
351 352 354 352 352 354 352 352 352 353 353 354 355 355 356 358 359 360 360 361 362 362 361 360 362 361 361 361 360 360 360 360 359 361 359 360 360 360 360 360 359 358
351 352 353 351 351 352 352 352 353 353 354 355 356 356 356 359 358 360 360 361 361 361 361 361 361 362 360 360 360 361 360 359 359 361 361 359 358 359 360 360 359 358
351 352 353 352 352 352 353 353 352 353 354 355 355 356 357 358 359 359 359 363 360 361 361 360 361 362 361 360 360 360 360 360 360 359 360 360 359 360 361 359 362 361
352 352 352 352 352 353 354 353 352 352 353 354 355 357 359 359 358 358 358 359 360 360 360 361 361 361 361 360 360 359 359 358 358 358 357 357 357 361 360 361 360 360
353 353 353 352 352 353 353 353 353 353 353 353 354 357 358 358 358 358 358 357 358 359 359 360 360 360 360 360 360 359 358 357 358 358 358 357 357 359 361 363 361 360
351 352 352 353 352 352 353 353 353 355 354 354 355 355 357 357 357 358 358 357 357 359 359 360 361 361 361 361 360 359 358 358 358 358 358 358 358 358 359 361 362 360
351 351 352 353 352 352 352 353 353 354 355 355 354 355 356 355 356 357 359 358 357 358 359 359 361 361 360 360 359 359 358 357 357 358 358 358 358 358 359 359 360 359
351 351 352 352 352 352 351 352 352 353 354 354 354 354 356 356 355 355 357 358 358 358 358 359 360 360 360 360 360 359 359 358 359 358 358 357 356 357 358 358 357 357
351 351 351 351 351 351 351 352 352 352 354 353 353 353 353 356 356 355 355 357 357 358 358 358 359 359 360 360 360 360 359 359 359 359 358 357 357 357 356 356 356 356
350 350 350 350 351 351 351 351 351 351 352 352 352 352 352 353 354 355 355 355 355 357 357 358 358 359 359 359 359 360 360 359 359 358 358 357 357 357 358 357 356 356
350 350 350 350 350 350 351 351 351 351 350 351 352 352 352 351 352 352 354 354 355 357 358 358 358 358 359 359 359 359 359 359 359 359 358 357 357 356 356 357 357 357
351 350 351 350 351 350 350 351 350 350 350 349 351 351 350 349 349 351 353 354 354 355 356 358 358 357 357 358 358 359 359 359 358 358 358 357 357 356 356 357 357 357
348 350 350 351 351 351 350 350 349 349 350 351 351 350 349 348 348 348 349 352 353 354 355 357 357 356 357 357 357 357 357 357 358 358 357 357 357 357 356 356 357 357
346 349 348 348 347 347 348 348 348 347 348 349 350 350 349 349 349 348 348 348 351 352 353 355 355 355 355 356 355 356 356 356 356 356 357 356 356 356 356 356 356 356
347 348 348 347 346 345 345 346 347 348 348 346 346 346 348 350 350 349 348 347 347 349 351 352 353 354 354 345 348 356 356 355 355 356 356 356 356 355 354 354 354 355
346 346 347 346 346 346 346 345 344 346 347 347 347 347 346 346 348 347 346 346 346 347 347 348 351 353 345 336 336 340 354 355 354 354 355 355 354 354 354 354 354 354
346 345 345 345 345 346 346 346 346 346 345 345 345 345 347 347 345 345 345 345 344 345 345 347 348 346 335 333 333 333 341 355 354 354 353 353 353 353 353 354 354 353
347 347 346 346 346 347 347 347 345 345 346 346 347 348 348 346 346 345 345 345 345 345 343 345 347 340 332 330 331 330 331 342 353 354 352 352 352 352 352 353 353 353
343 345 345 346 347 347 346 346 346 346 347 348 348 348 347 346 346 346 346 346 346 345 346 345 345 340 331 327 326 327 329 333 348 352 353 353 352 352 351 352 352 351
340 338 336 338 340 343 345 345 346 347 348 348 348 347 346 346 347 348 348 348 346 347 348 347 346 337 330 326 322 322 325 331 344 348 350 352 353 353 353 353 353 353
337 338 336 334 336 340 340 340 343 345 344 346 349 350 350 350 349 349 349 349 349 348 347 348 350 333 325 324 321 320 323 335 341 344 346 348 350 352 353 353 353 354
334 334 336 337 335 334 334 336 337 340 344 347 346 347 348 348 349 350 351 351 351 351 349 349 350 340 324 322 322 319 324 338 341 342 344 345 346 348 350 352 354 354
331 331 331 332 334 335 336 336 338 339 339 343 346 345 345 347 347 347 349 350 351 351 351 351 351 346 327 318 317 317 329 341 341 342 343 344 345 347 349 350 351 354
329 328 328 329 330 332 334 336 337 338 340 339 341 343 344 347 348 347 350 351 352 352 353 352 353 348 328 320 317 315 325 339 341 341 341 342 343 344 345 347 348 350
326 327 328 327 327 329 331 335 339 339 337 338 339 342 342 344 347 347 346 347 350 351 351 352 351 352 348 323 316 314 315 335 341 340 340 341 342 342 343 344 345 346

ECMWFNIL_sfc_thetae_105.txt.gz
Theta_e
362 362 361 361 361 362 364 363 362 362 364 362 361 363 363 366 368 367 367 369 369 370 370 371 372 371 368 370 371 369 368 367 367 367 367 365 363 361 359 360 362 361
361 362 363 361 363 365 366 365 365 364 365 366 364 365 367 367 367 367 367 367 369 368 371 369 370 370 370 369 370 367 367 367 366 365 367 366 365 362 360 361 361 364
359 361 360 359 358 360 358 363 365 365 364 364 365 368 366 367 366 369 368 367 367 366 370 371 370 370 368 370 371 368 365 367 365 365 368 367 365 362 363 359 360 361
360 360 358 357 358 359 360 362 363 364 364 364 364 364 365 363 366 367 369 369 368 368 369 369 368 368 369 369 371 368 367 368 366 368 367 367 367 363 363 364 362 361
358 359 360 360 360 363 363 361 359 360 361 362 363 366 367 368 367 365 367 367 370 368 369 369 369 368 370 370 370 368 367 365 367 369 366 365 367 365 363 363 363 361
361 362 363 361 363 363 361 360 361 360 361 360 362 364 364 366 365 364 365 364 363 363 363 365 366 367 367 368 369 367 364 362 364 368 365 364 363 363 362 363 363 362
358 359 359 360 360 361 361 361 362 363 360 361 364 363 364 364 364 366 366 365 362 365 362 366 368 367 368 369 369 369 369 368 367 367 365 363 365 364 363 363 364 363
357 359 359 360 358 359 360 360 361 362 364 364 362 364 365 363 365 364 365 365 363 365 366 365 369 371 367 367 368 367 367 363 364 367 367 365 364 364 364 363 363 363
357 358 359 359 357 357 357 357 359 361 364 363 360 361 364 364 364 363 366 367 365 366 368 367 369 367 367 368 368 368 367 364 362 365 365 363 362 364 363 364 363 363
357 357 356 357 356 356 356 357 357 359 362 361 360 359 360 364 364 364 366 368 365 367 368 367 367 366 367 367 368 368 368 368 367 367 365 364 363 363 362 363 362 363
355 355 355 356 355 355 356 356 357 358 360 360 360 359 360 361 364 365 366 366 362 363 365 366 366 367 367 365 367 368 368 366 367 368 367 366 365 366 365 365 364 363
356 355 355 355 355 355 355 356 357 357 358 360 360 359 361 359 361 362 362 364 364 364 364 366 367 368 368 367 365 366 367 367 367 368 366 367 366 365 366 366 364 364
357 357 357 355 357 356 356 357 357 356 357 357 360 359 359 357 358 360 362 362 364 363 362 364 366 365 368 369 367 367 368 367 365 366 366 366 366 365 364 364 364 364
356 358 358 359 361 362 360 358 357 357 357 358 359 359 358 357 357 357 359 360 361 361 363 364 365 364 367 368 367 366 365 366 366 365 363 364 365 366 364 362 363 363
354 358 360 361 362 361 361 360 358 358 358 358 359 357 356 357 357 356 356 357 358 359 360 360 358 359 360 364 364 366 365 362 364 364 364 364 365 363 364 365 364 362
349 352 354 357 358 359 361 360 358 357 355 355 356 357 358 359 359 358 356 355 355 357 358 356 357 358 362 353 355 361 363 361 361 364 365 364 364 364 363 362 362 362
349 347 350 352 354 354 354 355 355 355 355 356 356 355 355 357 356 356 355 355 354 355 355 354 354 355 352 339 338 341 357 362 363 364 366 366 363 365 364 362 361 362
349 348 348 350 352 351 349 350 351 353 354 355 354 353 355 354 353 354 356 355 354 354 353 353 354 354 339 335 335 333 343 358 359 360 360 361 362 361 361 361 361 360
349 348 348 349 350 347 342 343 347 351 353 354 353 354 353 353 355 355 355 354 354 354 352 352 352 346 335 332 332 331 331 345 356 357 357 358 360 362 362 362 363 361
349 349 348 347 348 347 344 343 345 349 354 356 356 357 355 353 352 353 355 357 357 356 357 356 354 350 334 329 327 327 329 335 355 355 356 357 359 360 360 360 362 363
339 340 343 345 347 348 347 346 347 350 351 351 351 351 351 353 352 352 353 355 355 354 355 354 353 342 332 328 324 323 325 334 352 354 355 356 359 360 362 361 362 362
339 339 339 340 341 345 345 343 345 349 349 351 351 353 353 354 354 354 354 355 357 356 355 354 355 334 332 328 324 322 325 343 352 355 355 355 357 359 360 363 363 363
335 336 337 338 339 337 336 338 339 341 346 350 350 352 353 354 354 354 356 355 355 357 356 357 358 339 326 324 325 322 331 353 355 355 356 356 356 358 360 361 361 362
334 334 334 335 336 337 338 339 340 341 341 345 346 348 350 350 351 352 352 353 354 355 355 355 357 347 328 324 321 321 336 353 356 355 355 356 356 358 358 359 359 356
333 333 333 334 335 336 337 338 340 340 342 343 344 345 345 349 348 349 350 351 351 352 354 354 355 346 326 321 318 319 335 355 354 355 354 354 354 355 356 355 356 354
330 331 332 333 334 335 336 337 339 340 340 341 342 344 344 346 346 345 346 348 349 349 349 350 351 349 332 315 313 315 322 350 355 353 352 353 354 354 355 357 357 358

ECMWFNIL_sfc_thetae_108.txt.gz
Theta_e
360 362 361 360 361 361 362 362 361 362 364 362 362 364 363 367 368 368 367 369 370 369 372 375 376 373 369 371 374 371 370 370 369 368 369 367 365 362 359 360 359 358
361 362 362 361 361 363 364 365 364 363 365 367 366 366 368 369 367 367 368 368 371 368 374 372 372 373 372 368 371 367 369 369 367 365 367 367 366 363 360 361 360 364
361 361 359 359 358 361 359 363 364 365 362 363 366 369 366 365 367 368 369 369 368 365 369 372 373 373 370 370 373 369 366 367 366 363 367 367 366 365 365 360 361 362
363 362 359 357 357 359 360 362 364 366 365 363 363 364 365 364 366 367 368 368 369 368 367 368 368 368 370 371 374 368 368 369 366 370 367 368 368 365 365 364 362 361
361 361 360 359 359 360 362 361 361 362 363 364 365 368 368 368 369 367 368 367 369 369 369 369 370 368 371 373 372 369 367 366 367 369 367 367 369 367 363 364 365 362
362 363 363 359 359 362 360 361 362 361 362 361 364 365 365 367 367 366 366 365 365 364 364 365 367 366 367 370 371 368 364 361 362 369 366 368 365 364 362 364 366 364
357 360 360 359 358 360 361 362 362 363 361 361 364 365 364 364 364 366 367 365 363 364 362 365 368 367 366 369 370 370 369 368 368 370 367 365 366 365 363 364 365 364
357 358 359 359 357 358 360 360 360 362 364 364 361 365 365 362 365 364 365 365 364 365 365 366 368 370 367 366 367 368 368 365 365 368 368 365 365 366 365 362 364 364
357 356 357 357 355 355 355 356 358 360 363 362 360 361 364 364 363 363 364 366 365 365 367 367 369 368 367 366 367 369 368 365 362 366 367 365 364 364 362 365 363 362
357 355 354 355 353 353 353 356 356 358 360 360 360 359 359 364 364 364 365 367 365 366 368 367 367 366 366 367 368 369 369 369 368 367 366 366 365 364 363 364 363 363
356 355 354 354 354 352 352 353 355 355 359 360 359 358 359 361 363 365 365 366 361 364 366 368 367 367 367 366 366 367 367 366 367 368 368 368 367 366 364 365 363 362
357 356 356 355 354 353 353 353 353 354 356 359 359 359 360 359 362 362 362 365 365 364 366 367 367 367 368 368 365 365 365 365 367 368 367 368 368 366 366 367 365 366
358 358 358 357 358 356 355 355 354 353 355 356 359 359 360 359 359 362 362 362 363 361 361 365 367 366 367 368 367 366 366 366 364 365 365 365 367 365 364 363 362 361
358 359 358 361 361 362 361 359 356 355 355 356 358 359 359 359 358 357 360 359 359 359 361 363 364 364 366 367 367 365 364 363 363 362 360 362 363 364 362 360 361 360
358 361 363 363 363 364 366 363 360 359 357 356 357 357 357 359 358 357 358 359 358 358 359 359 357 358 358 362 363 362 362 361 361 360 360 360 360 359 360 360 360 358
361 362 360 362 364 365 366 366 364 362 358 357 356 357 358 359 360 360 358 356 356 358 358 355 352 352 362 362 362 362 362 359 359 361 361 360 359 359 357 358 357 358
356 356 359 359 360 359 362 365 362 361 360 360 359 359 359 360 358 357 356 354 353 354 354 352 348 349 356 343 344 349 360 360 359 361 363 362 360 361 360 358 358 357
354 354 355 356 357 358 359 360 360 358 359 361 360 358 361 359 358 357 357 354 351 350 350 350 350 356 339 339 341 339 352 360 358 357 356 358 359 358 358 357 357 356
355 354 355 355 356 357 358 359 357 357 356 358 360 361 360 361 361 359 359 358 355 354 354 352 352 344 337 336 337 335 336 353 356 357 355 355 356 358 359 360 360 358
356 356 357 357 357 358 357 355 355 354 357 358 360 361 360 360 359 360 360 361 360 358 359 358 356 347 335 333 333 331 332 341 358 356 356 355 357 357 357 358 360 362
350 353 354 355 356 356 354 352 352 354 356 358 357 356 357 358 357 358 359 359 359 359 359 357 357 337 331 330 329 327 330 339 356 355 355 356 357 358 361 360 361 359
347 347 350 352 351 352 351 350 351 350 350 353 355 357 357 356 358 357 358 359 360 361 359 358 355 326 330 328 327 326 330 349 356 359 358 357 358 359 360 363 364 364
342 342 343 344 345 344 344 346 347 348 350 352 352 354 355 355 356 357 360 359 360 361 360 361 358 332 323 323 324 324 334 357 358 358 359 360 359 360 361 362 363 364
343 342 341 341 341 340 343 344 345 345 348 352 354 353 351 353 356 356 358 360 360 359 358 358 357 338 322 320 321 323 342 358 361 360 360 360 360 362 362 363 365 362
341 341 342 341 340 339 340 341 341 343 345 347 348 348 349 351 355 356 355 357 356 356 357 355 356 342 317 319 320 324 343 362 360 361 361 360 359 360 363 363 365 363
339 338 340 340 340 339 339 340 344 345 346 345 345 346 345 346 348 351 353 355 354 354 353 353 351 346 330 314 316 320 325 353 363 361 360 360 361 361 360 362 362 363

ECMWFNIL_sfc_thetae_111.txt.gz
Theta_e
360 360 361 360 360 360 360 362 361 361 362 356 358 359 359 362 364 364 363 366 368 368 372 375 373 370 367 368 376 368 370 371 367 364 367 367 364 361 358 358 357 356
360 361 364 361 362 364 364 362 362 360 360 364 361 365 363 364 365 366 365 366 369 366 372 372 370 370 371 366 367 365 369 369 364 360 364 365 361 360 359 360 358 361
360 360 360 360 359 361 360 362 363 362 360 360 361 363 359 364 366 367 367 368 365 363 369 372 370 372 365 369 373 366 363 364 363 363 365 365 366 363 363 360 359 359
361 360 358 357 359 360 359 361 363 364 360 358 359 359 360 359 361 364 367 367 367 366 365 366 367 365 367 369 370 363 366 371 366 368 365 365 365 364 364 363 360 360
360 360 358 357 357 361 360 359 359 358 360 360 360 361 362 366 363 362 365 364 368 367 368 368 367 367 369 370 370 363 364 364 363 370 367 366 367 366 362 362 363 362
361 362 361 358 358 360 358 358 359 355 357 359 359 357 360 364 366 363 363 364 362 363 363 365 366 364 367 367 370 364 361 358 359 365 366 366 362 360 360 362 365 362
359 359 358 358 357 357 359 359 359 361 357 359 361 359 361 362 363 365 365 364 363 362 361 362 364 365 363 366 367 365 367 366 368 369 366 361 363 362 362 362 365 362
355 357 358 357 355 355 356 357 359 360 361 362 358 360 363 358 363 363 364 364 359 360 363 361 365 367 364 364 366 363 362 356 362 369 367 363 365 366 363 361 364 365
354 355 356 354 353 352 351 354 357 358 361 359 358 357 361 360 358 360 362 363 360 363 361 362 367 366 365 363 364 366 364 362 356 362 362 360 360 360 361 363 359 361
355 354 353 354 351 351 351 352 354 356 358 358 357 357 357 359 360 361 362 365 364 360 363 364 366 366 364 363 364 366 366 364 365 364 364 364 363 363 362 361 360 362
354 354 353 353 352 350 350 350 352 354 357 358 356 356 355 358 360 359 359 365 361 362 366 365 365 366 364 362 363 365 366 365 364 365 364 364 363 365 364 364 363 362
357 355 354 353 352 352 350 350 351 351 355 356 356 358 355 355 356 355 358 363 364 363 364 364 365 366 365 366 364 364 363 364 365 365 363 365 363 362 362 362 360 360
357 356 356 354 353 353 352 352 351 350 351 353 354 354 355 352 354 356 357 360 364 362 361 364 365 365 367 367 365 365 363 363 361 363 364 361 364 363 362 362 362 359
357 355 355 358 358 359 356 353 352 352 352 354 354 354 354 353 352 353 355 359 361 361 362 364 365 365 366 369 365 364 363 364 364 363 362 363 361 360 358 359 358 357
361 361 359 360 362 363 362 358 356 354 353 354 356 356 354 354 354 353 354 355 358 358 358 358 359 359 361 362 363 364 364 361 362 361 360 360 360 360 361 358 356 355
366 366 365 365 362 362 365 365 361 360 356 355 355 356 357 358 358 356 354 353 355 358 357 354 354 356 362 363 362 362 360 359 358 359 361 360 361 358 358 357 357 357
361 361 362 360 362 366 367 367 363 362 360 360 357 357 358 362 359 357 355 354 351 352 355 353 352 353 352 344 348 354 363 361 359 358 359 360 357 361 360 358 356 356
356 356 355 355 357 357 360 362 365 366 364 363 360 357 359 355 354 354 357 354 354 354 354 353 353 355 337 340 344 345 358 358 353 354 354 355 358 357 356 356 355 353
356 355 354 354 354 355 356 357 357 360 363 360 359 360 359 359 359 354 354 353 352 352 350 350 349 340 335 338 340 340 343 358 351 350 348 349 352 357 357 359 360 357
354 352 353 354 356 356 357 357 357 357 360 362 361 361 351 349 353 356 355 359 354 353 357 351 352 339 335 335 336 336 338 348 355 352 351 349 351 350 351 356 360 359
351 348 347 351 352 351 350 350 350 357 361 360 362 355 351 351 351 353 353 356 355 354 353 350 349 334 332 332 332 332 334 347 356 352 352 351 351 353 355 354 357 356
348 349 348 348 348 348 348 348 349 359 361 363 358 356 355 357 356 346 342 348 355 356 353 352 344 324 329 330 328 330 336 353 355 356 355 355 354 353 354 359 358 358
347 347 343 344 345 347 344 344 349 357 358 360 355 352 351 351 350 348 350 348 347 351 354 355 348 329 322 322 324 325 339 356 356 355 355 355 354 356 356 356 356 359
345 345 345 346 346 345 346 348 348 350 352 357 354 351 350 351 353 352 352 352 349 349 350 350 347 330 318 318 321 323 335 356 358 357 356 355 353 356 355 356 359 361
344 344 343 342 342 344 346 346 348 350 351 355 356 354 353 354 354 351 354 352 352 350 349 347 344 335 318 317 318 321 340 359 360 359 356 352 349 348 350 352 354 359
341 343 343 344 343 342 343 345 346 348 349 350 349 348 347 346 349 351 351 349 348 347 344 344 342 337 329 314 316 319 323 350 361 359 353 352 352 351 349 353 350 349

ECMWFNIL_sfc_thetae_114.txt.gz
Theta_e
363 362 360 363 364 364 364 360 358 360 365 362 359 359 360 366 369 366 364 369 370 369 371 375 375 374 369 373 375 374 375 372 369 368 371 370 366 360 357 357 359 361
363 364 365 361 365 367 369 365 363 364 365 368 364 375 370 367 363 364 365 365 368 366 373 368 371 371 370 369 372 371 373 371 369 361 366 366 368 363 360 360 357 363
360 361 358 357 355 357 358 362 365 362 361 361 362 368 363 364 363 369 367 367 366 361 370 371 370 371 368 372 372 368 367 371 367 363 373 369 367 365 367 359 357 358
361 360 357 356 356 357 357 359 362 366 361 362 360 359 359 359 363 363 368 369 368 367 368 369 368 365 367 369 373 371 367 371 365 371 369 370 371 365 362 365 362 357
357 358 358 357 358 363 362 359 356 358 358 362 359 364 365 369 366 362 366 366 370 365 368 366 367 366 370 370 369 368 367 367 368 373 371 369 371 367 361 362 369 363
361 362 363 360 360 360 357 358 359 358 358 359 359 360 360 361 362 360 361 361 360 360 360 362 363 363 363 368 369 366 363 360 361 369 368 367 363 362 359 362 367 364
356 358 355 356 354 359 357 358 359 360 356 357 362 360 359 361 362 363 363 361 359 361 357 364 367 365 364 368 368 369 368 368 369 367 366 364 366 364 360 362 369 366
355 356 356 356 354 353 354 354 355 358 358 359 356 360 359 358 360 359 361 362 360 359 363 363 366 369 360 363 365 366 364 359 361 369 368 366 366 365 365 360 365 370
354 355 355 354 353 351 351 352 354 356 358 357 355 356 359 359 359 359 367 366 364 364 368 363 365 362 362 364 365 365 363 359 358 364 365 363 360 362 362 365 362 366
353 353 353 352 351 351 351 351 352 354 358 359 357 356 356 361 361 362 367 368 364 365 364 365 364 363 361 362 364 365 363 364 366 366 363 362 361 360 358 360 359 362
349 350 350 351 350 349 349 349 350 351 356 356 356 355 356 358 361 362 366 365 360 360 362 364 362 365 365 360 360 361 363 361 364 365 362 363 364 363 362 365 363 360
352 350 349 350 351 350 348 348 349 349 351 355 356 357 357 356 357 358 360 361 361 362 362 364 367 366 366 364 359 359 363 362 363 365 362 363 362 361 363 363 361 364
353 356 353 349 351 351 350 350 349 349 349 351 355 356 355 355 355 357 359 358 362 362 361 365 365 362 367 367 364 364 364 362 359 364 363 363 362 361 360 359 358 358
353 352 353 359 362 362 358 351 349 349 350 352 356 355 354 355 354 354 355 357 358 360 362 363 365 363 366 366 365 363 361 361 363 362 363 361 359 362 361 359 360 359
365 364 365 366 366 370 371 363 357 352 355 359 358 354 353 353 354 353 353 355 356 359 361 361 359 360 362 362 362 363 360 361 361 362 360 360 358 359 359 361 360 357
367 366 368 369 369 367 366 367 360 360 355 352 354 354 357 361 360 356 353 353 354 358 359 358 356 358 365 361 362 364 363 358 359 363 363 365 364 361 358 358 356 355
363 365 365 364 362 362 367 367 366 364 362 358 357 358 363 361 361 356 351 354 353 354 355 356 355 355 355 344 345 355 362 363 363 365 365 364 361 363 364 360 357 357
361 361 360 358 355 355 358 361 362 362 364 362 361 359 358 355 354 354 356 353 352 352 352 353 354 358 340 338 342 344 358 361 357 355 354 358 360 358 359 357 355 352
359 357 356 354 350 351 352 354 356 358 357 360 360 359 359 356 356 356 358 359 356 352 349 351 354 344 335 335 335 338 343 359 352 351 348 348 355 360 357 357 364 366
355 355 354 353 353 352 352 350 349 354 356 364 362 360 355 353 354 356 356 357 356 356 360 355 347 334 327 328 332 334 339 350 355 350 350 349 354 354 350 357 366 359
352 353 353 353 354 355 356 356 357 358 356 360 361 358 357 357 358 357 356 353 352 351 350 347 344 329 327 327 329 333 337 352 358 353 352 355 355 356 361 357 357 357
348 349 348 348 350 351 352 352 352 352 352 354 357 359 358 360 358 357 354 353 353 352 348 347 342 325 325 324 324 326 335 355 360 361 358 354 354 355 357 361 359 354
348 346 343 344 345 346 347 348 347 348 351 353 351 353 354 356 356 354 354 352 351 352 351 349 346 327 322 320 322 325 342 355 359 359 360 358 356 361 362 355 356 360
347 347 345 345 345 345 345 346 346 347 347 351 352 352 351 353 354 354 352 352 351 351 351 348 344 326 318 318 319 323 339 354 361 363 359 361 358 359 359 357 357 362
346 345 346 345 345 345 346 347 348 348 349 350 350 350 351 351 352 351 351 351 351 350 352 348 340 331 317 317 318 321 339 355 362 360 358 358 358 357 356 357 356 357
343 345 344 343 343 344 346 347 348 350 350 350 351 351 348 348 348 349 348 349 350 350 348 342 337 333 327 315 316 319 324 347 360 356 354 354 357 355 355 354 354 354

ECMWFNIL_sfc_thetae_117.txt.gz
Theta_e
357 356 355 354 356 357 356 357 359 357 357 357 355 356 356 358 361 359 362 364 365 363 367 367 367 367 369 367 365 367 365 361 361 362 364 364 361 360 358 356 355 353
356 357 361 356 358 360 357 358 358 358 359 358 356 358 357 361 363 360 361 363 366 365 364 368 368 366 365 366 365 365 364 364 362 367 361 361 361 363 360 358 356 355
356 356 358 356 358 358 359 358 359 358 358 359 361 362 360 361 359 360 359 362 364 363 365 366 366 365 363 363 364 362 365 361 360 358 361 359 363 361 360 359 357 356
355 356 357 355 356 358 356 358 357 358 358 358 358 361 360 360 358 359 361 367 362 361 364 365 364 364 363 365 363 362 362 362 361 361 361 364 363 363 360 359 359 358
355 355 354 353 353 355 356 356 356 357 356 357 355 357 359 362 358 359 361 361 361 361 364 364 364 362 362 363 363 362 361 361 360 363 360 360 361 362 361 358 355 356
355 354 355 354 354 354 354 353 354 356 354 357 355 359 357 360 358 358 360 360 362 361 363 363 363 363 363 363 364 362 359 362 360 364 360 359 359 359 359 358 357 356
354 354 355 355 358 355 354 355 355 356 355 355 357 356 357 357 357 356 357 359 358 358 357 358 359 359 360 360 361 360 359 360 359 360 360 359 360 359 360 358 357 357
355 354 354 353 352 354 353 355 355 356 355 355 356 356 357 356 359 358 358 357 357 356 356 358 359 360 360 360 361 360 360 362 360 360 358 358 358 357 359 360 358 358
354 354 353 352 351 353 353 354 354 355 355 354 354 356 356 357 358 358 357 357 357 357 356 359 359 360 360 358 360 360 359 358 357 360 359 358 358 357 357 357 356 356
352 353 353 352 351 350 352 352 353 354 355 353 353 354 354 355 357 356 359 357 358 358 360 358 358 358 358 357 358 359 359 358 357 359 360 360 359 357 356 356 356 355
351 352 352 352 351 350 349 349 350 353 355 353 353 353 353 354 357 358 361 360 359 359 358 358 359 358 358 358 358 359 359 359 357 358 359 359 359 358 365 359 356 354
349 350 350 350 350 349 348 348 348 349 354 355 354 353 352 354 356 356 361 358 357 358 358 357 358 359 359 359 358 358 358 359 359 360 358 356 357 358 358 359 359 358
348 347 348 349 350 348 348 347 346 346 351 354 355 354 354 353 355 355 358 359 357 358 359 359 358 360 360 360 360 359 357 358 358 359 359 358 358 358 358 358 358 357
351 352 352 349 348 349 348 348 346 345 345 352 354 353 353 353 352 353 355 357 357 357 358 359 360 360 359 361 361 360 358 358 357 357 359 359 358 358 359 358 357 356
354 355 360 362 360 358 358 360 360 355 354 352 353 354 354 353 353 353 353 353 355 356 358 359 360 360 360 361 361 360 360 357 357 357 357 356 355 354 354 356 357 357
351 360 360 358 357 359 360 360 360 359 356 353 356 357 354 353 353 352 351 351 352 354 356 359 358 353 354 356 363 359 357 357 357 357 357 356 355 354 355 356 356 356
345 346 351 350 351 351 354 357 359 360 358 356 354 354 354 353 350 350 350 350 351 352 353 356 352 353 349 335 340 356 359 353 351 353 356 357 357 355 354 356 356 355
351 351 350 349 348 348 348 349 352 355 357 356 356 354 353 354 352 353 349 352 355 353 350 352 355 352 338 333 334 335 348 356 353 353 357 356 356 355 354 355 353 353
347 348 346 349 348 348 347 346 345 345 351 354 356 355 353 353 353 355 353 352 350 348 349 350 349 344 333 332 332 332 334 347 354 354 351 351 353 353 352 352 352 353
349 347 346 348 349 348 348 345 343 343 346 352 358 354 350 351 353 352 352 352 354 353 350 347 348 335 326 327 329 331 333 339 344 350 348 345 345 348 351 351 353 353
351 351 350 349 350 350 349 348 348 350 352 353 353 351 352 352 353 353 352 351 350 348 347 345 345 331 326 328 327 330 335 347 342 347 353 352 353 351 352 351 349 350
346 346 345 346 346 346 346 347 348 347 347 350 351 352 353 357 357 356 353 351 350 348 347 343 337 322 323 324 324 327 332 347 345 349 351 351 350 352 351 351 352 351
346 344 343 343 343 344 345 346 344 344 346 347 346 349 351 352 354 354 352 352 351 350 348 345 340 324 318 320 322 325 339 354 354 353 353 352 354 353 352 354 356 352
346 345 343 343 342 343 343 344 344 344 343 348 346 346 347 348 351 350 350 351 352 351 348 345 335 324 318 317 318 322 342 354 357 357 356 355 355 355 353 351 356 364
344 344 344 343 343 343 344 343 343 344 345 346 345 345 347 347 348 347 347 348 349 349 354 341 334 329 317 318 318 320 339 352 357 355 355 354 354 353 354 352 351 356
342 345 345 343 342 343 344 345 346 347 347 346 345 345 345 344 343 344 345 347 349 350 345 338 333 332 328 315 317 319 328 352 355 352 351 352 353 351 352 351 350 347